[[{"header":{"parameterUnit":"m.s-1","parameterCategory":1,"la1":30.6,"la2":28.766,"lo1":-90.7593,"lo2":-88.6598,"dy":0.0162,"dx":0.0183,"nx":116,"ny":114,"refTime":"2023-06-30T12:00:00:Z","depth":0,"parameterNumber":2,"parameterNumberName":"U-component_of_WINDS"},"data":[0.0,0.0,0.0,0.0,0.0,0.0,0.0,0.0,0.0,0.0,0.0,0.0,0.0,0.0,0.0,0.0,0.0,0.0,0.0,0.0,0.0,0.0,0.0,0.0,0.0,0.0,0.0,0.0,0.0,0.0,0.0,0.0,0.0,0.0,0.0,0.0,0.0,0.0,0.0,0.0,0.0,0.0,0.0,0.0,0.0,0.0,0.0,0.0,0.0,0.0,0.0,0.0,0.0,0.0,0.0,0.0,0.0,0.0,0.0,0.0,0.0,0.0,0.0,0.0,0.0,0.0,0.0,0.0,0.0,0.0,0.0,0.0,0.0,0.0,0.0,0.0,0.0,0.0,0.0,0.0,0.0,0.0,0.0,0.0,0.0,0.0,0.0,0.0,0.0,0.0,0.0,0.0,0.0,0.0,0.0,0.0,0.0,0.0,0.0,0.0,0.0,0.0,0.0,0.0,0.0,0.0,0.0,0.0,0.0,0.0,0.0,0.0,0.0,0.0,0.0,0.0,0.0,0.0,0.0,0.0,0.0,0.0,0.0,0.0,0.0,0.0,0.0,0.0,0.0,0.0,0.0,0.0,0.0,0.0,0.0,0.0,0.0,0.0,0.0,0.0,0.0,0.0,0.0,0.0,0.0,0.0,0.0,0.0,0.0,0.0,0.0,0.0,0.0,0.0,0.0,0.0,0.0,0.0,0.0,0.0,0.0,0.0,0.0,0.0,0.0,0.0,0.0,0.0,0.0,0.0,0.0,0.0,0.0,0.0,0.0,0.0,0.0,0.0,0.0,0.0,0.0,0.0,0.0,0.0,0.0,0.0,0.0,0.0,0.0,0.0,0.0,0.0,0.0,0.0,0.0,0.0,0.0,0.0,0.0,0.0,0.0,0.0,0.0,0.0,0.0,0.0,0.0,0.0,0.0,0.0,0.0,0.0,0.0,0.0,0.0,0.0,0.0,0.0,0.0,0.0,0.0,0.0,0.0,0.0,0.0,0.0,0.0,0.0,0.0,0.0,0.0,0.0,0.0,0.0,0.0,0.0,0.0,0.0,0.0,0.0,0.0,0.0,0.0,0.0,0.0,0.0,0.0,0.0,0.0,0.0,0.0,0.0,0.0,0.0,0.0,0.0,0.0,0.0,0.0,0.0,0.0,0.0,0.0,0.0,0.0,0.0,0.0,0.0,0.0,0.0,0.0,0.0,0.0,0.0,0.0,0.0,0.0,0.0,0.0,0.0,0.0,0.0,0.0,0.0,0.0,0.0,0.0,0.0,0.0,0.0,0.0,0.0,0.0,0.0,0.0,0.0,0.0,0.0,0.0,0.0,0.0,0.0,0.0,0.0,0.0,0.0,0.0,0.0,0.0,0.0,0.0,0.0,0.0,0.0,0.0,0.0,0.0,0.0,0.0,0.0,0.0,0.0,0.0,0.0,0.0,0.0,0.0,0.0,0.0,0.0,0.0,0.0,0.0,0.0,0.0,0.0,0.0,0.0,0.0,0.0,0.0,0.0,0.0,0.0,0.0,0.0,0.0,0.0,0.0,0.0,0.0,0.0,0.0,0.0,0.0,0.0,0.0,0.0,0.0,0.0,0.0,0.0,0.0,0.0,0.0,0.0,0.0,0.0,0.0,0.0,0.0,0.0,0.0,0.0,0.0,0.0,0.0,0.0,0.0,0.0,0.0,0.0,0.0,0.0,0.0,0.0,0.0,0.0,0.0,0.0,0.0,0.0,0.0,0.0,0.0,0.0,0.0,0.0,0.0,0.0,0.0,0.0,0.0,0.0,0.0,0.0,0.0,0.0,0.0,0.0,0.0,0.0,0.0,0.0,0.0,0.0,0.0,0.0,0.0,0.0,0.0,0.0,0.0,0.0,0.0,0.0,0.0,0.0,0.0,0.0,0.0,0.0,0.0,0.0,0.0,0.0,0.0,0.0,0.0,0.0,0.0,0.0,0.0,0.0,0.0,0.0,0.0,0.0,0.0,0.0,0.0,0.0,0.0,0.0,0.0,0.0,0.0,0.0,0.0,0.0,0.0,0.0,0.0,0.0,0.0,0.0,0.0,0.0,0.0,0.0,0.0,0.0,0.0,0.0,0.0,0.0,0.0,0.0,0.0,0.0,0.0,0.0,0.0,0.0,0.0,0.0,0.0,0.0,0.0,0.0,0.0,0.0,0.0,0.0,0.0,0.0,0.0,0.0,0.0,0.0,0.0,0.0,0.0,0.0,0.0,0.0,0.0,0.0,0.0,0.0,0.0,0.0,0.0,0.0,0.0,0.0,0.0,0.0,0.0,0.0,0.0,0.0,0.0,0.0,0.0,0.0,0.0,0.0,0.0,0.0,0.0,0.0,0.0,0.0,0.0,0.0,0.0,0.0,0.0,0.0,0.0,0.0,0.0,0.0,0.0,0.0,0.0,0.0,0.0,0.0,0.0,0.0,0.0,0.0,0.0,0.0,0.0,0.0,0.0,0.0,0.0,0.0,0.0,0.0,0.0,0.0,0.0,0.0,0.0,0.0,0.0,0.0,0.0,0.0,0.0,0.0,0.0,0.0,0.0,0.0,0.0,0.0,0.0,0.0,0.0,0.0,0.0,0.0,0.0,0.0,0.0,0.0,0.0,0.0,0.0,0.0,0.0,0.0,0.0,0.0,0.0,0.0,0.0,0.0,0.0,0.0,0.0,0.0,0.0,0.0,0.0,0.0,0.0,0.0,0.0,0.0,0.0,0.0,0.0,0.0,0.0,0.0,0.0,0.0,0.0,0.0,0.0,0.0,0.0,0.0,0.0,0.0,0.0,0.0,0.0,0.0,0.0,0.0,0.0,0.0,0.0,0.0,0.0,0.0,0.0,0.0,0.0,0.0,0.0,0.0,0.0,0.0,0.0,0.0,0.0,0.0,0.0,0.0,0.0,0.0,0.0,0.0,0.0,0.0,0.0,0.0,0.0,0.0,0.0,0.0,0.0,0.0,0.0,0.0,0.0,0.0,0.0,0.0,0.0,0.0,0.0,0.0,0.0,0.0,0.0,0.0,0.0,0.0,0.0,0.0,0.0,0.0,0.0,0.0,0.0,0.0,0.0,0.0,0.0,0.0,0.0,0.0,0.0,0.0,0.0,0.0,0.0,0.0,0.0,0.0,0.0,0.0,0.0,0.0,0.0,0.0,0.0,0.0,0.0,0.0,0.0,0.0,0.0,0.0,0.0,0.0,0.0,0.0,0.0,0.0,0.0,0.0,0.0,0.0,0.0,0.0,0.0,0.0,0.0,0.0,0.0,0.0,0.0,0.0,0.0,0.0,0.0,0.0,0.0,0.0,0.0,0.0,0.0,0.0,0.0,0.0,0.0,0.0,0.0,0.0,0.0,0.0,0.0,0.0,0.0,0.0,0.0,0.0,0.0,0.0,0.0,0.0,0.0,0.0,0.0,0.0,0.0,0.0,0.0,0.0,0.0,0.0,0.0,0.0,0.0,0.0,0.0,0.0,0.0,0.0,0.0,0.0,0.0,0.0,0.0,0.0,0.0,0.0,0.0,0.0,0.0,0.0,0.0,0.0,0.0,0.0,0.0,0.0,0.0,0.0,0.0,0.0,0.0,0.0,0.0,0.0,0.0,0.0,0.0,0.0,0.0,0.0,0.0,0.0,0.0,0.0,0.0,0.0,0.0,0.0,0.0,0.0,0.0,0.0,0.0,0.0,0.0,0.0,0.0,0.0,0.0,0.0,0.0,0.0,0.0,0.0,0.0,0.0,0.0,0.0,0.0,0.0,0.0,0.0,0.0,0.0,0.0,0.0,0.0,0.0,0.0,0.0,0.0,0.0,0.0,0.0,0.0,0.0,0.0,0.0,0.0,0.0,0.0,0.0,0.0,0.0,0.0,0.0,0.0,0.0,0.0,0.0,0.0,0.0,0.0,0.0,0.0,0.0,0.0,0.0,0.0,0.0,0.0,0.0,0.0,0.0,0.0,0.0,0.0,0.0,0.0,0.0,0.0,0.0,0.0,0.0,0.0,0.0,0.0,0.0,0.0,0.0,0.0,0.0,0.0,0.0,0.0,0.0,0.0,0.0,0.0,0.0,0.0,0.0,0.0,0.0,0.0,0.0,0.0,0.0,0.0,0.0,0.0,0.0,0.0,0.0,0.0,0.0,0.0,0.0,0.0,0.0,0.0,0.0,0.0,0.0,0.0,0.0,0.0,0.0,0.0,0.0,0.0,0.0,0.0,0.0,0.0,0.0,0.0,0.0,0.0,0.0,0.0,0.0,0.0,0.0,0.0,0.0,0.0,0.0,0.0,0.0,0.0,0.0,0.0,0.0,0.0,0.0,0.0,0.0,0.0,0.0,0.0,0.0,0.0,0.0,0.0,0.0,0.0,0.0,0.0,0.0,0.0,0.0,0.0,0.0,0.0,0.0,0.0,0.0,0.0,0.0,0.0,0.0,0.0,0.0,0.0,0.0,0.0,0.0,0.0,0.0,0.0,0.0,0.0,0.0,0.0,0.0,0.0,0.0,0.0,0.0,0.0,0.0,0.0,0.0,0.0,0.0,0.0,0.0,0.0,0.0,0.0,0.0,0.0,0.0,0.0,0.0,0.0,0.0,0.0,0.0,0.0,0.0,0.0,0.0,0.0,0.0,0.0,0.0,0.0,0.0,0.0,0.0,0.0,0.0,0.0,0.0,0.0,0.0,0.0,0.0,0.0,0.0,0.0,0.0,0.0,0.0,0.0,0.0,0.0,0.0,0.0,0.0,0.0,0.0,0.0,0.0,0.0,0.0,0.0,0.0,0.0,0.0,0.0,0.0,0.0,0.0,0.0,0.0,0.0,0.0,0.0,0.0,0.0,0.0,0.0,0.0,0.0,0.0,0.0,0.0,0.0,0.0,0.0,0.0,0.0,0.0,0.0,0.0,0.0,0.0,0.0,0.0,0.0,0.0,0.0,0.0,0.0,0.0,0.0,0.0,0.0,0.0,0.0,0.0,0.0,0.0,0.0,0.0,0.0,0.0,0.0,0.0,0.0,0.0,0.0,0.0,0.0,0.0,0.0,0.0,0.0,0.0,0.0,0.0,0.0,0.0,0.0,0.0,0.0,0.0,0.0,0.0,0.0,0.0,0.0,0.0,0.0,0.0,0.0,0.0,0.0,0.0,0.0,0.0,0.0,0.0,0.0,0.0,0.0,0.0,0.0,0.0,0.0,0.0,0.0,0.0,0.0,0.0,0.0,0.0,0.0,0.0,0.0,0.0,0.0,0.0,0.0,0.0,0.0,0.0,0.0,0.0,0.0,0.0,0.0,0.0,0.0,0.0,0.0,0.0,0.0,0.0,0.0,0.0,0.0,0.0,0.0,0.0,0.0,0.0,0.0,0.0,0.0,0.0,0.0,0.0,0.0,0.0,0.0,0.0,0.0,0.0,0.0,0.0,0.0,0.0,0.0,0.0,0.0,0.0,0.0,0.0,0.0,0.0,0.0,0.0,0.0,0.0,0.0,0.0,0.0,0.0,0.0,0.0,0.0,0.0,0.0,0.0,0.0,0.0,0.0,0.0,0.0,0.0,0.0,0.0,0.0,0.0,0.0,0.0,0.0,0.0,0.0,0.0,0.0,0.0,0.0,0.0,0.0,0.0,0.0,0.0,0.0,0.0,0.0,0.0,0.0,0.0,0.0,0.0,0.0,0.0,0.0,0.0,0.0,0.0,0.0,0.0,0.0,0.0,0.0,0.0,0.0,0.0,0.0,0.0,0.0,0.0,0.0,0.0,0.0,0.0,0.0,0.0,0.0,0.0,0.0,0.0,0.0,0.0,0.0,0.0,0.0,0.0,0.0,0.0,0.0,0.0,0.0,0.0,0.0,0.0,0.0,0.0,0.0,0.0,0.0,0.0,0.0,0.0,0.0,0.0,0.0,0.0,0.0,0.0,0.0,0.0,0.0,0.0,0.0,0.0,0.0,0.0,0.0,0.0,0.0,0.0,0.0,0.0,0.0,0.0,0.0,0.0,0.0,0.0,0.0,0.0,0.0,0.0,0.0,0.0,0.0,0.0,0.0,0.0,0.0,0.0,0.0,0.0,0.0,0.0,0.0,0.0,0.0,0.0,0.0,0.0,-2.9211,0.0,0.0,0.0,0.0,0.0,0.0,0.0,0.0,0.0,0.0,0.0,0.0,0.0,0.0,0.0,0.0,0.0,0.0,0.0,0.0,0.0,0.0,0.0,0.0,0.0,0.0,0.0,0.0,0.0,0.0,0.0,0.0,0.0,0.0,0.0,0.0,0.0,0.0,0.0,-3.6644,-3.6957,-3.7008,-3.9494,-4.059,-4.0561,0.0,0.0,0.0,0.0,0.0,0.0,0.0,0.0,0.0,0.0,0.0,0.0,0.0,0.0,0.0,0.0,0.0,0.0,0.0,0.0,0.0,0.0,0.0,0.0,0.0,0.0,0.0,0.0,0.0,0.0,0.0,0.0,0.0,0.0,0.0,0.0,0.0,0.0,0.0,0.0,0.0,0.0,0.0,0.0,0.0,0.0,0.0,0.0,0.0,0.0,0.0,0.0,0.0,0.0,0.0,0.0,0.0,0.0,0.0,0.0,0.0,0.0,0.0,0.0,0.0,0.0,0.0,0.0,0.0,0.0,0.0,-3.0255,0.0,0.0,0.0,0.0,0.0,0.0,0.0,0.0,0.0,0.0,0.0,0.0,0.0,0.0,0.0,0.0,0.0,0.0,0.0,0.0,0.0,0.0,0.0,0.0,0.0,0.0,0.0,0.0,0.0,0.0,0.0,0.0,0.0,0.0,0.0,-3.4551,-3.5284,-3.6384,-3.5509,-3.6805,-4.0139,-4.1342,-4.1449,-4.0579,-4.1772,0.0,0.0,0.0,0.0,0.0,0.0,0.0,0.0,0.0,0.0,0.0,0.0,0.0,0.0,0.0,0.0,0.0,0.0,0.0,0.0,0.0,0.0,0.0,0.0,0.0,0.0,0.0,0.0,0.0,0.0,0.0,0.0,0.0,0.0,0.0,0.0,0.0,0.0,0.0,0.0,0.0,0.0,0.0,0.0,0.0,0.0,0.0,0.0,0.0,0.0,0.0,0.0,0.0,0.0,0.0,0.0,0.0,0.0,0.0,0.0,0.0,0.0,0.0,0.0,-4.0471,-4.1341,-3.9476,-3.8183,-3.7292,-3.5028,-3.2729,-3.064,0.0,0.0,0.0,0.0,0.0,0.0,0.0,0.0,0.0,0.0,0.0,0.0,0.0,0.0,0.0,0.0,0.0,0.0,0.0,0.0,0.0,0.0,0.0,-3.0698,-3.0578,-3.051,-3.1217,0.0,0.0,0.0,0.0,0.0,0.0,-3.42,-3.4715,-3.4474,-3.3542,-3.3415,-3.5926,-4.0932,-4.0616,-4.1378,-4.2983,-4.2525,-4.3075,-4.425,0.0,0.0,0.0,0.0,0.0,0.0,0.0,0.0,0.0,0.0,0.0,0.0,0.0,0.0,0.0,0.0,0.0,0.0,0.0,0.0,0.0,0.0,0.0,0.0,0.0,0.0,0.0,0.0,0.0,0.0,0.0,0.0,0.0,0.0,0.0,0.0,0.0,0.0,0.0,0.0,0.0,-3.3897,-3.4494,0.0,0.0,0.0,0.0,0.0,0.0,0.0,0.0,0.0,0.0,0.0,0.0,0.0,0.0,-4.3523,-4.4327,-4.427,-4.3318,-4.4736,-4.4497,-4.2899,-4.2619,-4.2239,-4.1791,-4.0781,0.0,-3.3923,-3.3375,0.0,0.0,0.0,0.0,0.0,0.0,0.0,0.0,0.0,0.0,0.0,0.0,0.0,0.0,0.0,0.0,0.0,0.0,0.0,0.0,0.0,-3.1185,-3.1771,-3.1321,-3.2949,-3.381,-3.3407,0.0,0.0,0.0,0.0,-3.385,-3.3986,-3.3776,-3.3854,-3.429,-3.6929,-3.9504,-4.1942,-4.2486,-4.3469,-4.48,-4.4011,-4.3791,-4.392,-4.2415,0.0,0.0,0.0,0.0,0.0,0.0,0.0,0.0,0.0,0.0,0.0,0.0,0.0,0.0,0.0,0.0,0.0,0.0,0.0,0.0,0.0,0.0,0.0,0.0,0.0,0.0,0.0,0.0,0.0,0.0,0.0,0.0,0.0,0.0,0.0,0.0,0.0,0.0,0.0,-3.487,-3.6307,-3.5147,-3.7679,-3.9166,0.0,0.0,0.0,0.0,0.0,0.0,0.0,0.0,0.0,-4.5608,-4.5537,-4.592,-4.6924,-4.7765,-4.8102,-4.7983,-4.8584,-4.8626,-4.8091,-4.6404,-4.5717,-4.5767,-4.4207,-4.2014,-3.9433,-3.7457,-3.5843,-3.4595,0.0,0.0,0.0,0.0,0.0,-3.572,0.0,0.0,0.0,0.0,0.0,0.0,0.0,0.0,0.0,0.0,0.0,0.0,-3.0784,-3.2068,-3.29,-3.3051,-3.4918,-3.5553,-3.4354,-3.5048,0.0,0.0,0.0,-3.3807,-3.3807,-3.3268,-3.425,-3.6858,-4.002,-4.2213,-4.3516,-4.4616,-4.5736,-4.6819,-4.6214,-4.5388,-4.4323,-4.291,-4.1497,-4.0194,0.0,0.0,0.0,0.0,0.0,0.0,0.0,0.0,0.0,0.0,0.0,0.0,0.0,0.0,0.0,0.0,0.0,0.0,0.0,0.0,0.0,0.0,0.0,0.0,0.0,0.0,0.0,0.0,0.0,0.0,0.0,0.0,0.0,0.0,0.0,0.0,0.0,-3.6979,-3.8414,-3.5936,-3.9974,-4.1992,0.0,0.0,0.0,0.0,0.0,0.0,-4.4966,-4.6041,-4.7536,-4.9517,-4.9546,-4.9875,-5.0457,-5.1082,-5.1663,-5.2245,-5.1883,-5.1922,-5.2234,-4.9755,-4.8648,-4.8545,-4.6731,-4.5328,-4.416,-4.0745,-3.7918,-3.5721,-3.5638,-3.5131,-3.4565,-3.5479,-3.6317,-3.7218,0.0,0.0,0.0,0.0,0.0,0.0,0.0,0.0,0.0,0.0,0.0,-2.9208,-3.2848,-3.2703,-3.3448,-3.6293,-3.4745,-3.4345,-3.6032,-3.3984,-3.3176,-3.4191,-3.397,-3.3807,-3.3807,-3.4009,-3.6422,-4.1065,-4.005,-4.1765,-4.6008,-4.6145,-4.7361,-4.9389,-4.9352,-4.8453,-4.6728,-4.3608,-4.1809,-4.0983,-4.0212,0.0,0.0,0.0,0.0,0.0,0.0,0.0,0.0,0.0,0.0,0.0,0.0,0.0,0.0,0.0,0.0,0.0,0.0,0.0,0.0,0.0,0.0,0.0,0.0,0.0,0.0,0.0,0.0,0.0,0.0,0.0,0.0,0.0,0.0,0.0,0.0,0.0,0.0,-3.7643,-4.3626,0.0,0.0,0.0,0.0,-4.5535,-4.6324,-4.7535,-4.9187,-5.0086,-5.1257,-5.2913,-5.3677,-5.4466,-5.5236,-5.5273,-5.531,-5.5346,-5.4601,-5.3849,-5.3115,-5.2215,-5.0967,-4.9462,-4.8543,-4.7662,-4.6543,-4.1674,-3.91,-3.8001,-3.5538,-3.4939,-3.5548,-3.5582,-3.6135,-3.6888,0.0,0.0,0.0,0.0,0.0,0.0,0.0,0.0,0.0,-2.8789,-2.9161,-3.0345,-3.3102,-3.4455,-3.5605,-3.6688,-3.6907,-3.6814,-3.6402,-3.5314,-3.4603,-3.438,-3.448,-3.4885,-3.5535,-3.8085,-4.0095,-4.1529,-4.3953,-4.5761,-4.697,-4.7379,-4.8023,-4.8783,-4.9334,-4.8948,-4.7774,-4.6104,-4.403,-4.1809,-4.1001,-3.9845,0.0,0.0,0.0,0.0,0.0,0.0,0.0,0.0,0.0,0.0,0.0,0.0,0.0,0.0,0.0,0.0,0.0,0.0,0.0,0.0,0.0,0.0,0.0,0.0,0.0,0.0,0.0,0.0,0.0,0.0,0.0,0.0,0.0,0.0,0.0,0.0,0.0,-4.4433,-4.8141,0.0,0.0,-4.7076,-4.7884,-4.8967,-5.0288,-5.1738,-5.3353,-5.4711,-5.5702,-5.6271,-5.6565,-5.684,-5.7134,-5.6638,-5.6106,-5.5574,-5.4785,-5.3977,-5.3188,-5.2362,-5.1389,-5.0306,-4.9444,-4.8324,-4.6909,-4.4354,-4.225,-4.0559,-3.9621,-3.838,-3.7144,-3.7618,-3.7973,-3.8309,0.0,0.0,0.0,0.0,0.0,0.0,0.0,0.0,0.0,-2.8416,-2.9465,-3.1055,-3.3508,-3.5571,-3.7077,-3.7821,-3.8108,-3.7921,-3.7162,-3.5875,-3.503,-3.4776,-3.5221,-3.6255,-3.7995,-4.0939,-4.2663,-4.3152,-4.6726,-4.8216,-4.7843,-4.8729,-4.9297,-4.9572,-5.0141,-5.0086,-4.9517,-4.8985,-4.6416,-4.2653,-4.2121,-4.1423,-4.0414,0.0,0.0,0.0,0.0,0.0,0.0,0.0,0.0,0.0,0.0,0.0,0.0,0.0,0.0,0.0,0.0,0.0,0.0,0.0,0.0,0.0,0.0,0.0,0.0,0.0,0.0,0.0,0.0,0.0,0.0,0.0,0.0,0.0,0.0,0.0,-4.8655,-4.9444,-5.2435,-5.3463,-5.0986,-5.1499,-5.2344,-5.317,-5.473,-5.6088,-5.7152,-5.8235,-5.8694,-5.8419,-5.84,-5.8272,-5.7997,-5.7464,-5.6932,-5.64,-5.5317,-5.4528,-5.3977,-5.2894,-5.1811,-5.0765,-5.0196,-4.9022,-4.7423,-4.6633,-4.5033,-4.2951,-4.2016,-4.0607,-3.9039,-3.9276,-3.936,-3.9428,0.0,0.0,0.0,0.0,0.0,0.0,0.0,0.0,-2.6928,-2.7654,-2.9161,-3.1241,-3.415,-3.5938,-3.775,-3.9901,-3.8089,-3.7348,-3.8486,-3.5422,-3.4191,-3.5497,-3.6115,-3.7936,-4.1152,-4.2287,-4.3974,-4.6338,-4.7976,-4.8717,-4.8692,-5.0136,-5.1224,-5.1958,-5.1977,-5.1995,-5.1995,-5.2013,-4.8838,-4.3736,-4.3626,-4.3094,-4.2194,0.0,0.0,0.0,0.0,0.0,0.0,0.0,0.0,0.0,0.0,0.0,0.0,0.0,0.0,0.0,0.0,0.0,0.0,0.0,0.0,0.0,0.0,0.0,0.0,0.0,0.0,0.0,0.0,0.0,0.0,0.0,0.0,0.0,-4.6049,-5.0288,-5.3059,-5.238,-5.6455,-5.7795,-5.3849,-5.7024,-5.8988,-5.8162,-5.9593,-6.0493,-6.0438,-6.0438,-6.007,-5.9245,-5.9189,-5.8804,-5.7997,-5.7978,-5.796,-5.7941,-5.6345,-5.5574,-5.55,-5.3959,-5.2362,-5.0839,-5.0839,-4.9903,-4.8379,-4.8323,-4.7179,-4.5128,-4.2379,-4.1289,-4.1119,-4.0392,-4.0104,-4.007,0.0,0.0,0.0,0.0,0.0,0.0,0.0,-2.5642,-2.6167,-2.6911,-2.9279,-3.1613,-3.3508,-3.684,-3.9175,-3.9765,-3.8634,-3.7923,-3.802,-3.5055,-3.4406,-3.6839,-3.8206,-4.0489,-4.3862,-4.5219,-4.6855,-4.8818,-4.9749,-5.0213,-5.0213,-5.0593,-5.093,-5.1151,-5.1738,-5.1995,-5.2032,-5.2619,-5.1628,-4.9389,-4.6416,-4.4764,-4.3809,0.0,0.0,0.0,0.0,0.0,0.0,0.0,0.0,0.0,0.0,0.0,0.0,0.0,0.0,0.0,0.0,0.0,0.0,0.0,0.0,0.0,0.0,0.0,0.0,0.0,0.0,0.0,0.0,0.0,0.0,0.0,0.0,-4.9811,-5.1793,-5.4234,-5.6602,-5.8712,-6.0658,-6.1153,-5.9446,-6.0823,-6.1484,-6.0658,-6.2144,-6.2548,-6.1318,-6.1263,-6.0639,-5.9263,-5.8639,-5.8217,-5.7997,-5.7428,-5.7134,-5.7134,-5.6088,-5.528,-5.4711,-5.4271,-5.3188,-5.1665,-5.1665,-5.1077,-5.0028,-4.8985,-4.8168,-4.7483,-4.5088,-4.2953,-4.1187,-4.0967,-4.0544,-4.007,0.0,0.0,0.0,0.0,0.0,0.0,0.0,0.0,-2.5848,-2.5982,-2.9304,-3.2089,-3.322,-3.6887,-3.9232,-3.9077,-3.8292,-3.7498,-3.6838,-3.5688,-3.6042,-3.8395,-4.0047,-4.2461,-4.5794,-4.7364,-4.8828,-5.0216,-5.1261,-5.1628,-5.1316,-5.1646,-5.1811,-5.183,-5.2289,-5.2509,-5.2564,-5.3371,-5.3243,-5.2307,-4.9921,-4.8269,-4.6929,-4.3791,-4.3039,-4.3424,-4.1937,-4.1791,-4.2117,-4.0855,0.0,0.0,0.0,0.0,0.0,0.0,0.0,0.0,0.0,0.0,0.0,0.0,0.0,0.0,0.0,0.0,0.0,0.0,0.0,0.0,0.0,0.0,0.0,0.0,-5.1114,-5.4528,-5.7978,-5.8657,-5.9777,-6.2328,-6.3356,-6.3668,-6.3209,-6.3888,-6.4035,-6.3209,-6.4053,-6.4035,-6.2713,-6.2291,-6.152,-6.0254,-5.9428,-5.8841,-5.851,-5.7703,-5.7299,-5.7299,-5.6143,-5.5354,-5.4876,-5.4197,-5.3206,0.0,-5.1995,-5.1353,-5.0251,-4.9378,-4.8629,0.0,0.0,0.0,0.0,0.0,-4.073,-4.007,0.0,0.0,0.0,0.0,0.0,0.0,0.0,0.0,-2.5761,-2.5027,-2.9076,-3.2192,-3.2525,-3.5814,-3.7923,-3.7747,-3.714,-3.6381,-3.5555,-3.6845,-3.8377,-4.0084,-4.1882,-4.4268,-4.7333,-4.893,-5.016,-5.1077,-5.2417,-5.2747,-5.2142,-5.2876,-5.3206,-5.3206,-5.3206,-5.3261,-5.339,-5.4106,-5.3995,-5.3335,-5.3243,-5.2252,-5.038,-4.6562,-4.5957,-4.6819,-4.447,-4.3351,-4.2947,-4.2763,0.0,0.0,0.0,0.0,0.0,0.0,0.0,0.0,0.0,0.0,0.0,0.0,0.0,0.0,0.0,0.0,0.0,0.0,0.0,0.0,0.0,0.0,0.0,0.0,-5.5647,-5.8822,-6.3447,-6.2805,-6.2493,-6.4163,-6.5007,-6.5411,-6.5319,-6.6109,-6.6237,-6.5246,-6.5338,-6.5007,-6.3998,0.0,0.0,0.0,0.0,-5.9887,-5.9079,-5.8364,-5.7997,-5.7978,-5.6547,-5.5776,-5.5537,-5.4124,-5.2986,-5.2142,-5.2142,-5.1316,-4.9976,-4.9903,-4.8963,-4.7335,-4.519,-4.4349,-4.4006,-4.1954,-4.073,0.0,0.0,0.0,0.0,0.0,0.0,0.0,0.0,0.0,-2.5341,-2.454,-2.8005,-3.0094,-2.8881,-3.2012,-3.4396,-3.493,-3.4648,-3.49,-3.6047,-3.7583,-3.9478,-4.1735,-4.4635,-4.7113,-4.9058,-5.0068,-5.1279,-5.2747,-5.2399,-5.2472,-5.2968,-5.3133,-5.3206,-5.3206,-5.3206,-5.3573,-5.4179,-5.4326,-5.4308,-5.4106,-5.3463,-5.2252,-5.0582,-4.8416,-4.7407,-4.6893,-4.5112,-4.5626,-4.6948,-4.5645,-4.5957,-4.6636,-4.5021,-4.3167,0.0,0.0,0.0,0.0,0.0,0.0,0.0,0.0,0.0,0.0,0.0,0.0,0.0,0.0,0.0,0.0,0.0,0.0,0.0,-5.5409,-5.8143,-6.0731,-6.3686,-6.3815,-6.4218,-6.5833,-6.6164,-6.6017,-6.5375,-6.6604,-6.6586,-6.4475,-6.5521,-6.5338,-6.3172,-6.2897,0.0,-6.0676,-5.9869,-5.9061,-5.8235,-5.807,-5.7997,-5.7997,0.0,0.0,-5.5574,-5.5262,-5.4344,-5.2968,-5.2968,-5.2803,-5.2454,-5.1793,-5.0295,-4.8109,-4.5466,-4.4036,-4.3296,-4.175,-4.073,-4.007,0.0,0.0,0.0,0.0,0.0,0.0,0.0,0.0,-2.5468,-2.47,-2.7802,-2.9915,-2.9351,-3.1577,-3.3166,-3.3379,-3.2903,-3.3807,-3.6707,-3.8414,-4.0744,-4.3956,-4.6416,-4.8673,-5.0747,-5.1187,-5.1995,-5.3206,-5.2803,-5.2821,-5.3225,-5.361,-5.3812,-5.383,-5.4216,-5.462,-5.4987,-5.4987,-5.4766,-5.4363,-5.3959,-5.2839,-5.1224,-4.9572,-4.8434,-4.7553,-4.6342,-4.6691,-4.759,-4.6783,-4.704,-4.7572,-4.6764,-4.5131,-4.3039,0.0,0.0,0.0,0.0,0.0,0.0,0.0,0.0,0.0,0.0,0.0,0.0,0.0,0.0,-4.8251,0.0,0.0,-5.5941,-5.8749,-6.0548,-6.2199,-6.3851,-6.409,-6.4549,-6.576,-6.6256,-6.6494,-6.6494,-6.7228,-6.7026,-6.5411,-6.5668,-6.5191,-6.3539,-6.3044,-6.2254,-6.1043,-6.0236,-5.9428,-5.8621,-5.8198,-5.7997,-5.7997,-5.7593,-5.6987,-5.6161,-5.5372,-5.4564,-5.3794,-5.339,-5.2968,-5.2509,-5.1298,-4.9852,-4.8242,-4.6212,-4.4558,-4.3141,-4.2108,-4.1035,-4.007,0.0,0.0,0.0,0.0,0.0,0.0,0.0,0.0,0.0,-2.5063,-2.7727,-2.9765,-3.0033,-3.1247,-3.2018,-3.1902,-3.188,-3.3458,-3.7268,-3.9294,-4.2011,-4.5736,-4.7755,-4.9719,-5.172,-5.2068,-5.2546,-5.3206,-5.3206,-5.3298,-5.3463,-5.4106,-5.4473,-5.4656,-5.5299,-5.5684,-5.5812,-5.5666,-5.5317,-5.484,-5.4528,-5.3537,-5.205,-5.0435,-4.9187,-4.8196,-4.7407,-4.6728,-4.6323,-4.6893,-4.6948,-4.6783,-4.7205,-4.6232,-4.436,-4.1442,-4.0157,0.0,0.0,0.0,0.0,0.0,0.0,0.0,0.0,0.0,-4.5993,-4.9058,-5.1536,-5.3885,-5.6308,-5.8492,-6.0438,-6.2053,-6.2732,-6.3301,-6.3998,-6.3943,-6.409,-6.4751,-6.5668,-6.6512,-6.7155,-6.7375,-6.7063,-6.6109,-6.5595,-6.4879,-6.3888,-6.3191,-6.2438,-6.163,-6.0823,-6.0015,-5.9226,-5.84,-5.7997,-5.7997,-5.7336,-5.695,-5.6767,-5.5299,-5.4546,-5.4363,-5.3555,-5.2839,-5.2105,-5.0655,-4.9554,-4.8648,-4.7331,-4.5629,-4.3755,-4.2671,-4.1441,-4.0273,0.0,0.0,0.0,0.0,0.0,0.0,0.0,0.0,0.0,-2.5342,-2.6929,-2.7826,-2.7134,-2.7867,-2.8677,-2.9342,-3.1935,-3.4651,-3.7342,-4.0341,-4.3185,-4.5792,-4.8875,-5.0655,-5.093,-5.2344,-5.3115,-5.3206,-5.3206,-5.3573,-5.4271,-5.4363,-5.4785,-5.5464,-5.5556,-5.5996,-5.662,-5.5886,-5.5959,-5.6418,-5.4987,-5.3867,-5.2894,-5.1279,-4.9682,-4.8196,-4.7407,-4.5399,-4.35,-4.6195,-4.6321,-4.5663,-4.7555,-4.7058,-4.5406,-4.3608,0.0,-3.8909,-3.9258,-3.9551,0.0,-4.5094,-4.4745,-4.5792,0.0,0.0,-5.5904,-5.84,-6.0272,-6.1355,-6.0988,-6.1741,-6.2952,-6.4622,-6.4365,-6.398,-6.409,-6.3429,-6.2989,-6.308,-6.4475,-6.5485,-6.5576,-6.6219,-6.5999,-6.4475,-6.4952,-6.4622,-6.3044,-6.286,-6.2438,-6.163,-6.0823,-6.0015,-5.9226,-5.84,-5.7997,-5.7997,-5.7905,-5.7483,-5.6785,-5.5868,-5.5078,-5.4363,-5.3555,-5.317,-5.3004,-5.2087,-5.1242,-5.0395,-4.8931,-4.7389,-4.5681,-4.3184,-4.1779,-4.0984,0.0,0.0,0.0,0.0,0.0,0.0,0.0,0.0,0.0,0.0,0.0,-2.7145,-2.7273,-2.8026,-2.8833,-2.9641,-3.1366,-3.3844,-3.7287,-3.9625,-4.2616,-4.6434,-4.8838,-5.0527,-5.1481,-5.2619,-5.3206,-5.3206,-5.3683,-5.4069,-5.4418,-5.5372,-5.5978,-5.6326,-5.6785,-5.7171,-5.7446,-5.6638,-5.6216,-5.5996,-5.4858,-5.3371,-5.1724,-5.0746,-4.8439,-4.5703,-4.5371,-4.4434,0.0,-4.4276,-4.4694,-4.518,-4.7022,-4.6177,-4.4268,-4.313,-4.1846,0.0,-4.2359,0.0,0.0,0.0,-4.9903,-5.2527,-5.7391,-5.8345,-5.8896,-6.13,-6.275,-6.3447,-6.3117,-6.4108,-6.4879,0.0,-6.4714,-6.4622,-6.4163,-6.2952,-6.1924,-6.1465,-6.163,-6.2511,-6.442,-6.4897,-6.4806,-6.4145,-6.4402,-6.4071,-6.2879,-6.2805,-6.2438,-6.163,-6.0823,-6.0015,-5.9226,-5.84,-5.7997,-5.7997,-5.7997,-5.7813,-5.7464,-5.6675,-5.5592,-5.4363,-5.3555,-5.2931,-5.2435,-5.1628,-5.0802,-4.9918,-4.8472,-4.7493,-4.6661,-4.4391,-4.2756,-4.166,0.0,0.0,0.0,0.0,0.0,0.0,0.0,0.0,0.0,0.0,0.0,0.0,0.0,-2.8762,-2.9333,-2.9922,-3.0917,-3.2919,-3.6277,-3.8615,-4.1662,-4.5608,-4.8233,-5.0123,-5.1279,-5.2546,-5.3206,-5.3206,-5.4014,-5.4509,-5.4748,-5.6161,-5.6932,-5.7171,-5.774,-5.7997,-5.7923,-5.6895,-5.6253,-5.5812,-5.4564,-5.3023,-5.1338,-5.0157,-4.7523,-4.4307,-4.386,-4.2903,-4.1846,-4.1801,-4.2303,-4.3162,-4.4755,-4.4118,-4.28,-4.2671,-4.28,-4.3259,-4.4654,0.0,0.0,-5.1298,-5.4711,-5.818,-5.9667,-6.0639,-6.1722,-6.3466,-6.4328,-6.4677,-6.4457,-6.5007,-6.5246,-6.4549,-6.453,-6.442,-6.3815,-6.231,-6.0896,-5.9869,-5.9043,-5.9575,-6.2163,-6.2805,-6.3154,-6.3374,-6.3392,-6.3227,-6.2842,-6.2603,-6.231,-6.1942,-6.0951,-6.0126,-5.9557,-5.851,-5.7997,-5.7997,-5.7997,-5.7997,-5.796,-5.695,-5.5702,-5.4363,-5.3555,-5.2876,-5.2252,-5.1224,-5.0435,-4.9698,-4.8257,-4.7656,-4.7458,-4.5623,-4.3906,-4.2362,0.0,0.0,0.0,0.0,0.0,0.0,0.0,0.0,0.0,0.0,0.0,0.0,0.0,0.0,-2.9392,-2.9429,-3.0881,-3.24,-3.3815,-3.7661,-4.0653,-4.2378,-4.7021,-4.9572,-4.9572,-5.1958,-5.3206,-5.3206,-5.4014,-5.4803,-5.5574,-5.6418,-5.7226,-5.796,-5.7997,-5.7997,-5.7886,-5.6308,-5.6069,-5.6565,-5.4197,-5.3206,-5.2826,-4.9917,-4.7466,-4.5341,-4.3796,-4.0291,-3.6768,-3.8878,-3.9062,-3.8627,-4.0067,-4.0824,0.0,-4.3002,-4.4011,-4.4819,0.0,0.0,-5.1701,-5.5611,-5.8455,-6.1135,-6.4365,-6.5705,-6.6292,-6.6366,-6.6402,-6.6182,-6.5411,-6.3998,-6.3447,-6.5026,-6.3925,-6.2879,-6.286,-6.1465,-5.985,-5.8253,-5.7373,-5.7226,0.0,-5.9593,-6.0841,-6.1612,-6.1667,-6.1998,-6.2768,-6.2053,-6.1979,-6.275,-6.1245,-6.0401,-6.0364,-5.8786,-5.7997,-5.7997,-5.7997,-5.7997,-5.7941,-5.6345,-5.517,-5.4363,-5.3555,-5.3206,-5.3059,-5.1463,-5.0784,-5.06,-4.8909,-4.8267,-4.8114,-4.6829,-4.5062,-4.3054,0.0,0.0,0.0,0.0,0.0,0.0,0.0,0.0,0.0,0.0,0.0,0.0,0.0,0.0,0.0,0.0,-3.0272,-3.1566,-3.2934,-3.5826,-3.8469,-4.0598,-4.4323,-4.6838,-4.7884,-4.9811,-5.1059,-5.161,-5.2949,-5.3739,-5.4051,-5.5372,-5.6143,-5.64,-5.64,-5.64,-5.6363,-5.5812,-5.5445,-5.5042,-5.3151,-5.1882,-5.0898,-4.8501,-4.5555,-4.2515,0.0,-3.9108,-3.7128,-3.7135,-3.7269,-3.7568,-3.8229,-3.8699,-3.9468,-4.1967,-4.4415,-4.6948,-4.9939,0.0,-5.7226,-6.075,-6.3062,-6.5026,-6.7192,-6.7081,-6.62,-6.5118,-6.3172,-6.1263,-5.9924,-5.9208,-5.9355,-6.1006,-6.1686,-6.2199,-6.2732,-6.1869,-6.0199,-5.7519,-5.6969,0.0,0.0,0.0,0.0,-6.0658,-6.0805,-6.1153,-6.1961,-6.2254,-6.253,-6.2805,-6.1759,-6.119,-6.119,-5.9612,-5.8804,-5.8804,-5.8253,-5.7997,-5.7941,-5.6326,-5.5445,-5.5115,-5.3794,-5.2913,-5.2325,-5.1242,-5.049,-4.9884,-4.8746,-4.8306,-4.8172,-4.6847,-4.5635,-4.4366,0.0,0.0,0.0,0.0,0.0,0.0,0.0,0.0,0.0,0.0,0.0,0.0,0.0,0.0,0.0,0.0,0.0,0.0,-3.1813,-3.3823,-3.5807,-3.7643,-4.1093,-4.3479,-4.4507,-4.6416,-4.7664,-4.8196,-5.0105,-5.1041,-5.1077,-5.2986,-5.3867,-5.3867,-5.3867,-5.3867,-5.3849,-5.3537,-5.2784,-5.1683,-5.0483,-4.8974,-4.7281,-4.5565,-4.3,0.0,-3.8511,-3.7471,-3.6676,-3.5643,-3.6039,-3.6986,-3.727,-3.8322,-3.9967,-4.2426,-4.5663,-4.9389,-5.3739,-5.7868,-6.1741,-6.4989,-6.6806,-6.7981,-6.8733,-6.721,-6.5007,-6.2805,-5.9979,-5.7336,-5.5427,-5.462,-5.5042,-5.7519,-5.8309,-5.9391,-6.163,-6.075,-5.9226,-5.7446,-5.673,0.0,0.0,0.0,0.0,-5.9391,-5.9813,-6.0456,-6.1539,-6.2365,-6.2805,-6.2805,-6.231,-6.1887,-6.1594,-6.0015,-5.9079,-5.8767,-5.8253,-5.7997,-5.7941,-5.6326,-5.5592,-5.55,-5.3904,-5.2747,-5.194,-5.1132,-5.0325,-4.9499,-4.8636,-4.8306,-4.8172,-4.6847,-4.5758,-4.4647,0.0,0.0,0.0,0.0,0.0,0.0,0.0,0.0,0.0,0.0,0.0,0.0,0.0,0.0,0.0,0.0,0.0,0.0,-3.0472,-3.1795,-3.2871,-3.3642,-3.7514,-3.9662,-3.9698,-4.1992,-4.3204,-4.324,-4.559,-4.6764,-4.6837,-4.9242,-5.0398,-5.0435,-5.0435,-5.0435,-5.038,-4.9536,-4.8288,-4.682,-4.6234,-4.4618,-4.2451,-4.1411,-3.9981,-3.8271,-3.6232,-3.5455,-3.5287,0.0,0.0,0.0,-3.7343,-3.9788,-4.2892,-4.458,-4.8012,-5.227,-5.7024,-6.13,-6.5136,-6.8256,-6.9522,-6.9816,-6.8917,-6.6182,-6.2897,-5.9593,-5.6895,-5.4418,0.0,0.0,-5.071,-5.4693,-5.4252,-5.5042,-5.974,-5.851,-5.7354,0.0,0.0,0.0,0.0,0.0,0.0,-5.7941,0.0,-5.9887,-6.1447,-6.2383,-6.286,-6.2805,-6.286,-6.2493,-6.1667,-6.007,-5.8859,-5.7997,-5.7997,-5.7997,-5.7941,-5.6326,-5.5592,-5.55,-5.3904,-5.2729,-5.1867,-5.1114,-5.0288,-4.9426,-4.8618,-4.8306,-4.8153,-4.6892,-4.5521,-4.4137,0.0,0.0,0.0,0.0,0.0,0.0,0.0,0.0,0.0,0.0,0.0,0.0,0.0,0.0,0.0,0.0,0.0,0.0,-2.9433,-3.1057,-3.2014,-3.2015,-3.4743,-3.656,-3.7202,-3.8395,-3.9313,-3.9918,-4.113,-4.2047,-4.2671,-4.3901,-4.4782,-4.5351,-4.5351,-4.5351,-4.5333,-4.5112,-4.4536,-4.3629,-4.2279,-4.1314,-4.0465,-3.899,-3.7543,-3.6232,-3.571,-3.4947,0.0,0.0,0.0,0.0,0.0,-4.3869,-4.6452,-4.9297,-5.3427,-5.7868,-6.1539,-6.5485,-6.8898,-7.0348,-6.9945,-6.8678,-6.6678,-6.3246,-5.9373,-5.5537,-5.183,-4.8526,0.0,0.0,0.0,-5.1463,-5.4197,0.0,-5.9979,-6.0915,0.0,-5.9098,0.0,-5.8786,-5.7795,-5.7501,0.0,0.0,-5.9098,-5.9648,-6.0658,-6.264,-6.3466,-6.2842,-6.3429,-6.3356,-6.2511,-6.0915,-5.9391,-5.7997,-5.7997,-5.7997,-5.7941,-5.6326,-5.5592,-5.55,-5.3904,-5.2417,-5.1096,-5.0875,-4.9939,-4.8618,-4.8398,-4.8306,-4.821,-4.7428,-4.6521,-4.5416,0.0,0.0,0.0,0.0,0.0,0.0,0.0,0.0,0.0,0.0,0.0,0.0,0.0,0.0,0.0,0.0,0.0,0.0,0.0,-3.0048,-3.0686,-3.0531,-3.2065,-3.3128,-3.3605,-3.4394,-3.5037,-3.5495,-3.6652,-3.7441,-3.7918,-3.9111,-3.99,-4.0341,-4.0341,-4.0341,-4.0341,-4.0341,-3.9792,0.0,0.0,-3.7303,-3.6577,-3.5785,-3.5009,-3.4314,-3.3968,0.0,0.0,0.0,0.0,-4.3273,-4.5651,-4.7703,-4.9958,-5.3573,0.0,-6.1062,-6.4677,-6.8091,-7.0752,-7.1211,-6.9834,-6.7467,-6.3961,-6.0015,-5.5647,-5.0527,-4.7095,0.0,0.0,0.0,0.0,0.0,0.0,0.0,-5.8749,-6.0126,-6.0584,0.0,-6.0346,0.0,-5.9134,-5.9043,-5.9245,0.0,-5.974,-6.0089,-6.0878,-6.2934,-6.3704,-6.2842,-6.3649,-6.3337,-6.1777,-6.0511,-5.9245,-5.7997,-5.7997,-5.7997,-5.7941,-5.6326,-5.5592,-5.55,0.0,-5.2307,-5.0802,-5.0802,-4.9811,-4.8306,-4.8306,-4.8306,-4.821,-4.7614,-4.6898,-4.5978,0.0,0.0,0.0,0.0,0.0,0.0,0.0,0.0,0.0,0.0,0.0,0.0,0.0,0.0,0.0,0.0,0.0,0.0,0.0,0.0,0.0,-2.9412,-2.9843,-3.0092,-3.0044,-3.0723,-3.1072,-3.1072,-3.2485,-3.322,-3.3348,-3.4798,-3.555,-3.5642,-3.5642,-3.5642,-3.5642,-3.5642,-3.4913,-3.3748,-3.3977,-3.3299,-3.2187,0.0,0.0,0.0,0.0,0.0,0.0,0.0,-4.436,-4.645,-4.9432,-5.1555,-5.3702,-5.7519,-6.0272,-6.2934,-6.6806,-6.9467,-7.1138,-7.1027,-6.9009,-6.576,-6.0878,-5.6473,-5.1683,-4.5516,0.0,-4.0983,-3.8799,0.0,-4.1222,-4.5241,0.0,-5.0839,-5.7116,-5.818,-5.9134,-6.1337,-6.108,-6.0731,-6.0731,-6.0529,-6.0493,-6.0713,-6.0529,-6.075,-6.1557,-6.3172,-6.3704,-6.2842,-6.3429,-6.2622,-6.0272,-5.9557,-5.8804,-5.7997,-5.7997,-5.7997,-5.7941,-5.6326,-5.5592,-5.55,0.0,0.0,-5.0802,-5.0802,-4.9811,-4.8306,-4.8306,-4.8306,-4.8229,-4.7715,-4.7042,-4.6205,0.0,0.0,0.0,0.0,0.0,0.0,0.0,0.0,0.0,0.0,0.0,0.0,0.0,0.0,0.0,0.0,0.0,0.0,0.0,0.0,0.0,0.0,-2.9481,-2.9428,-2.9219,0.0,0.0,0.0,0.0,-3.0173,-3.0834,-3.1127,-3.1604,-3.2247,-3.2247,-3.2247,-3.2247,-3.2247,-3.185,-3.1235,-3.1281,-3.096,-3.0437,-3.0481,0.0,0.0,0.0,0.0,0.0,-4.1588,-4.6284,-5.073,-5.3649,-5.6124,-5.8492,-6.119,-6.3264,-6.5264,-6.7962,-6.9486,-7.0146,-6.9486,-6.6476,-6.2383,-5.7538,-5.2252,0.0,0.0,0.0,-3.7991,-3.6909,-3.845,0.0,-4.5241,0.0,0.0,0.0,0.0,-6.0382,0.0,0.0,0.0,0.0,0.0,0.0,0.0,0.0,0.0,-6.1557,-6.3172,-6.3704,-6.2842,-6.231,-6.119,-5.9446,-5.9281,-5.8804,-5.7997,-5.7997,-5.7997,-5.7941,-5.6326,-5.5592,-5.55,0.0,0.0,-5.0802,-5.0802,-4.9811,-4.8306,-4.8306,-4.8306,-4.8306,-4.8172,-4.762,-4.6681,0.0,0.0,0.0,0.0,0.0,0.0,0.0,0.0,0.0,0.0,0.0,0.0,0.0,0.0,0.0,0.0,0.0,0.0,0.0,0.0,0.0,0.0,0.0,0.0,0.0,0.0,0.0,0.0,0.0,0.0,0.0,0.0,0.0,0.0,0.0,0.0,0.0,-3.0155,-3.0079,-2.9969,0.0,0.0,0.0,0.0,0.0,0.0,0.0,0.0,0.0,0.0,-4.4787,-4.9784,-5.4207,-5.7262,-5.9685,-6.2108,-6.3998,-6.5833,-6.8256,-6.9486,-6.9706,-6.8054,-6.4585,-5.996,-5.3812,0.0,0.0,0.0,-3.667,-3.5459,-3.5073,0.0,0.0,0.0,0.0,0.0,0.0,0.0,0.0,0.0,0.0,0.0,0.0,0.0,0.0,0.0,0.0,0.0,-6.2181,-6.2585,-6.242,-6.1594,-6.0768,-5.9997,-5.9226,-5.8786,-5.8382,-5.7997,-5.7997,-5.7776,-5.7336,-5.6124,-5.5354,-5.4913,0.0,0.0,-5.1426,-5.1426,-5.0453,-4.8967,-4.8967,-4.8691,-4.8306,-4.8306,-4.8067,-4.7494,0.0,0.0,0.0,0.0,0.0,0.0,0.0,0.0,0.0,0.0,0.0,0.0,0.0,0.0,0.0,0.0,0.0,0.0,0.0,0.0,0.0,0.0,0.0,0.0,0.0,0.0,0.0,0.0,0.0,0.0,0.0,0.0,0.0,0.0,0.0,0.0,0.0,0.0,-2.9134,0.0,0.0,0.0,0.0,0.0,0.0,0.0,0.0,0.0,0.0,0.0,-4.2016,-4.6279,-5.1451,-5.5526,-5.8859,-6.0915,-6.308,-6.5301,-6.7742,-6.8843,-6.8825,-6.6769,-6.2787,-5.7593,-5.0784,-4.5369,0.0,0.0,-3.4247,-3.3752,-3.3568,0.0,-3.6872,0.0,0.0,0.0,0.0,0.0,0.0,0.0,0.0,0.0,0.0,0.0,0.0,0.0,0.0,0.0,0.0,-6.1777,-6.097,-6.0181,-5.9538,-5.9134,-5.8951,-5.8327,-5.7997,-5.7997,-5.7831,-5.7409,-5.6785,-5.5776,-5.4987,-5.4363,0.0,0.0,0.0,-5.1995,-5.1132,-4.9829,-4.9646,-4.9169,-4.8563,-4.8379,-4.821,-4.7926,0.0,0.0,0.0,0.0,0.0,0.0,0.0,0.0,0.0,0.0,0.0,0.0,0.0,0.0,0.0,0.0,0.0,0.0,0.0,0.0,0.0,0.0,0.0,0.0,0.0,0.0,0.0,0.0,0.0,0.0,0.0,0.0,0.0,0.0,0.0,0.0,0.0,0.0,0.0,0.0,0.0,0.0,0.0,0.0,0.0,0.0,0.0,0.0,0.0,0.0,0.0,-4.0976,-4.3998,-5.0027,-5.6106,-5.7079,0.0,0.0,-6.6054,-6.6769,-6.6604,-6.565,-6.0694,-5.4693,-4.9572,0.0,0.0,-3.478,-3.3844,-3.3587,-3.2852,-3.4018,-3.6174,0.0,0.0,-4.4268,0.0,0.0,0.0,0.0,0.0,0.0,0.0,0.0,0.0,0.0,0.0,0.0,0.0,-6.0951,-6.0144,-5.9355,-5.9263,-5.8859,-5.8125,-5.8033,-5.7997,-5.7997,-5.7262,-5.6877,-5.6767,-5.5207,-5.4473,-5.4363,0.0,0.0,0.0,-5.1995,-5.1481,-5.0618,-4.9884,-4.9536,-4.937,-4.86,-4.7937,-4.7277,0.0,0.0,0.0,0.0,0.0,0.0,0.0,0.0,0.0,0.0,0.0,0.0,0.0,0.0,0.0,0.0,0.0,0.0,0.0,0.0,0.0,0.0,0.0,0.0,0.0,0.0,0.0,0.0,0.0,0.0,0.0,0.0,0.0,0.0,0.0,0.0,0.0,0.0,0.0,0.0,0.0,0.0,0.0,0.0,0.0,0.0,0.0,0.0,0.0,0.0,0.0,0.0,-3.7441,-4.1601,0.0,0.0,-5.6069,-5.9318,-6.3227,-6.4273,-6.3961,-6.2677,-5.8235,-5.2747,-4.737,0.0,-3.7551,-3.4431,-3.3421,-3.3128,-3.3293,-3.3862,-3.4871,-3.667,-3.6688,0.0,0.0,0.0,0.0,0.0,0.0,0.0,0.0,0.0,0.0,0.0,0.0,0.0,0.0,0.0,-5.9318,-5.851,-5.8492,-5.8327,-5.7997,-5.7519,-5.7281,-5.7281,-5.6455,-5.5812,-5.5335,-5.4693,-5.4142,-5.3665,0.0,0.0,0.0,-5.2197,-5.1518,-5.0729,-4.9903,-4.926,-4.8783,-4.8434,-4.8172,-4.7802,0.0,0.0,0.0,0.0,0.0,0.0,0.0,0.0,0.0,0.0,0.0,0.0,0.0,0.0,0.0,0.0,0.0,0.0,0.0,0.0,0.0,0.0,0.0,0.0,0.0,0.0,0.0,0.0,0.0,0.0,0.0,0.0,0.0,0.0,0.0,0.0,0.0,0.0,0.0,0.0,0.0,0.0,0.0,0.0,0.0,0.0,0.0,0.0,0.0,0.0,0.0,0.0,0.0,0.0,-3.9575,0.0,-5.1334,-5.5078,-5.9208,-6.0676,-6.0768,-5.963,-5.5519,-5.0453,0.0,0.0,-3.6725,-3.4009,-3.2999,-3.2779,-3.3348,-3.3458,-3.3788,-3.4825,-3.4486,-3.5973,0.0,0.0,0.0,0.0,0.0,0.0,0.0,0.0,0.0,0.0,0.0,0.0,0.0,0.0,-5.8345,-5.7997,-5.7997,-5.7997,-5.7997,-5.7207,-5.6804,-5.6804,-5.5739,-5.495,-5.4399,-5.4161,-5.3739,0.0,0.0,0.0,0.0,-5.2601,-5.1885,-5.1077,-5.027,-4.9426,-4.8655,-4.8398,-4.8172,-4.7959,0.0,0.0,0.0,0.0,0.0,0.0,0.0,0.0,0.0,0.0,0.0,0.0,0.0,0.0,0.0,0.0,0.0,0.0,0.0,0.0,0.0,0.0,0.0,0.0,0.0,0.0,0.0,-2.9999,-2.9796,0.0,0.0,0.0,0.0,0.0,0.0,0.0,0.0,0.0,0.0,0.0,0.0,0.0,0.0,0.0,0.0,0.0,0.0,0.0,0.0,0.0,0.0,0.0,0.0,-3.2788,-3.4489,-3.97,-4.5792,-5.1389,-5.3812,-5.5647,-5.6877,-5.6859,-5.2564,-4.7498,0.0,0.0,-3.656,-3.3293,-3.2614,-3.2614,-3.2614,-3.2614,-3.3146,-3.4734,-3.6376,0.0,0.0,0.0,0.0,0.0,0.0,0.0,0.0,0.0,0.0,0.0,0.0,0.0,0.0,0.0,-5.7189,-5.7978,-5.7997,-5.7997,-5.7997,-5.7207,-5.6804,-5.6785,-5.5188,-5.4418,-5.4363,-5.3592,0.0,0.0,0.0,0.0,0.0,-5.3206,-5.2711,-5.1903,-5.1096,-5.0288,-4.9462,-4.8618,-4.7937,-4.7277,0.0,0.0,0.0,0.0,0.0,0.0,0.0,0.0,0.0,0.0,0.0,0.0,0.0,0.0,0.0,0.0,0.0,0.0,0.0,0.0,0.0,0.0,0.0,0.0,0.0,0.0,-2.9121,-2.8688,-2.9233,-2.9373,-2.9134,0.0,0.0,0.0,0.0,0.0,0.0,0.0,0.0,0.0,0.0,0.0,0.0,0.0,0.0,0.0,0.0,0.0,0.0,0.0,0.0,0.0,0.0,0.0,0.0,-3.3917,-3.9074,0.0,-4.7113,-4.8545,-4.9095,-4.7976,-4.5535,-4.269,-3.9992,-3.7533,-3.5183,-3.3054,-3.2614,-3.243,-3.188,-3.2228,-3.312,-3.4734,-3.5459,0.0,0.0,0.0,0.0,0.0,0.0,0.0,0.0,0.0,0.0,0.0,0.0,0.0,0.0,0.0,-5.6602,-5.796,-5.7464,-5.7189,-5.7189,-5.6381,-5.5702,-5.5152,-5.4106,-5.3592,-5.3573,-5.3335,0.0,0.0,0.0,0.0,0.0,-5.2013,-5.1408,-5.1041,-4.9646,-4.8948,-4.8673,-4.8398,-4.8172,-4.7907,0.0,0.0,0.0,0.0,0.0,0.0,0.0,0.0,0.0,0.0,0.0,0.0,0.0,0.0,0.0,0.0,0.0,0.0,0.0,0.0,0.0,0.0,0.0,0.0,0.0,-2.8289,-2.8354,-2.8366,-2.9063,-2.931,-2.9156,-2.9357,-2.9287,0.0,0.0,0.0,0.0,0.0,0.0,0.0,0.0,0.0,-2.833,0.0,0.0,0.0,0.0,0.0,0.0,0.0,0.0,0.0,0.0,0.0,0.0,0.0,-3.4027,-3.812,0.0,-4.2782,-4.3387,-4.2378,-4.0708,0.0,0.0,-3.5293,-3.3707,-3.243,-3.1916,-3.1641,-3.1439,-3.1568,-3.2228,-3.3817,-3.4587,0.0,0.0,0.0,0.0,0.0,0.0,0.0,0.0,0.0,0.0,0.0,0.0,0.0,0.0,0.0,-5.5739,-5.7042,-5.6602,-5.6345,-5.6345,-5.5537,-5.4895,-5.4399,-5.3592,-5.3206,-5.3206,0.0,0.0,0.0,0.0,0.0,0.0,-5.1793,-5.1077,-5.0674,-4.9315,-4.86,-4.8306,-4.8306,-4.8122,-4.7699,0.0,0.0,0.0,0.0,0.0,0.0,0.0,0.0,0.0,0.0,0.0,0.0,0.0,0.0,0.0,0.0,0.0,0.0,0.0,0.0,0.0,0.0,0.0,0.0,0.0,-2.7586,-2.7864,-2.8655,-2.9195,-2.9483,-2.9558,-3.0162,-3.0008,-2.9159,-2.9159,-2.8631,-2.7603,-2.6064,-2.5485,-2.5649,-2.5825,-2.6527,0.0,0.0,0.0,0.0,0.0,0.0,0.0,0.0,0.0,0.0,0.0,0.0,0.0,0.0,0.0,0.0,0.0,-3.8077,0.0,0.0,0.0,0.0,-3.4825,-3.3486,0.0,-3.1458,-3.0723,-3.0467,-3.1329,-3.0834,-3.0889,-3.2742,-3.422,0.0,0.0,0.0,0.0,0.0,0.0,0.0,0.0,0.0,0.0,0.0,0.0,0.0,0.0,0.0,0.0,-5.5317,-5.5335,-5.539,-5.55,-5.4766,-5.4363,-5.4308,-5.3573,-5.3206,-5.3206,0.0,0.0,0.0,0.0,0.0,0.0,-5.216,-5.1389,-5.0637,-4.9811,-4.9003,-4.8306,-4.8306,-4.781,-4.6909,0.0,0.0,0.0,0.0,0.0,0.0,0.0,0.0,0.0,0.0,0.0,0.0,0.0,0.0,0.0,0.0,0.0,0.0,0.0,0.0,0.0,0.0,0.0,0.0,0.0,-2.6479,-2.6682,-2.7341,-2.9153,-3.0323,-3.0973,-3.2309,-3.2192,-3.0834,-3.0834,-2.9365,-2.6814,-2.5805,-2.5245,-2.5032,-2.5058,-2.5773,0.0,0.0,0.0,0.0,-2.9025,-2.9502,0.0,0.0,0.0,0.0,0.0,0.0,0.0,0.0,-3.0009,-3.0607,-3.1154,0.0,-3.3091,-3.188,-3.1604,-3.1586,0.0,-3.1035,-3.0705,-3.0522,-3.0338,-3.0632,-3.2063,-3.1659,-3.2467,-3.6597,-3.7074,0.0,0.0,0.0,0.0,0.0,0.0,0.0,0.0,0.0,0.0,0.0,0.0,0.0,0.0,0.0,0.0,-5.2858,-5.2839,-5.3427,-5.4675,-5.4491,-5.4087,-5.3482,-5.3298,-5.3206,-5.3206,0.0,0.0,0.0,0.0,0.0,-5.1298,-5.049,-5.0031,-4.9793,-4.893,-4.8489,-4.8306,-4.8306,-4.781,-4.6909,0.0,0.0,0.0,0.0,0.0,0.0,0.0,0.0,0.0,0.0,0.0,0.0,0.0,0.0,0.0,0.0,0.0,0.0,0.0,0.0,0.0,0.0,0.0,0.0,-2.5716,-2.5551,-2.6115,-2.7456,-2.8927,-3.0448,-3.1971,-3.2834,-3.2596,-3.1329,-2.9861,-2.8026,-2.5988,-2.5181,-2.4782,-2.467,-2.476,0.0,0.0,0.0,0.0,0.0,-2.7813,-2.8211,0.0,-2.9213,-2.9353,-2.9207,0.0,0.0,0.0,0.0,-2.8795,-2.9163,-2.8886,-3.0346,-3.1641,-3.0411,-3.043,-3.0742,-3.0742,-3.0173,-2.9659,-2.9659,-2.9659,-3.0044,-3.1274,-3.1146,-3.2192,0.0,0.0,0.0,0.0,0.0,0.0,0.0,0.0,0.0,0.0,0.0,0.0,0.0,0.0,0.0,0.0,0.0,0.0,0.0,-5.1628,-5.2032,-5.328,-5.3298,-5.3078,-5.2656,-5.2656,-5.2472,-5.2105,0.0,0.0,0.0,0.0,0.0,-5.0747,-4.9921,-4.9591,-4.9462,-4.8233,-4.7755,-4.7719,-4.7333,-4.6691,-4.5865,0.0,0.0,0.0,0.0,0.0,0.0,0.0,0.0,0.0,0.0,0.0,0.0,0.0,0.0,0.0,0.0,0.0,0.0,0.0,0.0,0.0,0.0,0.0,-2.5209,-2.5152,-2.4884,-2.5839,-2.8047,-2.8946,-3.0558,-3.2797,-3.3183,-3.2651,-3.1256,-2.8154,-2.6264,-2.5366,-2.4667,-2.445,-2.4559,-2.4731,0.0,0.0,0.0,0.0,0.0,0.0,0.0,0.0,-2.831,-2.8578,-2.8291,-2.8483,0.0,0.0,0.0,0.0,0.0,-2.8316,-3.0469,-3.2426,-3.1464,-3.1403,-3.1549,-3.1421,-3.0356,-2.9384,0.0,0.0,0.0,0.0,-3.0925,0.0,0.0,0.0,0.0,0.0,0.0,0.0,0.0,0.0,0.0,0.0,0.0,0.0,0.0,0.0,0.0,0.0,0.0,0.0,0.0,-5.1111,-5.1113,-5.1796,-5.1801,-5.1834,-5.1897,-5.1834,-5.1463,-5.0802,-5.0802,0.0,0.0,0.0,0.0,-5.0196,-4.9627,-4.9389,-4.9242,-4.7847,-4.7223,-4.704,-4.6342,-4.5498,-4.4601,0.0,0.0,0.0,0.0,0.0,0.0,0.0,0.0,0.0,0.0,0.0,0.0,0.0,0.0,0.0,0.0,0.0,0.0,0.0,0.0,0.0,0.0,-2.5141,-2.5292,-2.5823,-2.4995,-2.5634,-2.7853,-2.9995,-3.1916,-3.366,-3.5752,-3.4816,-3.1274,-2.8741,-2.6778,-2.5403,-2.5274,-2.504,-2.476,-2.479,0.0,0.0,0.0,0.0,0.0,0.0,0.0,0.0,-2.7675,-2.7693,-2.7609,-2.7494,0.0,0.0,0.0,0.0,0.0,-2.9292,-3.126,-3.244,-3.079,-3.1421,-3.2247,-3.1549,-3.1201,-3.1017,0.0,0.0,0.0,0.0,-3.4257,0.0,0.0,0.0,0.0,0.0,0.0,0.0,0.0,0.0,0.0,0.0,0.0,0.0,0.0,0.0,0.0,0.0,0.0,0.0,0.0,0.0,-5.0779,-5.0911,-5.0972,-5.1111,-5.1398,-5.1111,-5.093,-5.0802,-5.0802,-5.0031,0.0,0.0,-4.8985,-4.7719,-4.8269,-4.8508,-4.8471,-4.8233,-4.7719,-4.7113,-4.6966,-4.5993,-4.4437,0.0,0.0,0.0,0.0,0.0,0.0,0.0,0.0,0.0,0.0,0.0,0.0,0.0,0.0,0.0,0.0,0.0,0.0,0.0,0.0,0.0,-2.5152,-2.5406,-2.5901,-2.6629,-2.6092,-2.7301,-3.0393,-3.1494,-3.3109,-3.5128,-3.4486,-3.2485,-2.9365,-2.7383,-2.5841,-2.474,-2.474,-2.4708,-2.4639,0.0,0.0,0.0,0.0,0.0,0.0,0.0,0.0,0.0,0.0,-2.701,-2.6998,-2.6912,0.0,0.0,0.0,0.0,0.0,-2.7752,-2.9455,-3.0847,-3.0461,-3.2145,-3.3697,-3.2871,-3.2357,-3.2173,0.0,0.0,0.0,0.0,0.0,0.0,0.0,0.0,0.0,0.0,0.0,0.0,0.0,0.0,0.0,0.0,0.0,0.0,0.0,0.0,0.0,0.0,0.0,0.0,0.0,0.0,0.0,-4.8977,-4.8815,-4.9384,-5.065,-5.0302,-4.9903,-4.9444,-4.9003,-4.8398,-4.7664,0.0,-4.715,-4.6526,-4.7333,-4.7407,-4.7058,-4.748,-4.6911,-4.5755,-4.5333,-4.4492,-4.3429,0.0,0.0,0.0,0.0,0.0,0.0,0.0,0.0,0.0,0.0,0.0,0.0,0.0,0.0,0.0,0.0,0.0,0.0,0.0,0.0,-2.5214,-2.501,-2.5461,-2.6236,-2.7392,-2.7401,-2.9086,-3.2614,-3.2797,-3.377,-3.5367,-3.2467,-2.9824,-2.7457,-2.6046,-2.4942,-2.419,-2.419,-2.4339,-2.4575,0.0,0.0,0.0,0.0,0.0,0.0,0.0,0.0,0.0,0.0,0.0,0.0,0.0,0.0,0.0,-2.5638,-2.5562,-2.5972,-2.6524,-2.7862,-2.9302,-3.0104,-3.2403,-3.4422,-3.4394,-3.3752,-3.3513,-3.4706,0.0,0.0,0.0,0.0,0.0,0.0,0.0,0.0,0.0,0.0,0.0,0.0,0.0,0.0,0.0,0.0,0.0,0.0,0.0,0.0,0.0,0.0,0.0,0.0,0.0,0.0,-4.7624,-4.7296,-4.7974,-4.9631,-4.9121,-4.8567,-4.7994,-4.7205,-4.6728,-4.6526,-4.6085,-4.5792,-4.57,-4.6709,-4.6746,-4.6269,-4.7076,-4.6416,-4.4874,-4.3864,-4.3178,-4.2616,0.0,0.0,0.0,0.0,0.0,0.0,0.0,0.0,0.0,0.0,0.0,0.0,0.0,0.0,0.0,0.0,0.0,0.0,0.0,0.0,-2.5214,-2.501,-2.494,-2.5869,-2.7977,-2.8566,-3.0081,-3.2614,-3.3348,-3.3421,-3.2834,-3.1109,-2.8998,-2.6649,-2.5768,-2.4942,-2.419,-2.419,-2.4409,-2.4775,-2.479,0.0,0.0,0.0,0.0,0.0,0.0,0.0,0.0,0.0,0.0,0.0,0.0,0.0,-2.5447,-2.5322,-2.5331,-2.5705,-2.733,-2.8127,-2.8686,-2.9548,-3.1266,-3.3366,-3.5605,-3.5459,-3.5485,-3.7863,0.0,0.0,0.0,0.0,0.0,0.0,0.0,0.0,0.0,0.0,0.0,0.0,0.0,0.0,0.0,0.0,0.0,0.0,0.0,0.0,0.0,0.0,0.0,0.0,0.0,0.0,-4.8049,-4.7665,-4.7751,-4.8333,-4.718,-4.6826,-4.7186,-4.6361,-4.559,-4.4929,-4.5608,-4.548,-4.4911,-4.6471,-4.7095,-4.7113,-4.7902,-4.7241,-4.5626,-4.4066,-4.3178,-4.2693,0.0,0.0,0.0,0.0,0.0,0.0,0.0,0.0,0.0,0.0,0.0,0.0,0.0,0.0,0.0,0.0,0.0,0.0,0.0,0.0,-2.5214,-2.501,-2.5362,-2.618,-2.7526,-2.8019,-2.9677,-3.2614,-3.2394,-3.2155,-3.1806,-2.9182,-2.7475,-2.6539,-2.5236,-2.4759,-2.4925,-2.4543,-2.4843,-2.5506,-2.5086,-2.5084,0.0,0.0,0.0,0.0,0.0,0.0,0.0,0.0,-2.5303,-2.5303,-2.5303,-2.5303,-2.5303,-2.5303,-2.5214,-2.5286,-2.6081,-2.722,-2.8316,-2.878,-3.0392,-3.2485,-3.4945,-3.6431,-3.7863,-3.979,-4.0598,0.0,0.0,0.0,0.0,0.0,0.0,0.0,0.0,0.0,0.0,0.0,0.0,0.0,0.0,0.0,0.0,0.0,0.0,0.0,0.0,0.0,0.0,0.0,0.0,0.0,0.0,-4.6398,-4.6454,-4.6722,-4.6501,-4.6379,-4.6342,-4.5535,-4.5002,-4.469,-4.4488,-4.4232,-4.403,-4.5168,-4.5314,-4.4892,-4.5204,-4.5241,-4.5021,-4.3901,-4.3178,-4.2711,0.0,0.0,0.0,0.0,0.0,0.0,0.0,0.0,0.0,0.0,0.0,0.0,0.0,0.0,0.0,0.0,0.0,0.0,0.0,-2.5303,-2.5214,-2.501,-2.5441,-2.6027,-2.6798,-2.7084,-2.8775,-3.1949,-3.1084,-3.0375,-2.9843,-2.764,-2.6465,-2.6172,-2.5071,-2.5016,-2.5715,-2.4855,-2.5078,-2.5944,-2.5266,-2.5111,0.0,0.0,0.0,0.0,0.0,0.0,0.0,0.0,-2.5303,-2.5303,-2.5303,-2.5303,-2.5303,-2.5303,-2.5203,-2.5111,-2.5264,-2.6388,-2.7675,-2.8253,-3.0174,-3.2594,-3.5211,-3.711,-3.9074,-4.1717,-4.2268,-4.2213,0.0,0.0,0.0,0.0,0.0,0.0,0.0,0.0,0.0,0.0,0.0,0.0,0.0,0.0,0.0,0.0,0.0,0.0,0.0,0.0,0.0,0.0,0.0,0.0,0.0,-4.5586,-4.5589,-4.5578,-4.5866,-4.5823,-4.5498,-4.469,-4.4323,-4.4287,-4.3736,-4.3497,-4.3552,-4.4378,-4.4525,-4.4232,-4.3975,-4.4213,-4.4617,-4.3791,-4.325,-4.2939,0.0,0.0,0.0,0.0,0.0,0.0,0.0,0.0,0.0,0.0,0.0,0.0,0.0,0.0,0.0,0.0,0.0,0.0,-2.5303,-2.5303,-2.5214,-2.501,-2.501,-2.531,-2.5982,-2.5985,-2.7451,-3.0463,-2.9462,-2.8172,-2.6612,-2.6612,-2.6172,-2.5403,-2.5421,-2.5841,-2.6505,-2.5096,-2.5078,-2.5944,-2.5266,-2.5111,-2.5303,0.0,0.0,0.0,0.0,0.0,0.0,0.0,-2.5303,-2.5303,-2.5303,-2.5303,-2.5303,-2.5303,-2.5303,-2.5303,-2.5303,-2.5803,-2.6643,-2.8058,0.0,0.0,-3.683,-3.7544,-3.8891,-4.3699,-4.3424,-4.2543,-4.3332,0.0,0.0,0.0,0.0,0.0,0.0,0.0,0.0,0.0,0.0,0.0,0.0,0.0,0.0,0.0,0.0,0.0,0.0,0.0,0.0,0.0,0.0,0.0,0.0,-4.5586,-4.5419,-4.5096,-4.5096,-4.4942,-4.4672,-4.3864,-4.3479,-4.3497,-4.3497,-4.3497,-4.3552,-4.436,-4.5168,-4.5792,-4.5002,-4.4709,-4.4599,-4.3791,-4.3497,-4.3497,0.0,0.0,0.0,0.0,0.0,0.0,0.0,0.0,0.0,0.0,0.0,0.0,0.0,0.0,0.0,0.0,0.0,0.0,0.0,-2.5303,-2.5274,-2.5214,-2.5077,-2.5168,-2.549,-2.5374,-2.6182,-2.7977,-2.71,-2.6648,-2.6612,-2.6612,-2.6172,-2.5421,-2.5988,-2.6062,-2.5717,-2.5026,-2.5201,-2.5959,-2.5428,-2.5253,-2.5303,0.0,0.0,0.0,0.0,0.0,0.0,0.0,0.0,0.0,-2.5303,-2.5303,-2.5303,-2.5303,-2.5303,-2.5418,-2.6063,-2.6661,0.0,-2.9886,0.0,0.0,0.0,-3.9361,0.0,0.0,-4.302,-4.2378,0.0,0.0,0.0,0.0,0.0,0.0,0.0,0.0,0.0,0.0,0.0,0.0,0.0,0.0,0.0,0.0,0.0,0.0,0.0,0.0,0.0,0.0,0.0,0.0,0.0,0.0,-4.5303,-4.4751,-4.4751,-4.456,-4.4202,-4.3961,-4.3726,-4.3497,-4.3497,-4.3497,-4.3516,-4.3754,-4.3993,-4.4176,-4.3938,-4.3864,-4.3828,-4.3589,-4.3497,-4.3497,0.0,0.0,0.0,0.0,0.0,0.0,0.0,0.0,0.0,0.0,-2.5024,-2.4947,0.0,0.0,0.0,0.0,0.0,0.0,0.0,0.0,-2.5303,-2.5303,-2.5173,-2.5192,-2.5303,-2.5173,-2.5437,-2.607,-2.5498,-2.5356,-2.5658,-2.63,-2.6337,-2.5897,-2.6477,-2.6628,-2.641,-2.5333,-2.5343,-2.6025,-2.5516,-2.5303,-2.5303,0.0,0.0,0.0,0.0,0.0,0.0,0.0,0.0,0.0,-2.5303,-2.5303,-2.5303,-2.5303,-2.5303,-2.5495,-2.637,-2.7351,0.0,-3.1172,-3.3866,-3.6752,-3.9861,0.0,0.0,0.0,0.0,0.0,0.0,0.0,0.0,0.0,0.0,0.0,0.0,0.0,0.0,0.0,0.0,0.0,0.0,0.0,0.0,0.0,0.0,0.0,0.0,0.0,0.0,0.0,0.0,0.0,0.0,0.0,0.0,-4.4988,-4.4988,-4.4806,-4.4409,-4.3986,-4.3693,-4.3497,-4.3497,-4.3497,-4.3497,-4.3497,-4.3497,-4.3497,-4.3497,-4.3497,-4.3497,-4.3497,-4.3497,-4.3497,0.0,0.0,0.0,0.0,0.0,0.0,0.0,0.0,0.0,0.0,-2.4659,-2.4485,0.0,0.0,0.0,0.0,0.0,0.0,0.0,0.0,-2.5303,-2.5303,-2.5303,-2.5303,-2.5303,-2.5303,-2.5138,-2.4832,-2.4623,-2.4428,-2.4245,-2.5915,-2.6594,-2.6434,-2.6801,-2.7288,-2.768,-2.5778,-2.5412,-2.6041,-2.551,-2.5303,-2.5303,-2.5303,0.0,0.0,0.0,0.0,0.0,0.0,0.0,0.0,-2.5303,-2.5303,-2.5303,-2.5303,-2.5303,-2.5514,-2.6467,-2.7832,0.0,-3.2153,-3.5945,0.0,-4.2137,-4.3661,-4.4303,0.0,0.0,0.0,0.0,0.0,0.0,0.0,0.0,0.0,0.0,0.0,0.0,0.0,0.0,0.0,0.0,0.0,0.0,0.0,0.0,0.0,0.0,0.0,0.0,0.0,0.0,0.0,0.0,0.0,0.0,0.0,-4.5318,-4.517,-4.4916,-4.3998,-4.3563,-4.3497,-4.3497,-4.3497,-4.3497,-4.3497,-4.3497,-4.3497,-4.3497,-4.3497,-4.3497,-4.3497,-4.3497,-4.3497,0.0,0.0,0.0,0.0,0.0,0.0,0.0,0.0,0.0,0.0,0.0,0.0,0.0,0.0,0.0,0.0,0.0,0.0,0.0,0.0,-2.5303,-2.5303,-2.5303,-2.5303,-2.5303,-2.5303,-2.5192,-2.4949,-2.4814,-2.4543,-2.4245,-2.6484,-2.6606,-2.5022,-2.6812,-2.6822,-2.5483,-2.5026,-2.4999,-2.5258,-2.529,-2.5303,-2.5303,-2.5303,-2.5303,0.0,0.0,0.0,0.0,0.0,0.0,0.0,-2.5303,-2.5303,-2.5303,-2.5303,-2.5303,-2.563,-2.7198,-2.7871,0.0,0.0,-3.8301,-4.1724,-4.181,-4.256,0.0,0.0,0.0,0.0,0.0,0.0,0.0,0.0,0.0,0.0,0.0,0.0,0.0,0.0,0.0,0.0,0.0,0.0,0.0,0.0,0.0,0.0,0.0,0.0,0.0,0.0,0.0,0.0,-4.3643,-4.3643,-4.348,0.0,-4.3176,-4.3354,-4.3693,-4.4146,-4.4035,-4.3497,-4.3497,-4.3497,-4.3497,-4.3497,-4.3497,-4.3497,-4.3497,-4.3497,-4.3497,-4.3497,-4.3497,-4.3497,0.0,0.0,0.0,0.0,0.0,0.0,0.0,0.0,0.0,0.0,0.0,0.0,0.0,0.0,0.0,0.0,0.0,0.0,0.0,0.0,0.0,0.0,-2.5303,-2.5303,-2.5303,-2.5303,-2.5203,-2.501,-2.4924,-2.49,-2.4949,-2.651,-2.6868,-2.6264,-2.7121,-2.6984,-2.6048,-2.533,-2.5072,-2.5152,-2.5264,-2.5303,-2.5303,-2.5303,-2.5303,-2.5303,-2.5303,0.0,0.0,0.0,0.0,0.0,0.0,0.0,-2.5303,-2.5303,-2.5303,-2.5591,-2.6928,0.0,0.0,-3.5315,0.0,-4.1428,-4.1906,0.0,0.0,0.0,0.0,0.0,0.0,0.0,0.0,0.0,0.0,0.0,0.0,0.0,0.0,0.0,0.0,0.0,0.0,0.0,0.0,0.0,0.0,0.0,0.0,0.0,0.0,0.0,0.0,0.0,-4.3104,-4.3104,-4.2979,-4.2795,-4.2795,-4.283,-4.2924,-4.363,-4.3764,-4.3397,-4.3217,-4.3171,-4.3176,-4.3416,-4.3497,-4.3497,-4.3497,-4.3497,-4.3497,-4.3497,-4.3497,-4.3497,0.0,0.0,0.0,0.0,0.0,0.0,0.0,0.0,0.0,0.0,0.0,0.0,0.0,0.0,0.0,0.0,0.0,0.0,0.0,0.0,0.0,0.0,-2.5303,-2.5303,-2.5303,-2.5303,-2.5214,-2.5046,-2.5022,-2.5413,-2.624,-2.6561,-2.7155,-2.7997,-2.7426,-2.7241,-2.7249,-2.5844,-2.5264,-2.5303,-2.5303,-2.5303,-2.5303,-2.5303,-2.5303,-2.5303,-2.5303,-2.5303,-2.5303,-2.5303,0.0,0.0,0.0,0.0,-2.5303,-2.5303,-2.5303,-2.5495,-2.637,0.0,-3.0794,-3.6045,-3.8503,0.0,-4.132,0.0,0.0,0.0,0.0,0.0,0.0,0.0,0.0,0.0,0.0,0.0,0.0,0.0,0.0,0.0,0.0,0.0,0.0,0.0,0.0,0.0,0.0,0.0,0.0,0.0,0.0,0.0,0.0,-4.2585,-4.245,-4.2585,-4.2585,-4.245,-4.2739,-4.2694,-4.2391,-4.2841,-4.305,-4.3076,-4.3015,-4.2932,-4.2846,-4.3299,-4.3497,-4.3497,-4.3497,-4.3497,-4.3497,-4.3497,-4.3497,-4.3497,0.0,0.0,0.0,0.0,0.0,0.0,0.0,0.0,0.0,0.0,0.0,0.0,0.0,0.0,0.0,0.0,0.0,0.0,-2.5303,0.0,0.0,-2.5303,-2.5303,-2.5303,-2.5303,-2.5303,-2.5303,-2.5264,-2.5088,-2.6155,-2.8365,-2.7522,-2.7311,-2.7651,-2.7324,-2.702,-2.6655,-2.552,-2.5141,-2.5303,-2.5303,-2.5303,-2.5303,-2.5303,-2.5303,-2.5303,-2.5303,-2.5303,-2.5303,-2.5303,-2.5303,0.0,0.0,0.0,0.0,-2.5303,-2.5303,-2.5495,0.0,0.0,-3.1891,0.0,-3.6498,-3.8262,0.0,0.0,0.0,0.0,0.0,0.0,0.0,0.0,0.0,0.0,0.0,0.0,0.0,0.0,0.0,0.0,0.0,0.0,0.0,0.0,0.0,0.0,0.0,0.0,0.0,0.0,-4.0065,-4.0662,-4.0777,0.0,-3.9796,-4.0489,-4.0489,-3.9815,-4.1277,-4.1953,-4.1901,-4.1963,-4.2066,-4.2241,-4.3361,-4.3446,-4.2846,-4.3299,-4.3497,-4.3497,-4.3497,-4.3497,-4.3497,-4.3497,-4.3497,-4.3497,0.0,0.0,0.0,0.0,0.0,0.0,0.0,0.0,0.0,0.0,0.0,0.0,0.0,0.0,0.0,-2.5303,-2.5303,-2.5303,-2.5303,-2.5303,-2.5303,-2.5303,-2.5303,-2.5303,-2.5303,-2.5303,-2.5303,-2.5303,-2.5214,-2.6236,-2.8306,-2.8281,-2.9044,-3.0352,-2.9311,-2.8515,-2.789,-2.5962,-2.5214,-2.5303,-2.5303,-2.5303,-2.5303,-2.5303,-2.5303,-2.5303,-2.5303,-2.5303,-2.5303,-2.5303,-2.5303,-2.5303,-2.5303,0.0,0.0,0.0,-2.5303,-2.5495,-2.637,-2.8044,-2.9967,0.0,-3.3622,-3.5229,0.0,0.0,0.0,0.0,0.0,0.0,0.0,0.0,0.0,0.0,0.0,0.0,0.0,0.0,0.0,0.0,0.0,0.0,0.0,0.0,0.0,0.0,0.0,0.0,0.0,-3.8565,-3.895,-3.9796,-3.9354,0.0,-3.9296,-3.9642,-3.9873,-3.9969,-4.0719,-4.1066,-4.1085,-4.1585,-4.1833,-4.1912,-4.2309,-4.2441,-4.2398,-4.2897,-4.3258,-4.3497,-4.3497,-4.3497,-4.3497,-4.3497,-4.3497,-4.3497,0.0,0.0,0.0,0.0,0.0,0.0,0.0,0.0,0.0,0.0,0.0,0.0,0.0,0.0,0.0,0.0,-2.5303,-2.5303,-2.5303,-2.5303,-2.5303,-2.5303,-2.5322,-2.5322,-2.5303,-2.5322,-2.5322,-2.5303,-2.5303,-2.6197,-2.7909,-2.8717,-3.0157,-3.201,-3.0963,-2.9864,-2.8659,-2.6774,-2.5832,-2.561,-2.538,-2.5303,-2.5303,-2.5303,-2.5303,-2.5303,-2.5303,-2.5303,-2.5293,-2.5331,-2.534,-2.534,-2.5331,0.0,0.0,0.0,0.0,0.0,0.0,0.0,-2.7928,-2.941,-3.0852,-3.216,0.0,0.0,0.0,0.0,0.0,0.0,0.0,0.0,0.0,0.0,0.0,0.0,0.0,0.0,0.0,0.0,0.0,0.0,0.0,0.0,0.0,0.0,0.0,0.0,-3.732,-3.7353,-3.7853,-3.8931,-3.8334,-3.82,-3.8642,-3.8642,-3.9046,-3.9873,-4.0085,-4.02,-4.0219,-4.1085,-4.147,-4.1473,-4.1493,-4.1598,-4.1726,-4.2172,-4.2696,-4.3185,-4.3185,-4.3314,-4.3497,-4.3497,-4.3497,-4.3497,0.0,0.0,0.0,0.0,0.0,0.0,0.0,0.0,0.0,0.0,0.0,0.0,-2.5303,-2.5303,-2.5303,-2.5303,-2.5303,-2.5303,-2.5303,-2.5303,-2.5303,-2.5303,-2.5363,0.0,-2.5313,-2.5363,-2.5363,-2.5303,-2.5303,-2.6197,-2.7909,-2.8717,-2.9621,-3.054,-3.1302,-3.0263,-2.7948,-2.7813,-2.7294,-2.6467,-2.563,-2.5303,-2.5303,-2.5303,-2.5303,-2.5303,-2.5303,0.0,0.0,-2.5368,0.0,0.0,0.0,0.0,0.0,0.0,0.0,0.0,0.0,-2.6051,0.0,-2.7794,0.0,0.0,0.0,0.0,0.0,0.0,0.0,0.0,0.0,0.0,0.0,0.0,0.0,0.0,0.0,0.0,0.0,0.0,0.0,0.0,0.0,0.0,0.0,0.0,0.0,0.0,-3.5532,-3.5641,-3.6392,-3.8027,-3.8027,-3.7623,-3.6853,-3.6853,-3.7276,-3.8142,-3.8969,-3.9354,-3.9392,-4.02,-4.0566,-4.0627,-4.1629,-4.1599,-4.0879,-4.1107,-4.1644,-4.2359,-4.2359,-4.2818,-4.3497,-4.3497,-4.3497,-4.3497,0.0,0.0,0.0,0.0,0.0,0.0,0.0,0.0,0.0,0.0,0.0,0.0,0.0,-2.5303,-2.5303,-2.5303,-2.5303,-2.5303,-2.5303,-2.5303,-2.5322,-2.5363,-2.5391,-2.5391,-2.5352,-2.5383,-2.5371,-2.5303,-2.5303,-2.5909,-2.7082,-2.7928,-2.8198,-2.8025,-2.941,-2.9236,-2.7832,-2.6717,-2.6063,0.0,0.0,-2.5303,-2.5293,-2.5346,0.0,0.0,0.0,0.0,0.0,0.0,0.0,0.0,0.0,0.0,0.0,0.0,0.0,0.0,0.0,0.0,0.0,-2.6159,0.0,0.0,0.0,0.0,0.0,0.0,0.0,0.0,0.0,0.0,0.0,0.0,0.0,0.0,0.0,0.0,0.0,0.0,0.0,0.0,0.0,0.0,0.0,0.0,0.0,0.0,-3.4603,-3.4661,-3.543,-3.7123,-3.6661,-3.6488,-3.6699,-3.6699,-3.7142,-3.8007,-3.8315,-3.8757,-3.9296,-3.9604,-4.0008,-4.0511,-4.0711,-4.0927,-4.1111,-4.1208,-4.1472,-4.1871,-4.2052,-4.218,-4.2372,-4.3106,-4.338,-4.3426,0.0,0.0,0.0,0.0,0.0,0.0,0.0,0.0,0.0,-2.5303,0.0,0.0,0.0,0.0,-2.5303,-2.5303,-2.5303,-2.5303,-2.5303,-2.5303,-2.5321,-2.5391,-2.5415,-2.5434,-2.5434,-2.5434,-2.542,-2.5371,-2.5312,-2.5621,-2.6217,-2.6775,-2.6717,-2.6217,-2.7332,-2.7698,-2.7409,0.0,0.0,-2.5717,0.0,0.0,-2.5775,0.0,0.0,0.0,0.0,0.0,0.0,0.0,0.0,0.0,0.0,0.0,0.0,0.0,0.0,0.0,-2.5471,0.0,0.0,0.0,0.0,0.0,0.0,0.0,0.0,0.0,0.0,0.0,0.0,0.0,0.0,0.0,0.0,0.0,0.0,0.0,0.0,0.0,0.0,0.0,0.0,0.0,0.0,0.0,0.0,0.0,-3.3314,-3.3353,-3.3987,-3.5391,-3.4911,-3.5026,-3.5853,-3.5853,-3.6295,-3.7161,-3.743,-3.7873,-3.843,-3.8719,-3.9161,-3.9662,-3.9461,-3.9967,-4.0901,-4.0779,-4.0986,-4.1351,-4.155,-4.1668,-4.1819,-4.2566,-4.2817,-4.2798,0.0,0.0,0.0,0.0,0.0,0.0,0.0,0.0,-2.5293,-2.5293,0.0,0.0,0.0,0.0,0.0,-2.5303,-2.5293,-2.5293,-2.5303,-2.5293,-2.533,-2.5398,-2.5471,-2.5493,-2.5493,-2.5493,-2.5493,-2.5493,-2.5379,-2.5339,-2.5398,-2.533,-2.5293,-2.5303,-2.5303,-2.5774,-2.6621,0.0,-2.7351,-2.6525,0.0,-2.5884,-2.6699,0.0,0.0,0.0,-2.8018,-2.7493,0.0,0.0,0.0,0.0,0.0,0.0,0.0,0.0,0.0,0.0,0.0,0.0,0.0,0.0,0.0,0.0,0.0,0.0,0.0,0.0,0.0,0.0,0.0,0.0,0.0,0.0,0.0,0.0,0.0,0.0,0.0,0.0,0.0,0.0,0.0,0.0,0.0,0.0,0.0,-3.0794,-3.166,-3.1718,-3.2083,-3.2872,-3.2891,-3.3314,-3.4141,-3.416,-3.4584,-3.543,-3.6238,-3.6642,-3.6699,-3.7565,-3.7988,-3.8007,-3.8007,-3.8767,-4.0005,-3.9719,-4.0033,-4.0745,-4.0764,-4.1254,-4.1946,-4.1989,-4.1822,-4.1735,0.0,0.0,0.0,0.0,0.0,0.0,0.0,0.0,-2.5368,0.0,0.0,0.0,-2.5368,-2.533,-2.5303,-2.5303,-2.5337,-2.5346,-2.5293,-2.5391,-2.5459,-2.5477,-2.5543,-2.5567,-2.5567,-2.5567,-2.5551,-2.5493,-2.5451,-2.5428,-2.5406,0.0,-2.5357,-2.5303,-2.5303,-2.5418,-2.5668,-2.5928,0.0,-2.6586,-2.5695,-2.5898,0.0,0.0,0.0,0.0,0.0,-2.6203,-2.597,0.0,-2.5636,-2.5601,0.0,0.0,0.0,0.0,0.0,0.0,-2.5598,0.0,0.0,0.0,0.0,0.0,0.0,0.0,0.0,0.0,0.0,0.0,0.0,0.0,0.0,0.0,0.0,0.0,0.0,0.0,0.0,0.0,0.0,0.0,0.0,0.0,0.0,0.0,0.0,-3.0794,-3.166,-3.2256,-3.2679,-3.2891,-3.2891,-3.3026,-3.3256,-3.3256,-3.3372,-3.3641,-3.4487,-3.5218,-3.5872,-3.668,-3.7411,-3.8007,-3.8007,-3.8228,-3.8626,-3.9155,-3.9375,-3.9448,-4.0272,-4.0597,-4.0743,-4.1552,-4.182,-4.1818,0.0,0.0,0.0,0.0,0.0,0.0,0.0,-2.5368,-2.5406,0.0,0.0,0.0,-2.5394,-2.5371,-2.5346,-2.5376,-2.5415,-2.5421,-2.5383,-2.5465,-2.5503,-2.5547,-2.557,-2.5607,-2.5636,-2.5607,-2.5598,-2.5573,-2.5535,-2.5484,-2.5473,0.0,-2.5421,-2.5376,0.0,0.0,0.0,0.0,0.0,0.0,-2.558,0.0,0.0,-2.6685,-2.6671,0.0,0.0,0.0,-2.668,-2.5957,-2.5662,0.0,0.0,0.0,0.0,0.0,0.0,0.0,0.0,0.0,0.0,0.0,0.0,0.0,0.0,-2.5331,0.0,0.0,0.0,0.0,0.0,0.0,0.0,0.0,0.0,0.0,0.0,0.0,0.0,0.0,0.0,0.0,0.0,0.0,0.0,0.0,-2.9871,-3.0237,-3.1121,-3.1602,-3.1872,-3.1872,-3.1872,-3.2025,-3.2391,-3.241,-3.2564,-3.291,-3.341,-3.391,-3.443,-3.4911,-3.5391,-3.5892,-3.6257,-3.6411,-3.6507,-3.7719,-3.8316,-3.8565,-3.9596,-3.989,-3.9884,-4.0883,-4.1174,-4.1166,0.0,0.0,0.0,0.0,0.0,0.0,0.0,-2.5427,-2.5415,0.0,-2.5421,-2.5421,-2.5408,-2.5401,-2.5434,-2.5484,-2.5517,-2.5517,-2.5493,-2.5503,-2.5551,-2.5601,-2.5605,-2.5636,-2.5703,-2.5637,-2.5636,-2.5703,-2.557,-2.5551,-2.5601,-2.5543,-2.5517,-2.5493,0.0,0.0,0.0,0.0,0.0,-2.533,-2.5459,-2.6001,0.0,0.0,-2.7963,0.0,-2.7987,-2.8008,-2.7773,-2.6211,-2.5703,0.0,0.0,0.0,0.0,0.0,-2.5703,0.0,0.0,0.0,0.0,0.0,0.0,0.0,-2.5394,-2.5354,0.0,0.0,0.0,0.0,0.0,0.0,0.0,0.0,0.0,0.0,0.0,0.0,0.0,0.0,0.0,0.0,0.0,0.0,0.0,-2.8909,-2.8967,-2.9333,-3.0217,-3.0179,-3.016,-3.0256,-3.0179,-3.0487,-3.1275,-3.1371,-3.1775,-3.2487,-3.2679,-3.2776,-3.2776,-3.2852,-3.2891,-3.2949,-3.3718,-3.4103,-3.4314,-3.5815,-3.6988,-3.795,-3.8815,-3.9161,-3.9238,-4.0065,-4.0221,-4.0139,-2.4115,0.0,0.0,0.0,0.0,0.0,0.0,-2.5535,-2.5558,-2.5561,-2.5561,-2.5547,-2.5498,-2.5468,-2.5493,-2.5508,-2.5551,-2.5558,-2.5493,-2.5603,-2.5637,-2.5603,-2.5659,-2.5683,-2.5703,-2.5683,-2.5683,-2.5703,-2.5662,-2.5636,-2.5601,-2.5595,-2.5554,-2.5493,0.0,0.0,0.0,0.0,0.0,-2.5451,-2.5479,0.0,-2.6885,-2.6333,-2.6145,-2.619,-2.6191,-2.6211,-2.6152,0.0,-2.5703,-2.5703,0.0,0.0,0.0,0.0,0.0,0.0,0.0,0.0,0.0,0.0,0.0,0.0,-2.5415,-2.5391,0.0,0.0,0.0,0.0,0.0,0.0,0.0,0.0,0.0,0.0,0.0,0.0,0.0,0.0,0.0,0.0,0.0,0.0,-2.7967,-2.8121,-2.8121,-2.8486,-2.9313,-2.8736,-2.8679,-2.9333,-2.8736,-2.8467,-2.864,-2.9275,-2.9679,-2.9852,-3.1256,-3.1929,-3.1968,-3.2602,-3.2891,-3.291,-3.3083,-3.3545,-3.4218,-3.4545,-3.5584,-3.7046,-3.7911,-3.8257,-3.8354,-3.9219,-3.9512,-3.9561,-2.4487,0.0,0.0,0.0,0.0,0.0,0.0,0.0,-2.5601,-2.5601,-2.5567,-2.5551,-2.5551,-2.5551,-2.5561,-2.5601,-2.5633,-2.5634,-2.5603,-2.5661,-2.5683,-2.5658,-2.5683,-2.5703,-2.5703,-2.5703,-2.5703,-2.5703,-2.5703,-2.5683,-2.5658,-2.5658,-2.5398,0.0,0.0,0.0,0.0,0.0,-2.5827,-2.6158,-2.573,0.0,-2.6244,-2.5814,-2.5662,-2.5703,-2.5703,-2.5703,-2.5762,-2.6191,-2.6055,0.0,0.0,-2.5703,-2.5703,0.0,-2.5703,-2.5703,0.0,0.0,0.0,-2.566,0.0,0.0,0.0,-2.5463,0.0,0.0,0.0,0.0,0.0,0.0,0.0,0.0,0.0,0.0,0.0,0.0,0.0,0.0,0.0,0.0,0.0,0.0,-2.6774,-2.7217,-2.764,-2.8082,-2.8467,-2.8121,-2.8082,-2.8486,-2.8102,-2.789,-2.789,-2.8294,-2.8486,-2.8525,-2.9794,-3.039,-3.0429,-3.1275,-3.166,-3.1679,-3.2102,-3.2545,-3.3026,-3.3853,-3.4699,-3.5584,-3.6853,-3.7353,-3.7469,-3.8334,-3.8642,-3.8757,-2.4775,0.0,0.0,0.0,0.0,0.0,0.0,0.0,-2.5629,-2.5629,-2.5567,-2.5558,-2.5607,-2.5629,-2.5714,-2.5937,-2.5801,-2.5762,0.0,0.0,-2.5703,-2.5703,-2.5703,-2.5703,-2.5703,-2.5703,-2.5703,-2.5703,-2.5703,-2.5703,-2.5703,-2.5703,0.0,0.0,0.0,0.0,0.0,0.0,0.0,-2.6626,0.0,-2.5961,-2.6101,-2.5995,-2.5957,-2.5937,-2.5762,-2.5703,-2.582,-2.6719,0.0,-2.5723,-2.5898,-2.584,0.0,0.0,0.0,0.0,0.0,0.0,0.0,0.0,0.0,-2.5627,0.0,0.0,0.0,0.0,0.0,0.0,0.0,0.0,0.0,0.0,0.0,0.0,0.0,0.0,0.0,0.0,0.0,0.0,0.0,0.0,-2.561,-2.6294,-2.7006,-2.7498,-2.764,-2.7486,-2.7486,-2.764,-2.7486,-2.739,-2.739,-2.7563,-2.764,-2.7659,-2.864,-2.9006,-2.889,-2.9756,-3.016,-3.0198,-3.0891,-3.1391,-3.1795,-3.316,-3.391,-3.4353,-3.5872,-3.6469,-3.6584,-3.743,-3.7757,-3.7873,-2.5566,-2.5624,0.0,0.0,0.0,0.0,0.0,0.0,-2.5683,-2.5683,-2.5683,-2.5683,0.0,0.0,0.0,0.0,0.0,0.0,-2.6797,0.0,-2.5703,-2.5703,-2.5703,-2.5703,-2.5703,-2.5703,-2.5703,-2.5703,-2.5703,-2.5703,0.0,-2.5703,0.0,0.0,-2.5664,0.0,0.0,0.0,-2.6465,0.0,-2.6562,-2.7304,0.0,-2.7148,-2.6855,-2.6758,-2.5977,-2.5703,-2.582,0.0,-2.6426,-2.582,0.0,-2.6328,0.0,0.0,0.0,0.0,0.0,0.0,0.0,0.0,-2.5683,0.0,0.0,0.0,0.0,0.0,0.0,0.0,0.0,0.0,0.0,0.0,0.0,0.0,0.0,0.0,0.0,0.0,0.0,0.0,0.0,0.0,0.0,-2.5457,-2.5597,-2.6,-2.6697,-2.6024,-2.5947,-2.6717,-2.6005,-2.5591,-2.5591,-2.637,-2.6755,-2.6774,-2.8352,-2.8717,-2.8063,-2.8871,-2.9236,-2.9256,-2.9352,-3.0275,-3.1718,-3.191,-3.2852,-3.4295,-3.5257,-3.5641,-3.5738,-3.6546,-3.6853,-3.6969,-2.5683,-2.5703,0.0,0.0,0.0,0.0,0.0,0.0,-2.6855,-2.582,-2.7012,0.0,0.0,0.0,0.0,0.0,0.0,-2.7148,0.0,0.0,-2.5937,0.0,0.0,0.0,-2.5703,-2.5703,-2.5703,-2.5703,-2.5703,-2.5703,0.0,0.0,0.0,0.0,-2.5469,0.0,-2.5039,0.0,0.0,0.0,0.0,0.0,0.0,-2.6953,-2.625,-2.6191,-2.582,-2.5703,-2.5762,0.0,-2.5996,0.0,0.0,0.0,0.0,0.0,0.0,0.0,0.0,0.0,0.0,0.0,0.0,0.0,0.0,0.0,-2.5658,0.0,0.0,0.0,0.0,0.0,0.0,0.0,0.0,0.0,0.0,0.0,0.0,0.0,0.0,0.0,0.0,0.0,0.0,0.0,0.0,-2.5557,-2.5895,-2.5524,-2.5495,-2.5895,-2.5505,-2.5303,-2.5303,-2.5649,-2.5851,-2.587,-2.7063,-2.7736,-2.7928,-2.8717,-2.9371,-2.9852,-2.9852,-3.0275,-3.0987,-3.1487,-3.2102,-3.2833,-3.368,-3.4622,-3.5532,-3.5892,-3.6007,-3.6122,-2.5634,0.0,0.0,0.0,0.0,0.0,0.0,0.0,0.0,0.0,0.0,0.0,-2.834,-2.9082,0.0,0.0,0.0,-2.8027,0.0,0.0,-2.623,0.0,0.0,0.0,0.0,0.0,-2.5895,-2.5657,-2.5657,-2.5657,0.0,0.0,0.0,0.0,0.0,-2.5331,-2.4844,0.0,0.0,-2.7617,-2.7851,-2.8184,-2.8359,-2.6699,-2.5918,-2.5703,-2.5703,-2.5703,-2.5742,-2.5977,-2.5898,0.0,-2.5956,0.0,0.0,0.0,0.0,0.0,-2.5662,0.0,0.0,0.0,0.0,0.0,0.0,0.0,0.0,0.0,0.0,0.0,0.0,0.0,0.0,0.0,0.0,0.0,0.0,0.0,0.0,0.0,0.0,0.0,0.0,0.0,0.0,0.0,-2.5391,0.0,-2.5398,-2.5346,-2.5363,-2.5428,-2.5376,-2.5354,-2.5354,-2.5354,-2.547,-2.573,-2.6359,-2.7113,-2.7952,-2.8541,-2.9274,-3.0062,-3.0104,-3.0249,-3.05,-3.1137,-3.1543,-3.1832,-3.2654,-3.3909,-3.5218,-3.5149,-3.5295,-3.557,-2.5484,-2.5605,0.0,0.0,0.0,0.0,0.0,0.0,0.0,0.0,0.0,0.0,0.0,0.0,0.0,0.0,0.0,-2.8281,-2.8262,0.0,-2.6582,0.0,0.0,-2.74,0.0,0.0,0.0,-2.5517,-2.5517,0.0,0.0,0.0,0.0,0.0,0.0,-2.5616,-2.5723,-2.6621,-2.6523,-2.5859,-2.6699,-2.6543,-2.5918,0.0,-2.6426,-2.5703,-2.5703,0.0,0.0,-2.668,-2.6406,0.0,0.0,0.0,0.0,0.0,0.0,0.0,0.0,0.0,0.0,-2.5703,0.0,0.0,0.0,0.0,-2.5703,0.0,0.0,0.0,0.0,0.0,-2.5703,-2.5703,0.0,0.0,0.0,0.0,0.0,0.0,0.0,0.0,0.0,0.0,0.0,0.0,-2.5465,0.0,-2.5406,-2.5406,-2.5428,-2.5484,-2.5484,-2.5484,-2.5484,-2.5484,-2.5917,-2.6758,-2.6782,-2.7226,-2.8008,-2.8094,-2.8547,-2.9248,-2.9383,-2.9861,-3.0594,-3.0613,-3.1138,-3.1988,-3.285,-3.3744,-3.452,-3.4322,-3.4776,-3.5493,0.0,0.0,0.0,0.0,0.0,0.0,0.0,-2.7539,0.0,0.0,0.0,0.0,0.0,0.0,-3.3496,0.0,0.0,-3.0604,-2.9929,-2.8612,0.0,0.0,0.0,-2.7405,0.0,0.0,0.0,0.0,0.0,0.0,0.0,0.0,-2.5503,0.0,0.0,-2.5551,0.0,0.0,0.0,0.0,0.0,-2.6695,-2.6399,0.0,0.0,-2.5636,-2.5683,-2.5662,0.0,-2.5966,-2.5888,-2.567,-2.5909,-2.5777,-2.5535,-2.5517,-2.5526,0.0,0.0,0.0,-2.557,-2.5611,0.0,0.0,0.0,0.0,0.0,0.0,0.0,0.0,0.0,0.0,-2.5703,-2.5703,-2.5703,0.0,0.0,0.0,0.0,0.0,0.0,0.0,0.0,0.0,0.0,-2.5488,-2.5535,-2.5558,0.0,-2.5479,-2.5508,-2.5561,-2.5511,-2.5493,-2.5493,-2.5493,-2.5649,-2.5941,-2.6525,-2.7248,-2.8094,-2.8688,-2.9388,-3.014,-3.0166,-3.0353,-3.0606,-3.0606,-3.0775,-3.1067,-3.1364,-3.2357,-3.3757,-3.4759,-3.5303,-3.5562,-2.5379,0.0,0.0,0.0,0.0,0.0,0.0,0.0,0.0,0.0,-3.2851,0.0,-3.4668,0.0,-3.5386,0.0,-3.2762,-3.1694,-3.0728,-2.9406,0.0,-2.7722,-2.8306,0.0,0.0,0.0,0.0,0.0,0.0,-2.5428,0.0,0.0,0.0,0.0,0.0,0.0,-2.5532,0.0,-2.6335,0.0,0.0,-2.6345,0.0,0.0,-2.5796,0.0,0.0,-2.5603,-2.5561,-2.5561,-2.5561,-2.5554,-2.5498,-2.5457,-2.5471,-2.5434,-2.5453,-2.5451,-2.5451,-2.5473,0.0,0.0,-2.5561,0.0,-2.5629,0.0,0.0,0.0,0.0,0.0,0.0,0.0,0.0,-2.5703,-2.5703,-2.5703,0.0,-2.5703,0.0,0.0,0.0,0.0,0.0,0.0,-2.5659,-2.5547,-2.5587,-2.5601,0.0,0.0,-2.5564,-2.5634,-2.5598,-2.5567,-2.5567,-2.5567,-2.5723,-2.6035,-2.6289,-2.702,-2.8164,-2.8735,-2.9457,-3.0234,-3.0568,-3.0712,-3.0712,-3.0712,-3.0712,-3.0732,-3.1044,-3.2038,-3.339,-3.4329,-3.5046,-3.5562,0.0,0.0,0.0,0.0,-2.6158,0.0,0.0,0.0,-2.9961,0.0,-3.2519,-3.3867,-3.4785,-3.5491,-3.5568,-3.4726,-3.2975,0.0,-3.0776,-2.9868,0.0,0.0,-2.8479,-2.8145,-2.5452,0.0,0.0,0.0,0.0,0.0,0.0,0.0,0.0,0.0,-2.5398,0.0,-2.5484,-2.5484,-2.5484,-2.5484,-2.5484,-2.5517,-2.5556,-2.5498,0.0,-2.6673,-2.5814,-2.5508,-2.5503,-2.5503,-2.5508,-2.5473,-2.5415,-2.5406,-2.5383,-2.5322,-2.5357,-2.5398,-2.5391,-2.5441,-2.5484,-2.5484,0.0,0.0,0.0,0.0,-2.5493,0.0,0.0,0.0,0.0,0.0,0.0,-2.5683,-2.5683,-2.5683,-2.5683,0.0,0.0,0.0,0.0,0.0,0.0,-2.5703,-2.5662,-2.5605,-2.5603,0.0,0.0,0.0,0.0,-2.5703,-2.5703,-2.5703,-2.5703,-2.5703,-2.6113,-2.6934,-2.6133,-2.6598,-2.8157,-2.8298,-2.8786,-2.9567,-3.0486,-3.0898,-3.0898,-3.0898,-3.0898,-3.0976,-3.1816,-3.2656,-3.3376,-3.3218,-3.4152,-3.5509,-2.5438,-2.5832,-2.6265,0.0,-2.6002,-2.643,0.0,0.0,0.0,0.0,-3.4847,-3.5685,-3.7205,-3.6454,-3.5727,-3.5443,-3.3264,0.0,0.0,0.0,0.0,-2.7772,-2.8698,-2.8032,-2.5452,-2.6841,0.0,-2.5303,0.0,0.0,-2.5303,0.0,0.0,0.0,0.0,0.0,-2.5346,-2.5346,-2.5346,-2.5346,-2.5346,-2.5732,0.0,0.0,-2.5887,-2.6541,-2.5782,-2.5477,-2.5441,-2.5441,-2.5421,-2.5408,-2.5357,-2.534,-2.5312,-2.5313,-2.5313,-2.534,-2.5331,-2.5339,-2.5363,-2.5408,-2.5421,-2.5434,0.0,0.0,0.0,0.0,0.0,0.0,0.0,0.0,0.0,-2.5558,-2.5554,-2.5554,0.0,0.0,0.0,0.0,0.0,0.0,0.0,0.0,-2.5683,-2.5682,-2.5662,0.0,0.0,0.0,0.0,-2.5703,-2.5703,-2.5703,-2.5703,-2.5703,-2.5801,-2.6035,-2.6465,-2.6894,-2.7342,-2.8672,-2.9375,-2.9627,-3.0508,-3.0898,-3.0898,-3.0898,-3.0898,-3.0918,-3.1152,-3.2086,-3.347,-3.4705,-3.536,-3.5646,-2.5976,0.0,0.0,-2.8698,0.0,0.0,-2.9652,0.0,0.0,-3.4854,-3.5807,0.0,-3.7138,-3.6654,-3.5962,-3.5158,-3.34,0.0,0.0,0.0,0.0,-2.8019,-2.8019,-2.7217,-2.5393,-2.6275,0.0,-2.5696,0.0,0.0,-2.5677,0.0,0.0,0.0,0.0,-2.5303,0.0,-2.5303,-2.5514,-2.5851,-2.5437,0.0,0.0,-2.5495,-2.5591,-2.5986,-2.5557,-2.5383,-2.5365,-2.5365,-2.5354,-2.5346,-2.5313,-2.5303,-2.5303,-2.5303,-2.5303,-2.5303,-2.5303,-2.5303,-2.5303,-2.5337,-2.5354,-2.5371,-2.5394,-2.5401,-2.5401,0.0,0.0,0.0,0.0,0.0,0.0,0.0,0.0,0.0,0.0,0.0,0.0,0.0,0.0,0.0,0.0,0.0,0.0,0.0,0.0,0.0,0.0,0.0,0.0,-2.5703,-2.6445,-2.6465,-2.5703,-2.6465,-2.6445,-2.5703,-2.6191,-2.6426,-2.6484,-2.7832,-2.8672,-2.9082,-2.9941,-3.0547,-3.0898,-3.0898,-3.0898,-3.0976,-3.1719,-3.2557,-3.3543,-3.53,-3.5834,-3.571,0.0,0.0,0.0,0.0,0.0,0.0,0.0,-3.304,0.0,-3.4761,0.0,-3.6569,-3.5974,-3.629,-3.5949,-3.4429,0.0,-3.2449,-3.1756,-3.016,-2.8852,-2.7928,-2.7178,-2.6313,-2.5322,-2.5389,0.0,0.0,0.0,0.0,-2.6041,0.0,0.0,0.0,0.0,0.0,0.0,-2.5303,-2.5736,0.0,-2.5591,-2.5303,-2.5303,-2.5303,-2.5303,-2.5303,-2.5303,-2.5303,-2.5303,-2.5303,-2.5303,-2.5303,-2.5303,-2.5303,-2.5303,-2.5303,-2.5303,-2.5303,-2.5303,-2.5303,-2.5303,-2.5303,-2.5303,-2.5303,-2.5303,-2.5303,-2.5303,-2.5303,-2.5348,0.0,0.0,0.0,0.0,0.0,0.0,0.0,0.0,0.0,0.0,0.0,0.0,0.0,0.0,0.0,0.0,0.0,0.0,0.0,0.0,0.0,0.0,0.0,-2.7168,0.0,-2.6055,0.0,-2.7305,-2.6035,-2.5801,-2.5703,-2.5723,-2.6602,-2.7402,-2.8184,-2.918,-3.0039,-3.0742,-3.0859,-3.0898,-3.1074,-3.2754,-3.334,-3.3457,-3.5195,-3.5723,-3.5591,0.0,0.0,0.0,0.0,0.0,-3.4795,-3.4648,-3.4417,-3.475,-3.6138,-3.5984,0.0,-3.6485,-3.5419,-3.4539,-3.425,-3.2788,0.0,0.0,0.0,0.0,-2.7967,-2.7755,-2.6928,-2.5322,-2.5849,-2.5805,0.0,-2.5658,-2.5658,-2.5208,0.0,0.0,0.0,0.0,0.0,-2.5303,-2.5303,0.0,-2.5514,-2.536,-2.5303,-2.5303,-2.5303,-2.5303,-2.5303,-2.5303,-2.5303,-2.5303,-2.5303,-2.5303,-2.5303,-2.5303,-2.5303,-2.5303,-2.5303,-2.5303,-2.5303,-2.5303,-2.5303,-2.5303,-2.5303,-2.5303,-2.5303,-2.5303,-2.5303,-2.5303,-2.5303,-2.5303,-2.5322,-2.5322,0.0,0.0,0.0,0.0,0.0,0.0,0.0,0.0,0.0,0.0,0.0,0.0,0.0,0.0,0.0,0.0,0.0,0.0,0.0,0.0,0.0,0.0,0.0,0.0,0.0,0.0,-2.7832,-2.6387,-2.5703,-2.5723,-2.6602,-2.707,-2.7324,-2.8906,-2.9687,-2.9883,-3.0605,-3.0898,-3.1074,-3.2754,-3.2988,-3.2617,-3.4316,-3.4902,-3.4976,0.0,0.0,0.0,0.0,0.0,0.0,0.0,-3.6065,0.0,-3.6026,-3.6103,-3.5949,-3.5468,-3.468,-3.4007,-3.3564,-3.241,-3.1506,-3.1064,-3.0217,-2.9179,-2.7948,-2.7467,0.0,-2.5322,-2.552,-2.559,-2.5522,-2.5418,-2.5374,-2.5359,0.0,0.0,0.0,0.0,-2.5553,0.0,0.0,0.0,-2.6621,-2.6159,-2.5967,-2.5928,-2.5457,-2.5303,-2.5303,-2.5303,-2.5303,-2.5303,-2.5303,-2.5303,-2.5303,-2.5303,-2.5303,-2.5303,-2.5303,-2.5303,-2.5303,-2.5303,-2.5303,-2.5303,-2.5303,-2.5303,-2.5303,-2.5303,-2.5303,-2.5303,-2.5303,-2.5303,-2.5303,-2.5303,-2.5303,0.0,0.0,0.0,0.0,0.0,0.0,0.0,0.0,0.0,0.0,0.0,0.0,0.0,0.0,0.0,0.0,0.0,0.0,0.0,0.0,0.0,0.0,0.0,0.0,0.0,-2.6934,-2.6094,-2.5703,-2.5703,-2.6133,-2.6562,-2.7051,-2.7891,-2.8769,-2.9668,-3.0547,-3.0898,-3.1035,-3.2285,-3.2539,-3.2344,-3.3574,-3.4023,-3.4082,0.0,-3.6622,0.0,0.0,-3.743,0.0,0.0,-3.7546,-3.668,-3.5872,-3.6161,-3.5872,-3.4353,-3.4199,-3.3776,-3.2737,-3.2064,-3.1333,-3.0456,-2.9583,-2.8736,-2.7928,-2.7012,-2.6137,-2.5262,-2.5018,-2.5139,0.0,-2.5005,0.0,0.0,0.0,0.0,0.0,0.0,0.0,0.0,0.0,-2.6928,-2.7813,-2.6948,-2.6601,-2.6524,-2.5851,-2.5457,-2.5303,-2.5303,-2.5303,-2.5303,-2.5303,-2.5303,-2.5303,-2.5303,-2.5303,-2.5303,-2.5303,-2.5303,-2.5303,-2.5303,-2.5303,-2.5303,-2.5303,-2.5303,-2.5303,-2.5303,-2.5303,-2.5303,-2.5303,-2.5303,-2.5303,-2.5303,-2.5303,0.0,0.0,0.0,0.0,0.0,0.0,0.0,0.0,0.0,0.0,0.0,0.0,0.0,0.0,0.0,0.0,0.0,0.0,0.0,0.0,0.0,0.0,-2.6543,0.0,-2.7226,0.0,-2.5859,-2.5683,-2.5683,-2.5661,-2.6031,-2.6695,-2.6871,-2.7947,-2.9647,-3.0507,-3.0879,-3.0996,-3.1855,-3.209,-3.2031,-3.3047,-3.3281,-3.3164,0.0,0.0,0.0,0.0,0.0,0.0,0.0,-3.843,-3.7565,-3.6699,-3.6026,-3.5257,-3.4295,-3.4199,-3.3564,-3.1948,-3.1737,-3.1333,-3.0456,-2.9583,-2.8736,-2.7928,-2.6883,-2.5919,-2.5041,-2.4708,-2.458,0.0,0.0,0.0,0.0,0.0,0.0,0.0,0.0,0.0,0.0,-2.5774,-2.639,-2.7813,-2.6948,-2.6601,-2.6601,-2.6505,-2.5986,-2.5303,-2.5303,-2.5303,-2.5303,-2.5303,-2.5303,-2.5303,-2.5303,-2.5303,-2.5303,-2.5303,-2.5303,-2.5303,-2.5303,-2.5303,-2.5303,-2.5303,-2.5303,-2.5303,-2.5303,-2.5303,-2.5303,-2.5303,-2.5303,-2.5303,-2.5303,-2.5303,-2.5303,0.0,0.0,0.0,0.0,0.0,0.0,0.0,0.0,0.0,0.0,0.0,0.0,0.0,0.0,0.0,0.0,0.0,0.0,0.0,0.0,-2.7746,-2.9219,-2.6984,0.0,-2.8047,-2.6397,-2.5605,-2.5605,-2.5551,-2.5565,-2.5682,-2.6489,-2.7842,-2.9572,-3.0389,-3.0792,-3.0996,-3.1855,-3.1719,-3.1211,-3.2812,-3.2949,-3.2422,0.0,0.0,0.0,0.0,0.0,0.0,0.0,-3.7777,-3.7084,-3.6757,-3.643,-3.5911,-3.5064,-3.3944,-3.2972,-3.2302,-3.0729,-2.9836,-2.9973,-2.8751,-2.787,-2.7499,-2.6607,-2.573,-2.4896,-2.462,-2.4495,0.0,0.0,0.0,0.0,0.0,0.0,0.0,0.0,-2.6502,-2.6963,-2.711,-2.7566,-2.8132,-2.7295,-2.6953,-2.6839,-2.5882,-2.5347,-2.5099,-2.5024,-2.5049,-2.5118,-2.5024,-2.5126,-2.5303,-2.5303,-2.5303,-2.5303,-2.5303,-2.5303,-2.5303,-2.5303,-2.5303,-2.5303,-2.5303,-2.5303,-2.5303,-2.5303,-2.5303,-2.5303,-2.5303,-2.5303,-2.5264,-2.5152,-2.5111,-2.5088,0.0,0.0,0.0,0.0,0.0,0.0,0.0,0.0,0.0,0.0,0.0,0.0,0.0,0.0,0.0,0.0,0.0,0.0,-2.6851,0.0,-2.6665,-2.7908,-2.6852,-2.6677,-2.7381,-2.6677,-2.6314,-2.6314,-2.6291,-2.6568,-2.7112,-2.7935,-2.8715,-2.9459,-3.0297,-3.0661,-3.0758,-3.109,-3.1032,-3.0798,-3.1461,-3.1519,-3.1285,-4.0372,0.0,-3.9753,0.0,-3.875,-3.7613,-3.8492,-3.7584,-3.6903,-3.7132,-3.675,-3.6189,-3.5465,-3.3727,-3.2473,-3.2126,-3.0116,-2.9089,-2.9658,-2.8183,-2.7255,-2.7204,-2.6158,0.0,-2.4716,-2.4512,-2.441,-2.441,-2.4837,0.0,0.0,0.0,0.0,0.0,-2.6098,-2.6437,-2.7229,-2.7549,-2.798,-2.8374,-2.7525,-2.7204,-2.7053,-2.5691,-2.5059,-2.4943,-2.4828,-2.4869,-2.493,-2.4828,-2.4968,-2.516,-2.5203,-2.5214,-2.5214,-2.5214,-2.5214,-2.5203,-2.516,-2.5149,-2.516,-2.5203,-2.5214,-2.5214,-2.5214,-2.5214,-2.5203,-2.516,-2.5182,-2.5152,-2.4962,-2.4937,-2.4917,0.0,0.0,0.0,0.0,0.0,0.0,0.0,0.0,-2.5274,-2.5214,0.0,0.0,0.0,0.0,0.0,0.0,0.0,0.0,0.0,0.0,0.0,0.0,-2.6915,-2.6779,-2.6796,-2.7045,-2.7155,-2.7149,-2.7129,-2.7464,-2.8085,-2.888,-2.9252,-2.9337,-3.0218,-3.0581,-3.0606,-3.0606,-3.0606,-3.0625,-3.0898,-3.082,-3.0664,-4.0042,-4.0101,-4.0177,-4.0457,-3.954,-3.9071,-3.9948,-3.8395,-3.7385,-3.8181,-3.6898,-3.5702,-3.5147,-3.3614,-3.2162,-3.1015,-3.0167,-2.9677,-2.9696,-2.8129,-2.7204,0.0,0.0,-2.4512,-2.4512,-2.4303,-2.419,-2.419,0.0,0.0,-2.4246,0.0,-2.6218,-2.7156,-2.6355,-2.6465,-2.7148,-2.6362,-2.6997,-2.8426,-2.7544,-2.7204,-2.711,-2.6295,-2.5484,-2.4804,-2.4804,-2.4804,-2.4804,-2.4804,-2.4804,-2.4828,-2.4962,-2.4991,-2.4991,-2.4991,-2.4991,-2.4974,-2.4842,-2.4804,-2.4828,-2.4974,-2.4991,-2.4991,-2.4991,-2.4991,-2.4962,-2.4828,-2.4917,-2.4962,-2.4832,-2.4804,-2.4804,-2.4804,0.0,0.0,0.0,0.0,0.0,0.0,-2.5303,-2.5214,-2.5022,0.0,0.0,0.0,0.0,0.0,0.0,0.0,0.0,-2.8051,-2.7168,0.0,-2.8071,-2.7154,-2.672,-2.6815,-2.7605,-2.7984,-2.7984,-2.7913,-2.7901,-2.7958,-2.8747,-2.9139,-2.9268,-3.0139,-3.0545,-3.0606,-3.0606,-3.0606,-3.0703,-3.1565,-3.1351,-3.0859,-3.9754,-3.9754,-3.9797,-3.9863,-3.9098,-3.8539,-3.8823,-3.832,-3.8007,-3.8252,-3.737,-3.6575,-3.622,-3.421,-3.2497,0.0,-3.0116,-2.9228,0.0,-2.7173,-2.6209,-2.6764,-2.519,-2.4561,-2.5096,-2.5056,-2.5291,-2.5841,0.0,0.0,0.0,-2.6164,-2.6483,-2.6763,-2.6523,-2.6542,-2.6801,-2.7098,-2.7209,-2.7173,-2.6913,-2.6469,-2.5894,-2.5096,-2.4701,-2.4594,-2.4426,-2.4478,-2.4559,-2.4445,-2.4393,-2.4409,-2.4604,-2.4752,-2.485,-2.485,-2.485,-2.4855,-2.4818,-2.4804,-2.4818,-2.4855,-2.485,-2.485,-2.485,-2.485,-2.4855,-2.4818,-2.4828,-2.4814,-2.4623,-2.461,-2.4561,-2.4409,0.0,0.0,0.0,0.0,0.0,0.0,-2.4968,-2.4923,0.0,-2.4923,0.0,0.0,0.0,0.0,0.0,0.0,0.0,0.0,-2.6515,0.0,-2.8763,-2.7933,-2.7798,-2.8367,-2.8627,-2.8742,-2.8742,-2.872,-2.9044,-2.9621,-2.989,-2.999,-3.0034,-3.0323,-3.0441,-3.0462,-3.0462,-3.0462,-3.0501,-3.0781,-3.0704,-3.054,-3.9408,-3.9414,-3.9344,-3.9184,-3.8602,-3.8056,-3.7756,-3.7622,-3.7542,-3.7542,-3.7119,-3.6615,-3.6133,-3.4673,0.0,-3.1774,-3.0291,0.0,-2.9012,-2.731,-2.6521,-2.7034,-2.5511,-2.4887,-2.5403,0.0,0.0,-2.6153,-2.6153,-2.6153,-2.6153,-2.6153,-2.6319,-2.6594,-2.6282,-2.6153,-2.619,-2.7016,-2.7053,-2.6612,-2.6612,-2.63,-2.5731,-2.4612,-2.4266,-2.4375,-2.4247,-2.4284,-2.4375,-2.4247,-2.419,-2.4228,-2.4339,-2.4478,-2.4575,-2.467,-2.4685,-2.467,-2.461,-2.4559,-2.4591,-2.467,-2.4685,-2.4685,-2.4685,-2.4685,-2.467,-2.4591,-2.4639,-2.4623,-2.4409,-2.4393,-2.4358,-2.4228,0.0,-2.4409,0.0,0.0,0.0,0.0,0.0,0.0,0.0,-2.476,0.0,0.0,0.0,0.0,0.0,0.0,0.0,-2.7766,-2.6801,0.0,-2.9083,-2.8602,-2.8602,-2.9102,-2.9429,-2.9583,-2.9583,-2.9583,-2.989,-3.0398,-3.0398,-3.0398,-3.0398,-3.0398,-3.0398,-3.0398,-3.0398,-3.0398,-3.0398,-3.0398,-3.0398,-3.0398,-3.8934,-3.8997,0.0,0.0,-3.8053,0.0,-3.6856,-3.6528,-3.6376,-3.6376,-3.6285,-3.5899,-3.5082,-3.4935,-3.4009,-3.1678,0.0,0.0,0.0,-2.8338,-2.786,-2.7787,-2.63,0.0,-2.5568,-2.4832,-2.4814,-2.5568,-2.5513,-2.5513,-2.5568,-2.5513,-2.5897,-2.6649,-2.5897,-2.5513,-2.5458,-2.6264,-2.6539,-2.6447,-2.6502,-2.6484,-2.6282,-2.4777,-2.419,-2.419,-2.419,-2.419,-2.419,-2.419,-2.419,-2.419,-2.419,-2.419,-2.4247,-2.4409,-2.4478,-2.4426,-2.4266,-2.419,-2.4228,-2.4426,-2.4478,-2.4478,-2.4478,-2.4478,-2.4428,-2.4247,-2.4339,-2.4409,-2.4228,-2.419,-2.419,-2.419,-2.419,-2.4284,-2.4444,0.0,0.0,0.0,0.0,0.0,0.0,-2.4639,-2.4685,0.0,0.0,0.0,0.0,0.0,-2.785,-2.7599,-2.7773,-2.8302,-2.9179,-2.9121,-2.9121,-2.9198,-3.0006,-3.0398,-3.0398,-3.0398,-3.0398,-3.0398,-3.0398,-3.0398,-3.0367,-3.0398,-3.0398,-3.0367,-3.0398,-3.0398,-3.0398,-3.0398,-3.0398,-3.0398,0.0,0.0,-3.7634,-3.6906,-3.7239,-3.7532,-3.7329,-3.7272,-3.7202,-3.7202,-3.6101,-3.521,-3.5009,-3.4468,-3.3623,-3.243,-3.2155,-3.1439,-3.0008,-2.9163,-2.8448,-2.7824,-2.6851,-2.6594,-2.7218,-2.7034,-2.7034,-2.7218,-2.6612,-2.6631,-2.7218,-2.6594,-2.6741,-2.7512,-2.731,-2.6539,-2.5458,-2.6264,-2.5897,-2.4814,-2.5438,-2.5309,-2.4722,-2.4355,-2.419,-2.419,-2.419,-2.419,-2.419,-2.419,-2.419,-2.419,-2.419,-2.419,-2.4209,-2.4266,-2.4266,-2.4247,-2.4209,-2.419,-2.4209,-2.4266,-2.4266,-2.4266,-2.4266,-2.4266,-2.4266,-2.4209,-2.4247,-2.4266,-2.4209,-2.419,-2.419,-2.419,-2.419,-2.4209,-2.4247,-2.4266,0.0,0.0,-2.4339,-2.4303,-2.4284,-2.4321,-2.4393,0.0,0.0,0.0,0.0,0.0,-2.8137,-2.7618,-2.7593,-2.8396,-3.0083,-2.9429,-2.9429,-3.0102,-3.0302,-3.0398,-3.0398,-3.0398,-3.0398,-3.0398,-3.0398,-3.0279,-3.0103,-3.0311,-3.0267,-3.0122,-3.0311,-3.0398,-3.0398,-3.0398,-3.0398,-3.0398,-3.7643,-3.7507,-3.711,-3.5917,-3.6395,-3.667,-3.5917,-3.6119,-3.6358,-3.6358,-3.5569,-3.499,-3.499,-3.4605,-3.4027,-3.322,-3.2816,-3.1935,-3.032,-2.9787,-2.92,-2.8374,-2.7585,-2.7346,-2.7787,-2.7438,-2.7071,-2.6686,-2.6998,-2.6998,-2.6704,-2.7016,-2.7181,-2.7273,-2.764,-2.6906,-2.5458,-2.6264,-2.5878,-2.4777,-2.5219,-2.5146,-2.4704,-2.4337,-2.419,-2.419,-2.419,-2.419,-2.419,-2.419,-2.419,-2.419,-2.419,-2.419,-2.417,-2.4016,-2.4074,-2.419,-2.419,-2.419,-2.419,-2.419,-2.419,-2.419,-2.419,-2.419,-2.419,-2.419,-2.419,-2.419,-2.419,-2.419,-2.419,-2.419,-2.419,-2.419,-2.419,-2.419,0.0,-2.419,-2.419,-2.419,-2.419,-2.419,-2.4394,-2.4894,0.0,0.0,-2.6114,-2.7791,-2.8446,-2.784,-2.8278,-2.906,-3.0209,-2.9749,-2.9691,-3.0085,-3.0169,-3.0169,-3.0099,-3.0299,-3.0286,-3.0099,-3.0182,-3.0095,-2.9877,-3.0022,-2.9988,-2.9877,-3.0022,-3.0085,-3.0099,-3.0182,-3.0209,-3.0222,-3.7643,-3.7386,-3.6872,-3.5459,-3.5807,-3.5862,-3.4559,-3.4853,-3.5192,-3.5192,-3.4972,-3.4807,-3.4807,-3.4761,-3.4486,-3.3862,-3.3111,-3.2023,-3.0485,-3.0265,-2.9843,-2.903,-2.8356,-2.797,-2.797,-2.731,-2.6631,-2.5933,-2.7181,-2.7145,-2.5952,-2.7218,-2.7493,-2.6998,-2.7548,-2.7034,-2.5807,-2.6355,-2.6209,-2.5586,-2.5458,-2.5403,-2.5311,-2.4502,-2.419,-2.419,-2.419,-2.419,-2.419,-2.419,-2.419,-2.419,-2.419,-2.419,-2.4113,-2.3795,-2.3896,-2.4113,-2.4113,-2.417,-2.419,-2.419,-2.419,-2.419,-2.419,-2.419,-2.419,-2.419,-2.419,-2.419,-2.419,-2.419,-2.4245,-2.4355,-2.4281,-2.4245,-2.4355,0.0,-2.419,-2.419,-2.43,-2.4373,-2.4373,-2.4483,-2.485,-2.5531,-2.6209,0.0,0.0,-2.8081,-2.8651,-2.8254,-2.9158,-2.9746,-2.9954,-2.9954,-2.9877,-2.9713,-2.9877,-2.9861,-2.9713,-3.0114,-3.0085,-2.9713,-2.9877,-2.9845,-2.9661,-2.9696,-2.9678,-2.9661,-2.9696,-2.9696,-2.9712,-2.9924,-2.9984,-2.9965,-3.7643,-3.6945,-3.6395,-3.6138,-3.6211,-3.6431,-3.6853,-3.645,-3.6101,-3.6101,-3.4871,-3.399,-3.399,-3.3676,-3.3564,-3.378,-3.3385,-3.2565,-3.1311,-3.0577,-2.9843,-2.903,-2.8865,-2.8815,-2.8815,-2.8682,-2.8576,-2.8448,-2.8007,-2.8026,-2.8448,-2.8007,-2.8099,-2.859,-2.8044,-2.7658,-2.7383,-2.6833,-2.6539,-2.6355,-2.5658,-2.5403,-2.5311,-2.4502,-2.419,-2.419,-2.419,-2.419,-2.419,-2.419,-2.419,-2.419,-2.419,-2.419,-2.4113,-2.3795,-2.3753,-2.3774,-2.3774,-2.3996,-2.419,-2.419,-2.419,-2.419,-2.419,-2.419,-2.419,-2.419,-2.419,-2.419,-2.419,-2.419,-2.441,-2.5109,-2.463,-2.4428,-2.5127,0.0,-2.419,-2.419,-2.4795,-2.5219,-2.5219,-2.5823,-2.6282,-2.641,-2.6539,-2.6906,-2.7585,-2.7842,-2.825,-2.8823,-2.9256,-2.9533,-2.9729,-2.9748,-2.9731,-2.9696,-2.9731,-2.9731,-2.9713,-2.9782,-2.9765,-2.9713,-2.9729,-2.9625,-2.9474,-2.9644,-2.9607,-2.9474,-2.9625,-2.9696,-2.9712,-2.9924,-2.9893,-2.9685,-3.7643,-3.7184,-3.6798,-3.6376,-3.6652,-3.6762,-3.6229,-3.6248,-3.6062,-3.5381,-3.424,-3.3553,-3.3743,-3.3185,-3.2903,-3.3087,-3.254,-3.1853,-3.1147,-3.0936,-3.0283,-2.9049,-2.8994,-2.8905,-2.8682,-2.8905,-2.8686,-2.8027,-2.8301,-2.8411,-2.8356,-2.8429,-2.865,-2.8975,-2.8613,-2.8209,-2.7769,-2.7402,-2.6637,-2.5645,-2.5284,-2.4762,-2.418,-2.4003,-2.3917,-2.3937,-2.4151,-2.419,-2.419,-2.419,-2.419,-2.419,-2.419,-2.4074,-2.3858,-2.3522,-2.3414,-2.3459,-2.3649,-2.3816,-2.3976,-2.4151,-2.419,-2.419,-2.419,-2.4074,-2.3917,-2.3917,-2.3795,-2.3671,-2.3671,-2.3671,-2.3779,-2.414,-2.3905,0.0,0.0,-2.4556,-2.4572,-2.4529,-2.5427,-2.5962,-2.5736,-2.6249,-2.6778,-2.7218,-2.7255,-2.7603,-2.8411,-2.8448,-2.8631,-2.8975,-2.9246,-2.9373,-2.9316,-2.9474,-2.9474,-2.9316,-2.9474,-2.9456,-2.9316,-2.9588,-2.9551,-2.9334,-2.9494,-2.9395,-2.9181,-2.9272,-2.927,-2.9181,-2.9272,-2.9316,-2.9336,-2.9588,-2.9306,-2.8819,-3.7692,-3.7449,-3.7211,-3.6897,-3.7202,-3.7081,-3.5864,-3.5937,-3.5745,-3.4655,-3.3656,-3.3136,-3.3399,-3.2753,-3.2384,-3.2484,-3.1837,-3.1278,-3.0944,-3.1202,-3.0633,-2.8936,-2.8791,-2.8583,-2.829,-2.8583,-2.8275,-2.7374,-2.8275,-2.8415,-2.7856,-2.8452,-2.8743,-2.8743,-2.8543,-2.8215,-2.782,-2.7614,-2.6807,-2.5578,-2.5398,-2.4682,-2.3726,-2.3799,-2.3728,-2.3628,-2.3876,-2.3976,-2.3976,-2.3976,-2.3976,-2.3976,-2.3976,-2.3795,-2.3522,-2.3165,-2.3038,-2.3063,-2.3369,-2.3522,-2.3649,-2.3896,-2.3976,-2.3976,-2.3976,-2.3774,-2.3588,-2.3588,-2.3392,-2.3189,-2.3189,-2.3189,-2.3259,-2.346,0.0,0.0,0.0,-2.4662,-2.5015,-2.4968,-2.5963,-2.6499,-2.6182,-2.6597,-2.7159,-2.7783,-2.782,-2.8135,-2.8827,-2.8863,-2.8978,-2.9269,-2.9292,-2.9203,-2.9017,-2.9203,-2.9203,-2.9017,-2.9203,-2.92,-2.8998,-2.9377,-2.9336,-2.9017,-2.9203,-2.9181,-2.8994,-2.8994,-2.8994,-2.8994,-2.8994,-2.8994,-2.9003,-2.9068,-2.8628,-2.8014,-3.7805,-3.7277,-3.7138,-3.8334,-3.7955,-3.754,-3.767,-3.6515,-3.5447,-3.487,-3.3472,-3.2568,-3.2606,-3.2127,-3.2039,-3.2451,-3.2039,-3.162,-3.1282,-3.1292,-3.0446,-2.8528,-2.8147,-2.7982,-2.7954,-2.7982,-2.7946,-2.7865,-2.7946,-2.7946,-2.7893,-2.7946,-2.7982,-2.7946,-2.7209,-2.7262,-2.784,-2.7102,-2.7128,-2.7607,-2.6871,-2.6074,-2.526,-2.4527,-2.3826,-2.3236,-2.3259,-2.3259,-2.3259,-2.3259,-2.3259,-2.3259,-2.3259,-2.3277,-2.3165,-2.2848,-2.2563,-2.2443,-2.2686,-2.2996,-2.3236,-2.3259,-2.3259,-2.3259,-2.3259,-2.3236,-2.3253,-2.3253,-2.323,-2.3189,-2.3189,-2.3189,-2.3436,-2.4187,0.0,0.0,-2.5268,-2.5419,-2.5438,-2.5438,-2.618,-2.6676,-2.6631,-2.7341,-2.784,-2.7893,-2.7893,-2.8049,-2.842,-2.8446,-2.896,-3.0075,-2.9402,-2.9017,-2.8994,-2.9017,-2.9017,-2.8994,-2.9017,-2.9017,-2.8994,-2.904,-2.9021,-2.8994,-2.9017,-2.9017,-2.8994,-2.8994,-2.8994,-2.8994,-2.8994,-2.8994,-2.8929,-2.8381,-2.8044,-2.7635,-3.7433,-3.7238,-3.7167,-3.7667,-3.7504,-3.7147,-3.6738,-3.6167,-3.5261,-3.3859,-3.3157,-3.2525,-3.1783,-3.1545,-3.1524,-3.1694,-3.1507,-3.1293,-3.0889,-3.0231,-2.9532,-2.8813,-2.8202,-2.7765,-2.753,-2.7783,-2.7783,-2.753,-2.7783,-2.7897,-2.7897,-2.7897,-2.7897,-2.788,-2.7596,-2.7614,-2.788,-2.7579,-2.7208,-2.6813,-2.6504,-2.5518,-2.4178,-2.4076,-2.3571,-2.2923,-2.3117,-2.3189,-2.3189,-2.3189,-2.3189,-2.3189,-2.3189,-2.3069,-2.2822,-2.2554,-2.2388,-2.2321,-2.2426,-2.2652,-2.2947,-2.3141,-2.3189,-2.3189,-2.3189,-2.3045,-2.2898,-2.2898,-2.2755,-2.2634,-2.2634,-2.2634,-2.2892,-2.366,0.0,-2.4067,-2.5063,-2.5631,-2.5917,-2.5889,-2.6782,-2.7342,-2.711,-2.7578,-2.7897,-2.7897,-2.7897,-2.7954,-2.8075,-2.8102,-2.8514,-2.9412,-2.8721,-2.8768,-2.9727,-2.9503,-2.9503,-2.9751,-2.923,-2.9377,-3.0096,-2.9606,-2.937,-2.9377,-2.9101,-2.8863,-2.8633,-2.8633,-2.8243,-2.7695,-2.8359,-2.804,-2.725,-2.7724,-2.7232,-2.6229,-3.6921,-3.696,-3.6981,-3.7173,-3.719,-3.6958,-3.6166,-3.5867,-3.5168,-3.3675,-3.3085,-3.2449,-3.1636,-3.1326,-3.119,-3.119,-3.119,-3.1053,-3.0827,-2.9887,-2.904,-2.8307,-2.7779,-2.7378,-2.7115,-2.7378,-2.7378,-2.7115,-2.7378,-2.753,-2.753,-2.753,-2.753,-2.753,-2.753,-2.753,-2.753,-2.753,-2.7052,-2.6341,-2.61,-2.5107,-2.3744,-2.375,-2.3251,-2.2599,-2.2832,-2.2908,-2.2908,-2.2908,-2.2908,-2.2908,-2.2908,-2.2755,-2.2537,-2.2332,-2.231,-2.231,-2.231,-2.2409,-2.2625,-2.2857,-2.3082,-2.3187,-2.296,-2.2903,-2.2934,-2.2934,-2.2579,-2.2446,-2.2919,-2.2801,-2.2885,-2.3613,-2.3934,-2.4347,-2.5065,-2.5846,-2.6327,-2.6296,-2.7022,-2.7409,-2.7147,-2.7348,-2.753,-2.753,-2.753,-2.756,-2.7707,-2.807,-2.8499,-2.9012,-2.8995,-2.9255,-2.9857,-2.9332,-2.9332,-2.9831,-2.9262,-2.9431,-3.0216,-2.9661,-2.9285,-2.9044,-2.8768,-2.8507,-2.8237,-2.8237,-2.7826,-2.7226,-2.796,-2.7456,-2.6375,-2.6897,-2.6308,-2.5186,-3.6308,-3.6374,-3.658,-3.7097,-3.719,-3.6999,-3.6457,-3.5775,-3.5128,-3.4575,-3.3203,-3.233,-3.2313,-3.163,-3.119,-3.119,-3.119,-3.119,-3.119,-3.0514,-2.9093,-2.681,-2.6708,-2.6708,-2.6691,-2.6691,-2.6691,-2.6691,-2.6691,-2.6691,-2.6691,-2.6691,-2.6691,-2.6691,-2.6691,-2.6691,-2.6691,-2.6691,-2.6691,-2.664,-2.5913,-2.5152,-2.4438,-2.368,-2.2953,-2.231,-2.231,-2.231,-2.231,-2.231,-2.231,-2.231,-2.231,-2.231,-2.231,-2.231,-2.231,-2.231,-2.231,-2.231,-2.231,-2.231,-2.2852,-2.319,-2.2496,-2.2885,-2.3393,-2.341,-2.2835,-2.2767,-2.4235,-2.3883,-2.3646,-2.4404,-2.5118,-2.5609,-2.5609,-2.6234,-2.6691,-2.6691,-2.6691,-2.6691,-2.6691,-2.6691,-2.6691,-2.6691,-2.6691,-2.6873,-2.7272,-2.8386,-2.903,-2.9124,-3.0535,-3.0588,-2.9124,-2.8315,-2.8287,-2.9001,-2.9001,-2.9001,-2.9001,-2.9001,-2.8594,-2.7897,-2.7897,-2.7897,-2.7897,-2.7897,-2.7897,-2.788,-2.7897,-2.7419,-2.6667,-2.5808,-2.5229,-2.473,-3.5827,-3.5854,-3.5898,-3.6054,-3.6097,-3.6011,-3.5854,-3.5667,-3.5256,-3.46,-3.366,-3.2865,-3.2341,-3.163,-3.119,-3.119,-3.119,-3.097,-3.0463,-3.0226,-2.933,-2.7571,-2.7486,-2.7232,-2.6708,-2.6691,-2.6691,-2.6691,-2.6691,-2.6691,-2.6691,-2.6691,-2.6691,-2.6691,-2.6691,-2.6691,-2.6691,-2.6691,-2.6691,-2.6674,-2.6454,-2.5609,-2.4489,-2.4269,-2.3393,-2.231,-2.231,-2.231,-2.231,-2.231,-2.231,-2.231,-2.231,-2.231,-2.231,-2.231,-2.231,-2.231,-2.231,-2.231,-2.2429,-2.2936,-2.2852,-2.2852,-2.3646,-2.3613,-2.3545,-2.4083,-2.3985,-2.3968,-2.4438,-2.4337,-2.4408,-2.5152,-2.5456,-2.5795,-2.6302,-2.6556,-2.6691,-2.6691,-2.6691,-2.6691,-2.6691,-2.6691,-2.6691,-2.6691,-2.6691,-2.6995,-2.7607,-2.7963,-2.8648,-2.978,-2.9729,-2.9729,-2.9814,-2.9311,-2.9074,-2.906,-2.8462,-2.8608,-2.9388,-2.8833,-2.8467,-2.8223,-2.8012,-2.7754,-2.747,-2.747,-2.7022,-2.6361,-2.7187,-2.6371,-2.4811,-2.5323,-2.475,-2.3738,-3.5622,-3.5622,-3.5622,-3.5622,-3.5622,-3.5622,-3.5622,-3.5622,-3.5351,-3.459,-3.4117,-3.344,-3.2391,-3.1884,-3.1512,-3.1224,-3.119,-3.0886,-3.0159,-3.0378,-2.9736,-2.7857,-2.8112,-2.7774,-2.6708,-2.6691,-2.6691,-2.6691,-2.6691,-2.6691,-2.6691,-2.6404,-2.642,-2.6674,-2.6387,-2.642,-2.6691,-2.6691,-2.6691,-2.664,-2.6048,-2.5319,-2.4455,-2.3849,-2.3071,-2.231,-2.231,-2.231,-2.231,-2.231,-2.231,-2.231,-2.231,-2.231,-2.231,-2.231,-2.2513,-2.275,-2.275,-2.2953,-2.3313,-2.3838,-2.3577,-2.3393,-2.432,-2.4374,-2.4391,-2.4831,-2.4678,-2.4692,-2.5253,-2.5118,-2.5169,-2.593,-2.6048,-2.6184,-2.664,-2.6691,-2.6624,-2.6436,-2.6842,-2.7062,-2.6889,-2.7297,-2.7604,-2.7604,-2.7604,-2.7791,-2.8247,-2.8569,-2.9008,-2.9634,-2.9786,-2.9786,-2.9668,-2.974,-2.9713,-2.9462,-2.8357,-2.8337,-2.9334,-2.8544,-2.7996,-2.772,-2.7525,-2.7303,-2.7051,-2.7051,-2.665,-2.6081,-2.6475,-2.5609,-2.4196,-2.4524,-2.3964,-2.3042,-3.5622,-3.5622,-3.5622,-3.5622,-3.5622,-3.5622,-3.5622,-3.5622,-3.5368,-3.4692,-3.4539,-3.3947,-3.2527,-3.2324,-3.1985,-3.1258,-3.119,-3.0903,-3.0243,-3.0835,-3.0209,-2.7992,-2.8602,-2.8264,-2.6725,-2.6691,-2.6691,-2.6691,-2.6691,-2.6691,-2.6674,-2.6015,-2.6065,-2.6657,-2.5998,-2.6065,-2.6691,-2.6691,-2.6691,-2.6573,-2.522,-2.4625,-2.4371,-2.3004,-2.2412,-2.231,-2.231,-2.2265,-2.2237,-2.2209,-2.2209,-2.2237,-2.2237,-2.2237,-2.2254,-2.2367,-2.284,-2.3334,-2.3401,-2.3877,-2.4424,-2.4676,-2.4614,-2.4483,-2.4599,-2.5088,-2.5561,-2.5611,-2.5088,-2.5021,-2.6337,-2.6,-2.5782,-2.6472,-2.659,-2.659,-2.659,-2.664,-2.6502,-2.6059,-2.7047,-2.757,-2.7163,-2.8206,-2.8938,-2.8938,-2.8975,-2.9008,-2.9076,-2.9736,-2.982,-2.9194,-3.0497,-3.0548,-2.9141,-2.9749,-3.004,-2.9888,-2.8516,-2.823,-2.8755,-2.8112,-2.7402,-2.6691,-2.6691,-2.6691,-2.6691,-2.6691,-2.6657,-2.6522,-2.5862,-2.5069,-2.4259,-2.363,-2.3039,-2.2512,-3.5622,-3.5622,-3.5622,-3.5622,-3.5622,-3.5622,-3.5622,-3.5622,-3.5554,-3.5402,-3.4861,-3.415,-3.3254,-3.2645,-3.1985,-3.1258,-3.119,-3.1123,-3.097,-3.1106,-3.0446,-2.8805,-2.889,-2.8264,-2.6725,-2.6691,-2.6691,-2.6691,-2.6691,-2.6691,-2.6691,-2.6539,-2.6539,-2.6691,-2.6522,-2.6539,-2.6691,-2.6691,-2.6691,-2.6657,-2.6336,-2.5524,-2.4472,-2.412,-2.3308,-2.231,-2.231,-2.2061,-2.1688,-2.1385,-2.1477,-2.1748,-2.1748,-2.1748,-2.194,-2.2883,-2.2986,-2.2894,-2.3488,-2.3471,-2.3455,-2.4092,-2.4213,-2.4441,-2.5438,-2.5309,-2.516,-2.5791,-2.5791,-2.5653,-2.5533,-2.5394,-2.5345,-2.5491,-2.5524,-2.5524,-2.5524,-2.5988,-2.6267,-2.6165,-2.6856,-2.7292,-2.7169,-2.7856,-2.8323,-2.8323,-2.8736,-2.9245,-2.9837,-3.0023,-3.0294,-3.07,-3.1021,-3.0824,-3.0013,-3.0046,-2.9499,-2.8315,-2.8602,-2.8197,-2.7199,-2.7638,-2.7402,-2.6691,-2.6691,-2.6691,-2.6691,-2.6691,-2.6353,-2.5828,-2.5659,-2.4574,-2.3133,-2.3308,-2.2545,-2.1413,-3.5622,-3.5622,-3.5622,-3.5622,-3.5622,-3.5622,-3.5622,-3.5622,-3.5487,-3.5131,-3.5064,-3.4489,-3.3034,-3.2606,-3.1824,-3.0476,-3.0335,-3.0335,-3.0335,-3.0021,-2.9369,-2.8223,-2.7883,-2.7172,-2.5997,-2.6245,-2.647,-2.6691,-2.6691,-2.6691,-2.6691,-2.6336,-2.6353,-2.6674,-2.6336,-2.637,-2.6691,-2.6691,-2.6691,-2.6657,-2.6319,-2.549,-2.4441,-2.3869,-2.2939,-2.1928,-2.1751,-2.1737,-2.1697,-2.1167,-2.1344,-2.1729,-2.142,-2.1306,-2.1515,-2.2439,-2.2785,-2.301,-2.3708,-2.3983,-2.4079,-2.4216,-2.4256,-2.4544,-2.5733,-2.5468,-2.5179,-2.5842,-2.5815,-2.5637,-2.5686,-2.5671,-2.5767,-2.6102,-2.615,-2.615,-2.615,-2.6445,-2.656,-2.6309,-2.7121,-2.7849,-2.82,-2.8533,-2.8702,-2.8702,-2.8993,-2.9337,-2.9733,-2.9749,-2.9955,-3.0335,-3.0335,-3.0208,-2.9848,-2.9805,-2.931,-2.8469,-2.8831,-2.8569,-2.7791,-2.7807,-2.7402,-2.6691,-2.647,-2.6367,-2.6333,-2.5758,-2.5273,-2.4876,-2.4182,-2.3325,-2.241,-2.2289,-2.1742,-2.1023,-3.5577,-3.5622,-3.556,-3.547,-3.5424,-3.5362,-3.527,-3.527,-3.5052,-3.4415,-3.4767,-3.4331,-3.2396,-3.205,-3.1283,-2.9547,-2.9406,-2.9406,-2.9406,-2.8794,-2.8073,-2.7326,-2.6663,-2.5942,-2.5237,-2.5652,-2.6104,-2.659,-2.6657,-2.6691,-2.6674,-2.6065,-2.6083,-2.6556,-2.5949,-2.595,-2.6419,-2.6419,-2.6419,-2.6386,-2.5782,-2.5095,-2.4325,-2.3324,-2.2474,-2.1805,-2.1456,-2.163,-2.1915,-2.132,-2.1383,-2.1657,-2.1339,-2.1132,-2.1229,-2.2091,-2.2725,-2.3294,-2.3957,-2.4522,-2.4863,-2.4503,-2.4359,-2.4574,-2.581,-2.5551,-2.5214,-2.5777,-2.5529,-2.5425,-2.5993,-2.6078,-2.6267,-2.6851,-2.6945,-2.6945,-2.6945,-2.704,-2.6945,-2.6472,-2.7451,-2.8439,-2.9025,-2.918,-2.9225,-2.9225,-2.9361,-2.9406,-2.9406,-2.9406,-2.9406,-2.9406,-2.9406,-2.9361,-2.9225,-2.9361,-2.9279,-2.9081,-2.9087,-2.8971,-2.8831,-2.819,-2.7412,-2.6586,-2.6082,-2.5852,-2.5786,-2.4652,-2.4136,-2.3895,-2.2595,-2.1968,-2.1692,-2.1036,-2.0862,-2.0991,-3.547,-3.5622,-3.5424,-3.4847,-3.4736,-3.4528,-3.3937,-3.3887,-3.3855,-3.3707,-3.329,-3.2628,-3.1707,-3.0534,-2.9704,-2.9422,-2.9406,-2.9406,-2.9406,-2.8762,-2.8057,-2.7326,-2.6663,-2.5942,-2.5237,-2.5259,-2.5577,-2.6068,-2.6505,-2.6691,-2.6691,-2.659,-2.6386,-2.6068,-2.5969,-2.5753,-2.5395,-2.5395,-2.5395,-2.5395,-2.5298,-2.4809,-2.4144,-2.3975,-2.3439,-2.2812,-2.2741,-2.2442,-2.1956,-2.1675,-2.1109,-2.0724,-2.1792,-2.1729,-2.1588,-2.329,-2.3563,-2.3452,-2.416,-2.4081,-2.3945,-2.4461,-2.4116,-2.4182,-2.5951,-2.5383,-2.4683,-2.5347,-2.543,-2.5435,-2.5652,-2.5681,-2.5727,-2.5802,-2.5832,-2.5832,-2.5832,-2.6316,-2.663,-2.6597,-2.7218,-2.7739,-2.7845,-2.8319,-2.8606,-2.8606,-2.9104,-2.9406,-2.9406,-2.9406,-2.9406,-2.9406,-2.9406,-2.9134,-2.8654,-2.9134,-2.9132,-2.8592,-2.9122,-2.8965,-2.8229,-2.8152,-2.7459,-2.6253,-2.5571,-2.5297,-2.5249,-2.4505,-2.3827,-2.3167,-2.2403,-2.148,-2.0472,-2.0045,-2.0345,-2.0926,-3.4399,-3.4496,-3.4399,-3.4087,-3.4037,-3.3937,-3.3633,-3.3582,-3.3582,-3.3582,-3.3361,-3.2862,-3.2158,-3.0513,-2.9186,-2.8479,-2.84,-2.84,-2.84,-2.7751,-2.7242,-2.6903,-2.5929,-2.5219,-2.4868,-2.4795,-2.4855,-2.5105,-2.5635,-2.5855,-2.5855,-2.5855,-2.5746,-2.5561,-2.5561,-2.5411,-2.5221,-2.5221,-2.5221,-2.5221,-2.5221,-2.4766,-2.4084,-2.3806,-2.323,-2.2592,-2.2331,-2.2317,-2.2263,-2.1431,-2.137,-2.1599,-2.1463,-2.1463,-2.1782,-2.2939,-2.3151,-2.3102,-2.3781,-2.4038,-2.4253,-2.4507,-2.4672,-2.4912,-2.5773,-2.5485,-2.5224,-2.5839,-2.5724,-2.5621,-2.6081,-2.6153,-2.6273,-2.6647,-2.6707,-2.6707,-2.6707,-2.6961,-2.7141,-2.7141,-2.7395,-2.7625,-2.7625,-2.786,-2.7993,-2.7993,-2.8255,-2.84,-2.84,-2.84,-2.84,-2.84,-2.84,-2.8271,-2.7993,-2.8271,-2.8448,-2.8511,-2.8779,-2.845,-2.7624,-2.7664,-2.6945,-2.5607,-2.4997,-2.4736,-2.4689,-2.3756,-2.3165,-2.2755,-2.1728,-2.0773,-1.9929,-1.9782,-1.9945,-2.0243]},{"header":{"parameterUnit":"m.s-1","parameterCategory":1,"la1":30.6,"la2":28.766,"lo1":-90.7593,"lo2":-88.6598,"dy":0.0162,"dx":0.0183,"nx":116,"ny":114,"refTime":"2023-06-30T12:00:00:Z","depth":0,"parameterNumber":3,"parameterNumberName":"V-component_of_WINDS"},"data":[0.0,0.0,0.0,0.0,0.0,0.0,0.0,0.0,0.0,0.0,0.0,0.0,0.0,0.0,0.0,0.0,0.0,0.0,0.0,0.0,0.0,0.0,0.0,0.0,0.0,0.0,0.0,0.0,0.0,0.0,0.0,0.0,0.0,0.0,0.0,0.0,0.0,0.0,0.0,0.0,0.0,0.0,0.0,0.0,0.0,0.0,0.0,0.0,0.0,0.0,0.0,0.0,0.0,0.0,0.0,0.0,0.0,0.0,0.0,0.0,0.0,0.0,0.0,0.0,0.0,0.0,0.0,0.0,0.0,0.0,0.0,0.0,0.0,0.0,0.0,0.0,0.0,0.0,0.0,0.0,0.0,0.0,0.0,0.0,0.0,0.0,0.0,0.0,0.0,0.0,0.0,0.0,0.0,0.0,0.0,0.0,0.0,0.0,0.0,0.0,0.0,0.0,0.0,0.0,0.0,0.0,0.0,0.0,0.0,0.0,0.0,0.0,0.0,0.0,0.0,0.0,0.0,0.0,0.0,0.0,0.0,0.0,0.0,0.0,0.0,0.0,0.0,0.0,0.0,0.0,0.0,0.0,0.0,0.0,0.0,0.0,0.0,0.0,0.0,0.0,0.0,0.0,0.0,0.0,0.0,0.0,0.0,0.0,0.0,0.0,0.0,0.0,0.0,0.0,0.0,0.0,0.0,0.0,0.0,0.0,0.0,0.0,0.0,0.0,0.0,0.0,0.0,0.0,0.0,0.0,0.0,0.0,0.0,0.0,0.0,0.0,0.0,0.0,0.0,0.0,0.0,0.0,0.0,0.0,0.0,0.0,0.0,0.0,0.0,0.0,0.0,0.0,0.0,0.0,0.0,0.0,0.0,0.0,0.0,0.0,0.0,0.0,0.0,0.0,0.0,0.0,0.0,0.0,0.0,0.0,0.0,0.0,0.0,0.0,0.0,0.0,0.0,0.0,0.0,0.0,0.0,0.0,0.0,0.0,0.0,0.0,0.0,0.0,0.0,0.0,0.0,0.0,0.0,0.0,0.0,0.0,0.0,0.0,0.0,0.0,0.0,0.0,0.0,0.0,0.0,0.0,0.0,0.0,0.0,0.0,0.0,0.0,0.0,0.0,0.0,0.0,0.0,0.0,0.0,0.0,0.0,0.0,0.0,0.0,0.0,0.0,0.0,0.0,0.0,0.0,0.0,0.0,0.0,0.0,0.0,0.0,0.0,0.0,0.0,0.0,0.0,0.0,0.0,0.0,0.0,0.0,0.0,0.0,0.0,0.0,0.0,0.0,0.0,0.0,0.0,0.0,0.0,0.0,0.0,0.0,0.0,0.0,0.0,0.0,0.0,0.0,0.0,0.0,0.0,0.0,0.0,0.0,0.0,0.0,0.0,0.0,0.0,0.0,0.0,0.0,0.0,0.0,0.0,0.0,0.0,0.0,0.0,0.0,0.0,0.0,0.0,0.0,0.0,0.0,0.0,0.0,0.0,0.0,0.0,0.0,0.0,0.0,0.0,0.0,0.0,0.0,0.0,0.0,0.0,0.0,0.0,0.0,0.0,0.0,0.0,0.0,0.0,0.0,0.0,0.0,0.0,0.0,0.0,0.0,0.0,0.0,0.0,0.0,0.0,0.0,0.0,0.0,0.0,0.0,0.0,0.0,0.0,0.0,0.0,0.0,0.0,0.0,0.0,0.0,0.0,0.0,0.0,0.0,0.0,0.0,0.0,0.0,0.0,0.0,0.0,0.0,0.0,0.0,0.0,0.0,0.0,0.0,0.0,0.0,0.0,0.0,0.0,0.0,0.0,0.0,0.0,0.0,0.0,0.0,0.0,0.0,0.0,0.0,0.0,0.0,0.0,0.0,0.0,0.0,0.0,0.0,0.0,0.0,0.0,0.0,0.0,0.0,0.0,0.0,0.0,0.0,0.0,0.0,0.0,0.0,0.0,0.0,0.0,0.0,0.0,0.0,0.0,0.0,0.0,0.0,0.0,0.0,0.0,0.0,0.0,0.0,0.0,0.0,0.0,0.0,0.0,0.0,0.0,0.0,0.0,0.0,0.0,0.0,0.0,0.0,0.0,0.0,0.0,0.0,0.0,0.0,0.0,0.0,0.0,0.0,0.0,0.0,0.0,0.0,0.0,0.0,0.0,0.0,0.0,0.0,0.0,0.0,0.0,0.0,0.0,0.0,0.0,0.0,0.0,0.0,0.0,0.0,0.0,0.0,0.0,0.0,0.0,0.0,0.0,0.0,0.0,0.0,0.0,0.0,0.0,0.0,0.0,0.0,0.0,0.0,0.0,0.0,0.0,0.0,0.0,0.0,0.0,0.0,0.0,0.0,0.0,0.0,0.0,0.0,0.0,0.0,0.0,0.0,0.0,0.0,0.0,0.0,0.0,0.0,0.0,0.0,0.0,0.0,0.0,0.0,0.0,0.0,0.0,0.0,0.0,0.0,0.0,0.0,0.0,0.0,0.0,0.0,0.0,0.0,0.0,0.0,0.0,0.0,0.0,0.0,0.0,0.0,0.0,0.0,0.0,0.0,0.0,0.0,0.0,0.0,0.0,0.0,0.0,0.0,0.0,0.0,0.0,0.0,0.0,0.0,0.0,0.0,0.0,0.0,0.0,0.0,0.0,0.0,0.0,0.0,0.0,0.0,0.0,0.0,0.0,0.0,0.0,0.0,0.0,0.0,0.0,0.0,0.0,0.0,0.0,0.0,0.0,0.0,0.0,0.0,0.0,0.0,0.0,0.0,0.0,0.0,0.0,0.0,0.0,0.0,0.0,0.0,0.0,0.0,0.0,0.0,0.0,0.0,0.0,0.0,0.0,0.0,0.0,0.0,0.0,0.0,0.0,0.0,0.0,0.0,0.0,0.0,0.0,0.0,0.0,0.0,0.0,0.0,0.0,0.0,0.0,0.0,0.0,0.0,0.0,0.0,0.0,0.0,0.0,0.0,0.0,0.0,0.0,0.0,0.0,0.0,0.0,0.0,0.0,0.0,0.0,0.0,0.0,0.0,0.0,0.0,0.0,0.0,0.0,0.0,0.0,0.0,0.0,0.0,0.0,0.0,0.0,0.0,0.0,0.0,0.0,0.0,0.0,0.0,0.0,0.0,0.0,0.0,0.0,0.0,0.0,0.0,0.0,0.0,0.0,0.0,0.0,0.0,0.0,0.0,0.0,0.0,0.0,0.0,0.0,0.0,0.0,0.0,0.0,0.0,0.0,0.0,0.0,0.0,0.0,0.0,0.0,0.0,0.0,0.0,0.0,0.0,0.0,0.0,0.0,0.0,0.0,0.0,0.0,0.0,0.0,0.0,0.0,0.0,0.0,0.0,0.0,0.0,0.0,0.0,0.0,0.0,0.0,0.0,0.0,0.0,0.0,0.0,0.0,0.0,0.0,0.0,0.0,0.0,0.0,0.0,0.0,0.0,0.0,0.0,0.0,0.0,0.0,0.0,0.0,0.0,0.0,0.0,0.0,0.0,0.0,0.0,0.0,0.0,0.0,0.0,0.0,0.0,0.0,0.0,0.0,0.0,0.0,0.0,0.0,0.0,0.0,0.0,0.0,0.0,0.0,0.0,0.0,0.0,0.0,0.0,0.0,0.0,0.0,0.0,0.0,0.0,0.0,0.0,0.0,0.0,0.0,0.0,0.0,0.0,0.0,0.0,0.0,0.0,0.0,0.0,0.0,0.0,0.0,0.0,0.0,0.0,0.0,0.0,0.0,0.0,0.0,0.0,0.0,0.0,0.0,0.0,0.0,0.0,0.0,0.0,0.0,0.0,0.0,0.0,0.0,0.0,0.0,0.0,0.0,0.0,0.0,0.0,0.0,0.0,0.0,0.0,0.0,0.0,0.0,0.0,0.0,0.0,0.0,0.0,0.0,0.0,0.0,0.0,0.0,0.0,0.0,0.0,0.0,0.0,0.0,0.0,0.0,0.0,0.0,0.0,0.0,0.0,0.0,0.0,0.0,0.0,0.0,0.0,0.0,0.0,0.0,0.0,0.0,0.0,0.0,0.0,0.0,0.0,0.0,0.0,0.0,0.0,0.0,0.0,0.0,0.0,0.0,0.0,0.0,0.0,0.0,0.0,0.0,0.0,0.0,0.0,0.0,0.0,0.0,0.0,0.0,0.0,0.0,0.0,0.0,0.0,0.0,0.0,0.0,0.0,0.0,0.0,0.0,0.0,0.0,0.0,0.0,0.0,0.0,0.0,0.0,0.0,0.0,0.0,0.0,0.0,0.0,0.0,0.0,0.0,0.0,0.0,0.0,0.0,0.0,0.0,0.0,0.0,0.0,0.0,0.0,0.0,0.0,0.0,0.0,0.0,0.0,0.0,0.0,0.0,0.0,0.0,0.0,0.0,0.0,0.0,0.0,0.0,0.0,0.0,0.0,0.0,0.0,0.0,0.0,0.0,0.0,0.0,0.0,0.0,0.0,0.0,0.0,0.0,0.0,0.0,0.0,0.0,0.0,0.0,0.0,0.0,0.0,0.0,0.0,0.0,0.0,0.0,0.0,0.0,0.0,0.0,0.0,0.0,0.0,0.0,0.0,0.0,0.0,0.0,0.0,0.0,0.0,0.0,0.0,0.0,0.0,0.0,0.0,0.0,0.0,0.0,0.0,0.0,0.0,0.0,0.0,0.0,0.0,0.0,0.0,0.0,0.0,0.0,0.0,0.0,0.0,0.0,0.0,0.0,0.0,0.0,0.0,0.0,0.0,0.0,0.0,0.0,0.0,0.0,0.0,0.0,0.0,0.0,0.0,0.0,0.0,0.0,0.0,0.0,0.0,0.0,0.0,0.0,0.0,0.0,0.0,0.0,0.0,0.0,0.0,0.0,0.0,0.0,0.0,0.0,0.0,0.0,0.0,0.0,0.0,0.0,0.0,0.0,0.0,0.0,0.0,0.0,0.0,0.0,0.0,0.0,0.0,0.0,0.0,0.0,0.0,0.0,0.0,0.0,0.0,0.0,0.0,0.0,0.0,0.0,0.0,0.0,0.0,0.0,0.0,0.0,0.0,0.0,0.0,0.0,0.0,0.0,0.0,0.0,0.0,0.0,0.0,0.0,0.0,0.0,0.0,0.0,0.0,0.0,0.0,0.0,0.0,0.0,0.0,0.0,0.0,0.0,0.0,0.0,0.0,0.0,0.0,0.0,0.0,0.0,0.0,0.0,0.0,0.0,0.0,0.0,0.0,0.0,0.0,0.0,0.0,0.0,0.0,0.0,0.0,0.0,0.0,0.0,0.0,0.0,0.0,0.0,0.0,0.0,0.0,0.0,0.0,0.0,0.0,0.0,0.0,0.0,0.0,0.0,0.0,0.0,0.0,0.0,0.0,0.0,0.0,0.0,0.0,0.0,0.0,0.0,0.0,0.0,0.0,0.0,0.0,0.0,0.0,0.0,0.0,0.0,0.0,0.0,0.0,0.0,0.0,0.0,0.0,0.0,0.0,0.0,0.0,0.0,0.0,0.0,0.0,0.0,0.0,0.0,0.0,0.0,0.0,0.0,0.0,0.0,0.0,0.0,0.0,0.0,0.0,0.0,0.0,0.0,0.0,0.0,0.0,0.0,0.0,0.0,0.0,0.0,0.0,0.0,0.0,0.0,0.0,0.0,0.0,0.0,0.0,0.0,0.0,0.0,0.0,0.0,0.0,0.0,0.0,0.0,0.0,0.0,0.0,0.0,0.0,0.0,0.0,0.0,0.0,0.0,0.0,0.0,0.0,0.0,0.0,0.0,0.0,0.0,0.0,0.0,0.0,0.0,0.0,0.0,0.0,0.0,0.0,0.0,0.0,0.0,0.0,0.0,0.0,0.0,0.0,0.0,0.0,0.0,0.0,0.0,0.0,0.0,0.0,0.0,0.0,0.0,0.0,0.0,0.0,0.0,0.0,0.0,0.0,0.0,0.0,0.0,0.0,0.0,0.0,0.0,0.0,0.0,0.0,0.0,0.0,0.0,0.0,0.0,0.0,0.0,0.0,0.0,0.0,0.0,0.0,0.0,0.0,0.0,0.0,0.0,0.0,0.0,0.0,0.0,0.0,0.0,0.0,0.0,0.0,0.0,0.0,0.0,0.0,0.0,-1.2853,0.0,0.0,0.0,0.0,0.0,0.0,0.0,0.0,0.0,0.0,0.0,0.0,0.0,0.0,0.0,0.0,0.0,0.0,0.0,0.0,0.0,0.0,0.0,0.0,0.0,0.0,0.0,0.0,0.0,0.0,0.0,0.0,0.0,0.0,0.0,0.0,0.0,0.0,0.0,-1.0162,-1.1387,-1.2562,-1.3502,-1.4274,-1.4763,0.0,0.0,0.0,0.0,0.0,0.0,0.0,0.0,0.0,0.0,0.0,0.0,0.0,0.0,0.0,0.0,0.0,0.0,0.0,0.0,0.0,0.0,0.0,0.0,0.0,0.0,0.0,0.0,0.0,0.0,0.0,0.0,0.0,0.0,0.0,0.0,0.0,0.0,0.0,0.0,0.0,0.0,0.0,0.0,0.0,0.0,0.0,0.0,0.0,0.0,0.0,0.0,0.0,0.0,0.0,0.0,0.0,0.0,0.0,0.0,0.0,0.0,0.0,0.0,0.0,0.0,0.0,0.0,0.0,0.0,0.0,-1.2999,0.0,0.0,0.0,0.0,0.0,0.0,0.0,0.0,0.0,0.0,0.0,0.0,0.0,0.0,0.0,0.0,0.0,0.0,0.0,0.0,0.0,0.0,0.0,0.0,0.0,0.0,0.0,0.0,0.0,0.0,0.0,0.0,0.0,0.0,0.0,-1.0235,-0.9951,-1.0005,-1.1111,-1.2673,-1.4609,-1.5354,-1.5291,-1.477,-1.5204,0.0,0.0,0.0,0.0,0.0,0.0,0.0,0.0,0.0,0.0,0.0,0.0,0.0,0.0,0.0,0.0,0.0,0.0,0.0,0.0,0.0,0.0,0.0,0.0,0.0,0.0,0.0,0.0,0.0,0.0,0.0,0.0,0.0,0.0,0.0,0.0,0.0,0.0,0.0,0.0,0.0,0.0,0.0,0.0,0.0,0.0,0.0,0.0,0.0,0.0,0.0,0.0,0.0,0.0,0.0,0.0,0.0,0.0,0.0,0.0,0.0,0.0,0.0,0.0,-1.7913,-1.8406,-1.9041,-1.8213,-1.6312,-1.5779,-1.4316,-1.238,0.0,0.0,0.0,0.0,0.0,0.0,0.0,0.0,0.0,0.0,0.0,0.0,0.0,0.0,0.0,0.0,0.0,0.0,0.0,0.0,0.0,0.0,0.0,-1.6066,-1.5833,-1.4881,-1.4062,0.0,0.0,0.0,0.0,0.0,0.0,-1.0783,-1.1784,-1.1702,-1.0335,-1.2576,-1.4152,-1.4999,-1.6102,-1.6299,-1.5645,-1.5478,-1.5678,-1.6106,0.0,0.0,0.0,0.0,0.0,0.0,0.0,0.0,0.0,0.0,0.0,0.0,0.0,0.0,0.0,0.0,0.0,0.0,0.0,0.0,0.0,0.0,0.0,0.0,0.0,0.0,0.0,0.0,0.0,0.0,0.0,0.0,0.0,0.0,0.0,0.0,0.0,0.0,0.0,0.0,0.0,-1.0769,-1.23,0.0,0.0,0.0,0.0,0.0,0.0,0.0,0.0,0.0,0.0,0.0,0.0,0.0,0.0,-1.6381,-1.6684,-1.7216,-1.8165,-1.8416,-1.8888,-1.9325,-1.9423,-1.8696,-1.731,-1.6892,0.0,-1.3534,-1.3484,0.0,0.0,0.0,0.0,0.0,0.0,0.0,0.0,0.0,0.0,0.0,0.0,0.0,0.0,0.0,0.0,0.0,0.0,0.0,0.0,0.0,-1.702,-1.6627,-1.6392,-1.6249,-1.5856,-1.5049,0.0,0.0,0.0,0.0,-1.207,-1.162,-1.2044,-1.2573,-1.3077,-1.4268,-1.5461,-1.6627,-1.6522,-1.6469,-1.6306,-1.6019,-1.5939,-1.5985,-1.5438,0.0,0.0,0.0,0.0,0.0,0.0,0.0,0.0,0.0,0.0,0.0,0.0,0.0,0.0,0.0,0.0,0.0,0.0,0.0,0.0,0.0,0.0,0.0,0.0,0.0,0.0,0.0,0.0,0.0,0.0,0.0,0.0,0.0,0.0,0.0,0.0,0.0,0.0,0.0,-1.0995,-1.2679,-1.2792,-1.3714,-1.4255,0.0,0.0,0.0,0.0,0.0,0.0,0.0,0.0,0.0,-1.66,-1.8052,-1.867,-1.8366,-1.8575,-1.8948,-1.9508,-1.8893,-1.8787,-1.9186,-1.934,-1.8703,-1.7568,-1.7749,-1.6762,-1.494,-1.4849,-1.503,-1.5312,0.0,0.0,0.0,0.0,0.0,-1.6752,0.0,0.0,0.0,0.0,0.0,0.0,0.0,0.0,0.0,0.0,0.0,0.0,-1.7773,-1.7684,-1.7585,-1.7759,-1.7984,-1.7726,-1.6756,-1.5972,0.0,0.0,0.0,-1.2305,-1.2305,-1.2521,-1.3664,-1.574,-1.6068,-1.6948,-1.8248,-1.735,-1.6987,-1.7041,-1.682,-1.652,-1.6132,-1.5618,-1.5104,-1.4629,0.0,0.0,0.0,0.0,0.0,0.0,0.0,0.0,0.0,0.0,0.0,0.0,0.0,0.0,0.0,0.0,0.0,0.0,0.0,0.0,0.0,0.0,0.0,0.0,0.0,0.0,0.0,0.0,0.0,0.0,0.0,0.0,0.0,0.0,0.0,0.0,0.0,-1.3004,-1.3981,-1.308,-1.4549,-1.5284,0.0,0.0,0.0,0.0,0.0,0.0,-1.6366,-1.7673,-1.8247,-1.8023,-2.0018,-2.0659,-2.0003,-2.0122,-2.0351,-2.058,-1.9398,-1.8898,-1.9011,-1.9224,-1.8674,-1.7669,-1.8055,-1.7513,-1.6182,-1.6359,-1.6487,-1.6657,-1.7286,-1.7997,-1.8572,-1.8175,-1.8206,-1.8455,0.0,0.0,0.0,0.0,0.0,0.0,0.0,0.0,0.0,0.0,0.0,-1.6948,-1.8965,-1.8786,-1.9214,-2.0849,-1.9858,-1.9136,-1.9058,-1.6667,-1.4945,-1.4425,-1.304,-1.2305,-1.2305,-1.374,-1.5367,-1.7325,-1.8041,-1.8704,-1.9175,-1.8996,-1.8537,-1.7976,-1.7963,-1.7635,-1.7007,-1.5872,-1.5217,-1.4917,-1.4636,0.0,0.0,0.0,0.0,0.0,0.0,0.0,0.0,0.0,0.0,0.0,0.0,0.0,0.0,0.0,0.0,0.0,0.0,0.0,0.0,0.0,0.0,0.0,0.0,0.0,0.0,0.0,0.0,0.0,0.0,0.0,0.0,0.0,0.0,0.0,0.0,0.0,0.0,-1.3701,-1.5879,0.0,0.0,0.0,0.0,-1.6573,-1.686,-1.7301,-1.7903,-1.823,-1.8783,-1.9259,-1.967,-1.9959,-2.0241,-2.0254,-2.0268,-2.0281,-1.9873,-1.9599,-1.9332,-1.9005,-1.8551,-1.8003,-1.7788,-1.7466,-1.7171,-1.769,-1.7819,-1.7821,-1.9195,-2.007,-2.042,-2.044,-2.0653,-2.087,0.0,0.0,0.0,0.0,0.0,0.0,0.0,0.0,0.0,-1.6621,-1.6836,-1.7519,-1.9111,-1.9893,-2.0557,-2.1182,-2.1309,-2.0723,-1.9152,-1.7415,-1.577,-1.4328,-1.3236,-1.3217,-1.4447,-1.4906,-1.6403,-1.9035,-1.8318,-1.8489,-1.9456,-1.8544,-1.7955,-1.7756,-1.7956,-1.7816,-1.7388,-1.678,-1.6025,-1.5217,-1.4923,-1.4502,0.0,0.0,0.0,0.0,0.0,0.0,0.0,0.0,0.0,0.0,0.0,0.0,0.0,0.0,0.0,0.0,0.0,0.0,0.0,0.0,0.0,0.0,0.0,0.0,0.0,0.0,0.0,0.0,0.0,0.0,0.0,0.0,0.0,0.0,0.0,0.0,0.0,-1.6172,-1.7522,0.0,0.0,-1.7134,-1.7428,-1.7822,-1.8303,-1.8831,-1.9419,-1.9913,-2.0274,-2.0481,-2.0588,-2.0688,-2.0795,-2.0615,-2.0421,-2.0227,-1.994,-1.9646,-1.9359,-1.9058,-1.8704,-1.831,-1.7996,-1.7589,-1.7306,-1.9171,-1.9477,-1.8806,-1.9324,-2.03,-2.1445,-2.1719,-2.1924,-2.2006,0.0,0.0,0.0,0.0,0.0,0.0,0.0,0.0,0.0,-1.6406,-1.7012,-1.793,-1.9346,-2.0537,-2.1406,-2.1836,-2.2002,-2.1345,-1.9552,-1.7692,-1.5964,-1.4494,-1.3432,-1.3736,-1.5448,-1.592,-1.7345,-1.9665,-1.876,-1.8871,-1.9695,-1.8462,-1.7943,-1.8043,-1.825,-1.823,-1.8023,-1.7829,-1.6894,-1.5524,-1.5331,-1.5077,-1.471,0.0,0.0,0.0,0.0,0.0,0.0,0.0,0.0,0.0,0.0,0.0,0.0,0.0,0.0,0.0,0.0,0.0,0.0,0.0,0.0,0.0,0.0,0.0,0.0,0.0,0.0,0.0,0.0,0.0,0.0,0.0,0.0,0.0,0.0,0.0,-1.7709,-1.7996,-1.9085,-1.9459,-1.8557,-1.8744,-1.9052,-1.9352,-1.992,-2.0414,-2.0802,-2.1196,-2.1363,-2.1263,-2.1256,-2.1209,-2.1109,-2.0915,-2.0722,-2.0528,-2.0134,-1.9846,-1.9646,-1.9252,-1.8858,-1.8477,-1.827,-1.7842,-1.7495,-1.9197,-1.9815,-1.9915,-2.0606,-2.1478,-2.2539,-2.2676,-2.2725,-2.2764,0.0,0.0,0.0,0.0,0.0,0.0,0.0,0.0,-1.5547,-1.6047,-1.6836,-1.8037,-1.9717,-2.0644,-2.1685,-2.2921,-2.188,-2.0809,-2.0141,-1.7372,-1.5402,-1.4794,-1.3773,-1.3808,-1.508,-1.6764,-1.8215,-1.9194,-1.9628,-1.9931,-2.0044,-1.8995,-1.8644,-1.8911,-1.8918,-1.8925,-1.8925,-1.8931,-1.7776,-1.5919,-1.5879,-1.5685,-1.5357,0.0,0.0,0.0,0.0,0.0,0.0,0.0,0.0,0.0,0.0,0.0,0.0,0.0,0.0,0.0,0.0,0.0,0.0,0.0,0.0,0.0,0.0,0.0,0.0,0.0,0.0,0.0,0.0,0.0,0.0,0.0,0.0,0.0,-1.676,-1.8303,-1.9312,-1.9065,-2.0548,-2.1036,-1.9599,-2.0755,-2.147,-2.1169,-2.169,-2.2017,-2.1997,-2.1997,-2.1864,-2.1563,-2.1543,-2.1403,-2.1109,-2.1102,-2.1096,-2.1089,-2.0508,-2.0227,-2.0201,-1.9639,-1.9058,-1.8504,-1.8504,-1.8163,-1.7609,-1.7707,-1.8942,-2.1163,-2.301,-2.3719,-2.374,-2.332,-2.3154,-2.3135,0.0,0.0,0.0,0.0,0.0,0.0,0.0,-1.4805,-1.5107,-1.5537,-1.6904,-1.8252,-1.9346,-2.0316,-2.105,-2.1479,-1.9898,-1.8394,-1.7127,-1.5333,-1.4163,-1.3957,-1.4095,-1.5239,-1.761,-1.7471,-1.8221,-2.0096,-1.9347,-1.8899,-1.8899,-1.8665,-1.8537,-1.8617,-1.8831,-1.8925,-1.8938,-1.9152,-1.8791,-1.7976,-1.6894,-1.6293,-1.5945,0.0,0.0,0.0,0.0,0.0,0.0,0.0,0.0,0.0,0.0,0.0,0.0,0.0,0.0,0.0,0.0,0.0,0.0,0.0,0.0,0.0,0.0,0.0,0.0,0.0,0.0,0.0,0.0,0.0,0.0,0.0,0.0,-1.813,-1.8851,-1.974,-2.0601,-2.137,-2.2078,-2.2258,-2.1637,-2.2138,-2.2378,-2.2078,-2.2619,-2.2766,-2.2318,-2.2298,-2.2071,-2.157,-2.1343,-2.1189,-2.1109,-2.0902,-2.0795,-2.0795,-2.0414,-2.012,-1.9913,-1.9753,-1.9359,-1.8804,-1.8804,-1.8591,-1.8332,-1.9049,-1.9829,-2.04,-2.1385,-2.2599,-2.3779,-2.3652,-2.3408,-2.3135,0.0,0.0,0.0,0.0,0.0,0.0,0.0,0.0,-1.4402,-1.4402,-1.6664,-1.8247,-1.8225,-1.9613,-2.0314,-1.9803,-1.8573,-1.7188,-1.5637,-1.4328,-1.3745,-1.3975,-1.4576,-1.5876,-1.8039,-1.7709,-1.8256,-1.9654,-1.9166,-1.8791,-1.8677,-1.8798,-1.8858,-1.8865,-1.9032,-1.9112,-1.9132,-1.9426,-1.9379,-1.9038,-1.817,-1.7569,-1.7081,-1.5939,-1.5665,-1.5805,-1.5264,-1.5211,-1.5226,-1.4167,0.0,0.0,0.0,0.0,0.0,0.0,0.0,0.0,0.0,0.0,0.0,0.0,0.0,0.0,0.0,0.0,0.0,0.0,0.0,0.0,0.0,0.0,0.0,0.0,-1.8604,-1.9846,-2.1102,-2.1349,-2.1757,-2.2686,-2.306,-2.3173,-2.3006,-2.3253,-2.3307,-2.3006,-2.3313,-2.3307,-2.2826,-2.2672,-2.2392,-2.1931,-2.163,-2.1416,-2.1296,-2.1002,-2.0855,-2.0855,-2.0434,-2.0147,-1.9973,-1.9726,-1.9366,0.0,-1.8925,-1.8691,-1.829,-1.8954,-1.9524,0.0,0.0,0.0,0.0,0.0,-2.3516,-2.3135,0.0,0.0,0.0,0.0,0.0,0.0,0.0,0.0,-1.3411,-1.2959,-1.5952,-1.7661,-1.6572,-1.8248,-1.9011,-1.7903,-1.722,-1.6293,-1.4909,-1.4051,-1.3968,-1.4589,-1.5244,-1.6112,-1.7228,-1.7809,-1.8257,-1.8591,-1.9078,-1.9199,-1.8978,-1.9245,-1.9366,-1.9366,-1.9366,-1.9386,-1.9432,-1.9693,-1.9653,-1.9412,-1.9379,-1.9018,-1.8337,-1.6947,-1.6727,-1.7041,-1.6186,-1.5778,-1.5631,-1.5565,0.0,0.0,0.0,0.0,0.0,0.0,0.0,0.0,0.0,0.0,0.0,0.0,0.0,0.0,0.0,0.0,0.0,0.0,0.0,0.0,0.0,0.0,0.0,0.0,-2.0254,-2.141,-2.3093,-2.2859,-2.2746,-2.3354,-2.3661,-2.3808,-2.3774,-2.4062,-2.4108,-2.3748,-2.3781,-2.3661,-2.3293,0.0,0.0,0.0,0.0,-2.1797,-2.1503,-2.1243,-2.1109,-2.1102,-2.0581,-2.0301,-2.0214,-1.97,-1.9285,-1.8978,-1.8978,-1.8677,-1.819,-1.8163,-1.8673,-1.9849,-2.2163,-2.2964,-2.303,-2.3616,-2.3516,0.0,0.0,0.0,0.0,0.0,0.0,0.0,0.0,0.0,-1.2155,-1.1837,-1.3735,-1.4841,-1.4165,-1.4673,-1.5134,-1.5279,-1.4087,-1.3397,-1.3567,-1.3865,-1.4369,-1.519,-1.6246,-1.7148,-1.7856,-1.8223,-1.8664,-1.9199,-1.9072,-1.9098,-1.9279,-1.9339,-1.9366,-1.9366,-1.9366,-1.9499,-1.972,-1.9773,-1.9766,-1.9693,-1.9459,-1.9018,-1.841,-1.7622,-1.7255,-1.7068,-1.642,-1.6607,-1.7088,-1.6613,-1.6727,-1.6974,-1.6386,-1.5712,0.0,0.0,0.0,0.0,0.0,0.0,0.0,0.0,0.0,0.0,0.0,0.0,0.0,0.0,0.0,0.0,0.0,0.0,0.0,-2.0167,-2.1162,-2.2104,-2.318,-2.3227,-2.3374,-2.3961,-2.4082,-2.4028,-2.3794,-2.4242,-2.4235,-2.3467,-2.3848,-2.3781,-2.2993,-2.2893,0.0,-2.2084,-2.179,-2.1496,-2.1196,-2.1136,-2.1109,-2.1109,0.0,0.0,-2.0227,-2.0114,-1.978,-1.9279,-1.9279,-1.9219,-1.9092,-1.8851,-1.9181,-2.0174,-2.2175,-2.2802,-2.2659,-2.3501,-2.3516,-2.3135,0.0,0.0,0.0,0.0,0.0,0.0,0.0,0.0,-1.1273,-1.0933,-1.289,-1.395,-1.3068,-1.3485,-1.3738,-1.3317,-1.2384,-1.2305,-1.336,-1.3981,-1.483,-1.5999,-1.6894,-1.7716,-1.847,-1.8631,-1.8925,-1.9366,-1.9219,-1.9225,-1.9372,-1.9512,-1.9586,-1.9593,-1.9733,-1.988,-2.0013,-2.0013,-1.9933,-1.9786,-1.9639,-1.9232,-1.8644,-1.8043,-1.7629,-1.7308,-1.6867,-1.6994,-1.7321,-1.7027,-1.7121,-1.7315,-1.7021,-1.6426,-1.5665,0.0,0.0,0.0,0.0,0.0,0.0,0.0,0.0,0.0,0.0,0.0,0.0,0.0,0.0,-1.7562,0.0,0.0,-2.0361,-2.1383,-2.2038,-2.2639,-2.324,-2.3327,-2.3494,-2.3935,-2.4115,-2.4202,-2.4202,-2.4469,-2.4396,-2.3808,-2.3901,-2.3728,-2.3126,-2.2946,-2.2659,-2.2218,-2.1924,-2.163,-2.1336,-2.1182,-2.1109,-2.1109,-2.0962,-2.0742,-2.0441,-2.0154,-1.986,-1.9579,-1.9432,-1.9279,-1.9112,-1.8671,-1.8639,-1.9125,-2.1426,-2.2337,-2.2577,-2.3702,-2.3691,-2.3135,0.0,0.0,0.0,0.0,0.0,0.0,0.0,0.0,0.0,-1.0126,-1.2056,-1.3097,-1.2058,-1.2704,-1.2774,-1.1769,-1.1603,-1.2178,-1.3473,-1.4302,-1.5291,-1.6647,-1.7382,-1.8096,-1.8824,-1.8951,-1.9125,-1.9366,-1.9366,-1.9399,-1.9459,-1.9693,-1.9826,-1.9893,-2.0127,-2.0267,-2.0314,-2.0261,-2.0134,-1.996,-1.9846,-1.9486,-1.8945,-1.8357,-1.7903,-1.7542,-1.7255,-1.6892,-1.6632,-1.7068,-1.6972,-1.6797,-1.7181,-1.6827,-1.6146,-1.5084,-1.4616,0.0,0.0,0.0,0.0,0.0,0.0,0.0,0.0,0.0,-1.674,-1.7856,-1.8758,-1.9613,-2.0494,-2.1289,-2.1997,-2.2585,-2.2832,-2.304,-2.3293,-2.3273,-2.3327,-2.3567,-2.3901,-2.4209,-2.4442,-2.4523,-2.4409,-2.4062,-2.3875,-2.3614,-2.3253,-2.2999,-2.2726,-2.2432,-2.2138,-2.1844,-2.1557,-2.1256,-2.1109,-2.1109,-2.0869,-2.0728,-2.0661,-2.0127,-1.9853,-1.9786,-1.9492,-1.9232,-1.8965,-1.8437,-1.8036,-1.8068,-2.0457,-2.152,-2.1935,-2.3775,-2.3926,-2.3252,0.0,0.0,0.0,0.0,0.0,0.0,0.0,0.0,0.0,-0.9349,-1.0068,-1.0404,-1.0078,-1.035,-1.058,-1.0752,-1.1623,-1.2612,-1.3499,-1.4683,-1.5718,-1.6667,-1.7789,-1.8437,-1.8537,-1.9052,-1.9332,-1.9366,-1.9366,-1.9499,-1.9753,-1.9786,-1.994,-2.0187,-2.0221,-2.0381,-2.0608,-2.0341,-2.0368,-2.0535,-2.0013,-1.9606,-1.9252,-1.8664,-1.8083,-1.7542,-1.7255,-1.5965,-1.4766,-1.6586,-1.6289,-1.5501,-1.7074,-1.7128,-1.6526,-1.5872,0.0,-1.4162,-1.4289,-1.4396,0.0,-1.6413,-1.6286,-1.6667,0.0,0.0,-2.0347,-2.1256,-2.1937,-2.2331,-2.2198,-2.2472,-2.2913,-2.3521,-2.3427,-2.3287,-2.3327,-2.3086,-2.2926,-2.2959,-2.3467,-2.3834,-2.3868,-2.4102,-2.4022,-2.3467,-2.3641,-2.3521,-2.2946,-2.2879,-2.2726,-2.2432,-2.2138,-2.1844,-2.1557,-2.1256,-2.1109,-2.1109,-2.1076,-2.0922,-2.0668,-2.0334,-2.0047,-1.9786,-1.9492,-1.9352,-1.9292,-1.8958,-1.8651,-1.8467,-1.9769,-1.9872,-1.9744,-2.3204,-2.4121,-2.3662,0.0,0.0,0.0,0.0,0.0,0.0,0.0,0.0,0.0,0.0,0.0,-0.988,-0.9927,-1.02,-1.0494,-1.0788,-1.1416,-1.2318,-1.3479,-1.4422,-1.5511,-1.6901,-1.7776,-1.839,-1.8738,-1.9152,-1.9366,-1.9366,-1.9539,-1.9679,-1.9806,-2.0154,-2.0374,-2.0501,-2.0668,-2.0808,-2.0909,-2.0615,-2.0461,-2.0381,-1.9967,-1.9426,-1.8698,-1.7597,-1.6561,-1.5625,-1.5512,-1.4867,0.0,-1.503,-1.5498,-1.5999,-1.6998,-1.6807,-1.6112,-1.5698,-1.5231,0.0,-1.5418,0.0,0.0,0.0,-1.8163,-1.9118,-2.0889,-2.1236,-2.1436,-2.2311,-2.2839,-2.3093,-2.2973,-2.3333,-2.3614,0.0,-2.3554,-2.3521,-2.3354,-2.2913,-2.2539,-2.2372,-2.2432,-2.2752,-2.3447,-2.3621,-2.3587,-2.3347,-2.344,-2.332,-2.2886,-2.2859,-2.2726,-2.2432,-2.2138,-2.1844,-2.1557,-2.1256,-2.1109,-2.1109,-2.1109,-2.1042,-2.0915,-2.0628,-2.0234,-1.9786,-1.9492,-1.9265,-1.9085,-1.8791,-1.849,-1.8292,-1.9338,-1.9672,-1.9687,-2.2496,-2.3215,-2.2737,0.0,0.0,0.0,0.0,0.0,0.0,0.0,0.0,0.0,0.0,0.0,0.0,0.0,-1.0114,-1.0315,-1.0523,-1.0873,-1.1657,-1.3114,-1.4055,-1.5164,-1.66,-1.7555,-1.8243,-1.8664,-1.9125,-1.9366,-1.9366,-1.9659,-1.984,-1.9927,-2.0441,-2.0722,-2.0808,-2.1015,-2.1109,-2.1082,-2.0708,-2.0474,-2.0314,-1.986,-1.9299,-1.8559,-1.6782,-1.5098,-1.3864,-1.3724,-1.3117,-1.2495,-1.2979,-1.3847,-1.4967,-1.5739,-1.584,-1.5578,-1.5531,-1.5578,-1.5745,-1.6253,0.0,0.0,-1.8671,-1.9913,-2.1176,-2.1717,-2.2071,-2.2465,-2.31,-2.3414,-2.3541,-2.346,-2.3661,-2.3748,-2.3494,-2.3487,-2.3447,-2.3227,-2.2679,-2.2164,-2.179,-2.149,-2.1683,-2.2625,-2.2859,-2.2986,-2.3066,-2.3073,-2.3013,-2.2873,-2.2786,-2.2679,-2.2545,-2.2184,-2.1884,-2.1677,-2.1296,-2.1109,-2.1109,-2.1109,-2.1109,-2.1096,-2.0728,-2.0274,-1.9786,-1.9492,-1.9245,-1.9018,-1.8644,-1.8357,-1.8211,-1.8766,-1.9013,-1.9295,-2.1761,-2.2371,-2.217,0.0,0.0,0.0,0.0,0.0,0.0,0.0,0.0,0.0,0.0,0.0,0.0,0.0,0.0,-0.9338,-0.935,-0.9811,-1.0762,-1.2224,-1.3707,-1.4796,-1.5424,-1.7114,-1.8043,-1.8043,-1.8911,-1.9366,-1.9366,-1.9659,-1.9947,-2.0227,-2.0535,-2.0828,-2.1096,-2.1109,-2.1109,-2.1069,-2.0494,-2.0408,-2.0588,-1.9726,-1.9366,-1.9097,-1.6823,-1.4625,-1.2787,-1.2146,-1.0514,-0.8827,-1.0508,-1.1017,-1.1259,-1.2633,-1.3957,0.0,-1.5651,-1.6019,-1.6313,0.0,0.0,-1.8818,-2.0241,-2.1276,-2.2251,-2.3427,-2.3915,-2.4128,-2.4155,-2.4168,-2.4088,-2.3808,-2.3293,-2.3093,-2.3667,-2.3267,-2.2886,-2.2879,-2.2372,-2.1784,-2.1203,-2.0882,-2.0828,0.0,-2.169,-2.2144,-2.2425,-2.2445,-2.2565,-2.2846,-2.2585,-2.2559,-2.2839,-2.2291,-2.1984,-2.1971,-2.1396,-2.1109,-2.1109,-2.1109,-2.1109,-2.1089,-2.0508,-2.008,-1.9786,-1.9492,-1.9366,-1.9312,-1.8731,-1.8484,-1.8417,-1.7922,-1.7687,-1.7989,-2.0727,-2.1978,-2.2532,0.0,0.0,0.0,0.0,0.0,0.0,0.0,0.0,0.0,0.0,0.0,0.0,0.0,0.0,0.0,0.0,-0.9982,-1.0485,-1.1906,-1.3039,-1.4001,-1.4776,-1.6132,-1.7048,-1.7428,-1.813,-1.8584,-1.8784,-1.9272,-1.9559,-1.9673,-2.0154,-2.0434,-2.0528,-2.0528,-2.0528,-2.0514,-2.0314,-2.018,-2.0034,-1.9345,-1.8372,-1.6907,-1.4713,-1.2527,-1.0403,0.0,-0.8491,-0.8486,-0.969,-1.0248,-1.0772,-1.2791,-1.3231,-1.3397,-1.5068,-1.6166,-1.7088,-1.8176,0.0,-2.0828,-2.2111,-2.2953,-2.3667,-2.4456,-2.4416,-2.4095,-2.3701,-2.2993,-2.2298,-2.181,-2.155,-2.1603,-2.2205,-2.2452,-2.2639,-2.2832,-2.2519,-2.1911,-2.0935,-2.0735,0.0,0.0,0.0,0.0,-2.2078,-2.2131,-2.2258,-2.2552,-2.2659,-2.2759,-2.2859,-2.2478,-2.2271,-2.2271,-2.1697,-2.1403,-2.1403,-2.1203,-2.1109,-2.1089,-2.0501,-2.018,-2.006,-1.9579,-1.9259,-1.9045,-1.8651,-1.8377,-1.8156,-1.7742,-1.7582,-1.7891,-2.0735,-2.1645,-2.1758,0.0,0.0,0.0,0.0,0.0,0.0,0.0,0.0,0.0,0.0,0.0,0.0,0.0,0.0,0.0,0.0,0.0,0.0,-1.1032,-1.2144,-1.3033,-1.3701,-1.4957,-1.5825,-1.6199,-1.6894,-1.7348,-1.7542,-1.8237,-1.8577,-1.8591,-1.9285,-1.9606,-1.9606,-1.9606,-1.9606,-1.9599,-1.9486,-1.9212,-1.8811,-1.7877,-1.6624,-1.5021,-1.2636,-1.0721,0.0,-0.7312,-0.7029,-0.7629,-0.8147,-0.9404,-1.0956,-1.202,-1.2822,-1.3567,-1.5233,-1.662,-1.7976,-1.9559,-2.1062,-2.2472,-2.3654,-2.4315,-2.4743,-2.5017,-2.4462,-2.3661,-2.2859,-2.183,-2.0869,-2.0174,-1.988,-2.0034,-2.0935,-2.1223,-2.1617,-2.2432,-2.2111,-2.1557,-2.0909,-2.0648,0.0,0.0,0.0,0.0,-2.1617,-2.177,-2.2004,-2.2398,-2.2699,-2.2859,-2.2859,-2.2679,-2.2525,-2.2418,-2.1844,-2.1503,-2.139,-2.1203,-2.1109,-2.1089,-2.0501,-2.0234,-2.0201,-1.9619,-1.9199,-1.8905,-1.8611,-1.8317,-1.8016,-1.7702,-1.7582,-1.7891,-2.0735,-2.1337,-2.1176,0.0,0.0,0.0,0.0,0.0,0.0,0.0,0.0,0.0,0.0,0.0,0.0,0.0,0.0,0.0,0.0,0.0,0.0,-0.9681,-1.1025,-1.1964,-1.2245,-1.3654,-1.4436,-1.4449,-1.5284,-1.5725,-1.5738,-1.6593,-1.7021,-1.7163,-1.7923,-1.8343,-1.8357,-1.8357,-1.8357,-1.8337,-1.8029,-1.7575,-1.6925,-1.5582,-1.4497,-1.3385,-1.071,-0.9414,-0.8748,-0.6961,-0.6331,-0.6381,0.0,0.0,0.0,-1.0708,-1.2736,-1.5611,-1.6226,-1.7475,-1.9025,-2.0755,-2.2311,-2.3708,-2.4843,-2.5304,-2.5411,-2.5084,-2.4088,-2.2893,-2.169,-2.0708,-1.9806,0.0,0.0,-1.8457,-1.9907,-1.9746,-2.0034,-2.1744,-2.1296,-2.0875,0.0,0.0,0.0,0.0,0.0,0.0,-2.1089,0.0,-2.1797,-2.2365,-2.2706,-2.2879,-2.2859,-2.2879,-2.2746,-2.2445,-2.1864,-2.1423,-2.1109,-2.1109,-2.1109,-2.1089,-2.0501,-2.0234,-2.0201,-1.9619,-1.9192,-1.8878,-1.8604,-1.8303,-1.7989,-1.7695,-1.7582,-1.7884,-2.0633,-2.1106,-2.0699,0.0,0.0,0.0,0.0,0.0,0.0,0.0,0.0,0.0,0.0,0.0,0.0,0.0,0.0,0.0,0.0,0.0,0.0,-1.0206,-1.0467,-1.0867,-1.1574,-1.2645,-1.3307,-1.354,-1.3975,-1.4309,-1.4529,-1.497,-1.5304,-1.5531,-1.5979,-1.6299,-1.6506,-1.6506,-1.6506,-1.65,-1.642,-1.5771,-1.481,-1.4044,-1.2434,-1.0465,-0.9361,-0.8151,-0.6961,-0.6457,-0.6714,0.0,0.0,0.0,0.0,0.0,-1.4892,-1.6907,-1.7943,-1.9446,-2.1062,-2.2398,-2.3834,-2.5077,-2.5605,-2.5458,-2.4997,-2.4269,-2.302,-2.161,-2.0214,-1.8865,-1.7662,0.0,0.0,0.0,-1.8731,-1.9726,0.0,-2.183,-2.2171,0.0,-2.151,0.0,-2.1396,-2.1036,-2.0929,0.0,0.0,-2.151,-2.171,-2.2078,-2.2799,-2.31,-2.2873,-2.3086,-2.306,-2.2752,-2.2171,-2.1617,-2.1109,-2.1109,-2.1109,-2.1089,-2.0501,-2.0234,-2.0201,-1.9619,-1.9078,-1.8597,-1.8517,-1.8176,-1.7695,-1.7615,-1.7582,-1.7786,-1.9524,-1.9867,-1.9865,0.0,0.0,0.0,0.0,0.0,0.0,0.0,0.0,0.0,0.0,0.0,0.0,0.0,0.0,0.0,0.0,0.0,0.0,0.0,-0.9402,-0.9971,-1.0438,-1.1434,-1.2058,-1.2231,-1.2518,-1.2752,-1.2919,-1.334,-1.3627,-1.3801,-1.4235,-1.4522,-1.4683,-1.4683,-1.4683,-1.4683,-1.4683,-1.3896,0.0,0.0,-1.0345,-0.8444,-0.7688,-0.6805,-0.6051,-0.5989,0.0,0.0,0.0,0.0,-1.5006,-1.5719,-1.6892,-1.8183,-1.9499,0.0,-2.2225,-2.3541,-2.4783,-2.5752,-2.5919,-2.5418,-2.4556,-2.328,-2.1844,-2.0254,-1.839,-1.7141,0.0,0.0,0.0,0.0,0.0,0.0,0.0,-2.1383,-2.1884,-2.2051,0.0,-2.1964,0.0,-2.1523,-2.149,-2.1563,0.0,-2.1744,-2.1871,-2.2158,-2.2906,-2.3187,-2.2873,-2.3166,-2.3053,-2.2485,-2.2024,-2.1563,-2.1109,-2.1109,-2.1109,-2.1089,-2.0501,-2.0234,-2.0201,0.0,-1.9038,-1.849,-1.849,-1.813,-1.7582,-1.7582,-1.7582,-1.7786,-1.9117,-1.9426,-1.9398,0.0,0.0,0.0,0.0,0.0,0.0,0.0,0.0,0.0,0.0,0.0,0.0,0.0,0.0,0.0,0.0,0.0,0.0,0.0,0.0,0.0,-0.9274,-1.0276,-1.0804,-1.0935,-1.1182,-1.1309,-1.1309,-1.1824,-1.2091,-1.2138,-1.2665,-1.2939,-1.2973,-1.2973,-1.2973,-1.2973,-1.2973,-1.2107,-1.0722,-0.9903,-0.8612,-0.7136,0.0,0.0,0.0,0.0,0.0,0.0,0.0,-1.3562,-1.5429,-1.7626,-1.8764,-1.9546,-2.0935,-2.1937,-2.2906,-2.4315,-2.5284,-2.5892,-2.5852,-2.5117,-2.3935,-2.2158,-2.0555,-1.8811,-1.6567,0.0,-1.4917,-1.4122,0.0,-1.5003,-1.6466,0.0,-1.8504,-2.0788,-2.1176,-2.1523,-2.2325,-2.2231,-2.2104,-2.2104,-2.2031,-2.2017,-2.2098,-2.2031,-2.2111,-2.2405,-2.2993,-2.3187,-2.2873,-2.3086,-2.2792,-2.1937,-2.1677,-2.1403,-2.1109,-2.1109,-2.1109,-2.1089,-2.0501,-2.0234,-2.0201,0.0,0.0,-1.849,-1.849,-1.813,-1.7582,-1.7582,-1.7582,-1.7793,-1.8916,-1.9126,-1.8903,0.0,0.0,0.0,0.0,0.0,0.0,0.0,0.0,0.0,0.0,0.0,0.0,0.0,0.0,0.0,0.0,0.0,0.0,0.0,0.0,0.0,0.0,-0.9508,-0.9918,-1.0635,0.0,0.0,0.0,0.0,-1.0982,-1.1223,-1.1329,-1.1503,-1.1737,-1.1737,-1.1737,-1.1737,-1.1737,-1.1045,-0.9923,-0.9713,-0.8513,-0.6817,-0.6618,0.0,0.0,0.0,0.0,0.0,-1.1631,-1.415,-1.6606,-1.8998,-2.0428,-2.1289,-2.2271,-2.3026,-2.3754,-2.4736,-2.5291,-2.5531,-2.5291,-2.4195,-2.2706,-2.0942,-1.9018,0.0,0.0,0.0,-1.3828,-1.3434,-1.3995,0.0,-1.6466,0.0,0.0,0.0,0.0,-2.1977,0.0,0.0,0.0,0.0,0.0,0.0,0.0,0.0,0.0,-2.2405,-2.2993,-2.3187,-2.2873,-2.2679,-2.2271,-2.1637,-2.1577,-2.1403,-2.1109,-2.1109,-2.1109,-2.1089,-2.0501,-2.0234,-2.0201,0.0,0.0,-1.849,-1.849,-1.813,-1.7582,-1.7582,-1.7582,-1.7582,-1.7891,-1.7804,-1.7803,0.0,0.0,0.0,0.0,0.0,0.0,0.0,0.0,0.0,0.0,0.0,0.0,0.0,0.0,0.0,0.0,0.0,0.0,0.0,0.0,0.0,0.0,0.0,0.0,0.0,0.0,0.0,0.0,0.0,0.0,0.0,0.0,0.0,0.0,0.0,0.0,0.0,-1.0975,-1.043,-0.9521,0.0,0.0,0.0,0.0,0.0,0.0,0.0,0.0,0.0,0.0,-1.2737,-1.5458,-1.9063,-2.0842,-2.1724,-2.2605,-2.3293,-2.3961,-2.4843,-2.5291,-2.5371,-2.477,-2.3507,-2.1824,-1.9586,0.0,0.0,0.0,-1.3347,-1.2906,-1.2766,0.0,0.0,0.0,0.0,0.0,0.0,0.0,0.0,0.0,0.0,0.0,0.0,0.0,0.0,0.0,0.0,0.0,-2.2632,-2.2779,-2.2719,-2.2418,-2.2118,-2.1837,-2.1557,-2.1396,-2.1249,-2.1109,-2.1109,-2.1029,-2.0869,-2.0428,-2.0147,-1.9987,0.0,0.0,-1.8718,-1.8718,-1.8364,-1.7822,-1.7822,-1.7722,-1.7582,-1.7582,-1.7495,-1.7639,0.0,0.0,0.0,0.0,0.0,0.0,0.0,0.0,0.0,0.0,0.0,0.0,0.0,0.0,0.0,0.0,0.0,0.0,0.0,0.0,0.0,0.0,0.0,0.0,0.0,0.0,0.0,0.0,0.0,0.0,0.0,0.0,0.0,0.0,0.0,0.0,0.0,0.0,-1.0174,0.0,0.0,0.0,0.0,0.0,0.0,0.0,0.0,0.0,0.0,0.0,-1.0866,-1.327,-1.7591,-2.0073,-2.1423,-2.2171,-2.2959,-2.3768,-2.4656,-2.5057,-2.505,-2.4302,-2.2853,-2.0962,-1.8484,-1.6513,0.0,0.0,-1.2465,-1.2285,-1.2218,0.0,-1.342,0.0,0.0,0.0,0.0,0.0,0.0,0.0,0.0,0.0,0.0,0.0,0.0,0.0,0.0,0.0,0.0,-2.2485,-2.2191,-2.1904,-2.167,-2.1523,-2.1456,-2.1229,-2.1109,-2.1109,-2.1049,-2.0895,-2.0668,-2.0301,-2.0013,-1.9786,0.0,0.0,0.0,-1.8925,-1.8611,-1.8136,-1.807,-1.7896,-1.7675,-1.7609,-1.7786,-1.8157,0.0,0.0,0.0,0.0,0.0,0.0,0.0,0.0,0.0,0.0,0.0,0.0,0.0,0.0,0.0,0.0,0.0,0.0,0.0,0.0,0.0,0.0,0.0,0.0,0.0,0.0,0.0,0.0,0.0,0.0,0.0,0.0,0.0,0.0,0.0,0.0,0.0,0.0,0.0,0.0,0.0,0.0,0.0,0.0,0.0,0.0,0.0,0.0,0.0,0.0,0.0,-1.0597,-1.3872,-1.7348,-2.0421,-2.0775,0.0,0.0,-2.4042,-2.4302,-2.4242,-2.3895,-2.2091,-1.9907,-1.8043,0.0,0.0,-1.2659,-1.2318,-1.2225,-1.1957,-1.2466,-1.3166,0.0,0.0,-1.6112,0.0,0.0,0.0,0.0,0.0,0.0,0.0,0.0,0.0,0.0,0.0,0.0,0.0,-2.2184,-2.1891,-2.1603,-2.157,-2.1423,-2.1156,-2.1122,-2.1109,-2.1109,-2.0842,-2.0702,-2.0661,-2.0094,-1.9826,-1.9786,0.0,0.0,0.0,-1.8925,-1.8738,-1.8424,-1.8156,-1.8029,-1.7969,-1.7689,-1.8401,-1.9583,0.0,0.0,0.0,0.0,0.0,0.0,0.0,0.0,0.0,0.0,0.0,0.0,0.0,0.0,0.0,0.0,0.0,0.0,0.0,0.0,0.0,0.0,0.0,0.0,0.0,0.0,0.0,0.0,0.0,0.0,0.0,0.0,0.0,0.0,0.0,0.0,0.0,0.0,0.0,0.0,0.0,0.0,0.0,0.0,0.0,0.0,0.0,0.0,0.0,0.0,0.0,0.0,-1.0648,-1.3417,0.0,0.0,-2.0408,-2.159,-2.3013,-2.3394,-2.328,-2.2812,-2.1196,-1.9199,-1.7241,0.0,-1.3667,-1.2532,-1.2164,-1.2058,-1.2118,-1.2325,-1.2692,-1.3347,-1.3353,0.0,0.0,0.0,0.0,0.0,0.0,0.0,0.0,0.0,0.0,0.0,0.0,0.0,0.0,0.0,-2.159,-2.1296,-2.1289,-2.1229,-2.1109,-2.0935,-2.0848,-2.0848,-2.0548,-2.0314,-2.014,-1.9907,-1.9706,-1.9533,0.0,0.0,0.0,-1.8998,-1.8751,-1.8464,-1.8163,-1.7929,-1.7756,-1.7629,-1.7891,-1.8589,0.0,0.0,0.0,0.0,0.0,0.0,0.0,0.0,0.0,0.0,0.0,0.0,0.0,0.0,0.0,0.0,0.0,0.0,0.0,0.0,0.0,0.0,0.0,0.0,0.0,0.0,0.0,0.0,0.0,0.0,0.0,0.0,0.0,0.0,0.0,0.0,0.0,0.0,0.0,0.0,0.0,0.0,0.0,0.0,0.0,0.0,0.0,0.0,0.0,0.0,0.0,0.0,0.0,0.0,-1.2763,0.0,-1.8684,-2.0047,-2.155,-2.2084,-2.2118,-2.1704,-2.0207,-1.8364,0.0,0.0,-1.3367,-1.2378,-1.2011,-1.1931,-1.2138,-1.2178,-1.2298,-1.2761,-1.2552,-1.3093,0.0,0.0,0.0,0.0,0.0,0.0,0.0,0.0,0.0,0.0,0.0,0.0,0.0,0.0,-2.1236,-2.1109,-2.1109,-2.1109,-2.1109,-2.0822,-2.0675,-2.0675,-2.0287,-2.0,-1.98,-1.9713,-1.9559,0.0,0.0,0.0,0.0,-1.9145,-1.8885,-1.8591,-1.8297,-1.7989,-1.7709,-1.7615,-1.7891,-1.829,0.0,0.0,0.0,0.0,0.0,0.0,0.0,0.0,0.0,0.0,0.0,0.0,0.0,0.0,0.0,0.0,0.0,0.0,0.0,0.0,0.0,0.0,0.0,0.0,0.0,0.0,0.0,-0.6719,-0.7567,0.0,0.0,0.0,0.0,0.0,0.0,0.0,0.0,0.0,0.0,0.0,0.0,0.0,0.0,0.0,0.0,0.0,0.0,0.0,0.0,0.0,0.0,0.0,0.0,-0.8862,-0.989,-1.3864,-1.6667,-1.8704,-1.9586,-2.0254,-2.0702,-2.0695,-1.9132,-1.7288,0.0,0.0,-1.3307,-1.2118,-1.187,-1.187,-1.187,-1.187,-1.2064,-1.2728,-1.324,0.0,0.0,0.0,0.0,0.0,0.0,0.0,0.0,0.0,0.0,0.0,0.0,0.0,0.0,0.0,-2.0815,-2.1102,-2.1109,-2.1109,-2.1109,-2.0822,-2.0675,-2.0668,-2.0087,-1.9806,-1.9786,-1.9506,0.0,0.0,0.0,0.0,0.0,-1.9366,-1.9185,-1.8891,-1.8597,-1.8303,-1.8003,-1.7695,-1.8401,-1.9583,0.0,0.0,0.0,0.0,0.0,0.0,0.0,0.0,0.0,0.0,0.0,0.0,0.0,0.0,0.0,0.0,0.0,0.0,0.0,0.0,0.0,0.0,0.0,0.0,0.0,0.0,-0.679,-0.8294,-0.8659,-0.9332,-1.0174,0.0,0.0,0.0,0.0,0.0,0.0,0.0,0.0,0.0,0.0,0.0,0.0,0.0,0.0,0.0,0.0,0.0,0.0,0.0,0.0,0.0,0.0,0.0,0.0,-1.1761,-1.4222,0.0,-1.7148,-1.7669,-1.7869,-1.7462,-1.6573,-1.5538,-1.4556,-1.3661,-1.2806,-1.2031,-1.187,-1.1804,-1.1603,-1.173,-1.2136,-1.2728,-1.2906,0.0,0.0,0.0,0.0,0.0,0.0,0.0,0.0,0.0,0.0,0.0,0.0,0.0,0.0,0.0,-2.0601,-2.1096,-2.0915,-2.0815,-2.0815,-2.0521,-2.0274,-2.0074,-1.9693,-1.9506,-1.9499,-1.9412,0.0,0.0,0.0,0.0,0.0,-1.8931,-1.8711,-1.8577,-1.807,-1.7816,-1.7716,-1.7615,-1.7891,-1.815,0.0,0.0,0.0,0.0,0.0,0.0,0.0,0.0,0.0,0.0,0.0,0.0,0.0,0.0,0.0,0.0,0.0,0.0,0.0,0.0,0.0,0.0,0.0,0.0,0.0,-0.6401,-0.6807,-0.8,-0.8885,-0.9594,-1.011,-1.054,-1.0732,0.0,0.0,0.0,0.0,0.0,0.0,0.0,0.0,0.0,-0.6216,0.0,0.0,0.0,0.0,0.0,0.0,0.0,0.0,0.0,0.0,0.0,0.0,0.0,-1.2385,-1.3874,0.0,-1.5571,-1.5792,-1.5424,-1.4816,0.0,0.0,-1.2846,-1.2352,-1.1804,-1.1617,-1.1516,-1.1443,-1.149,-1.173,-1.2392,-1.2674,0.0,0.0,0.0,0.0,0.0,0.0,0.0,0.0,0.0,0.0,0.0,0.0,0.0,0.0,0.0,-2.0287,-2.0762,-2.0601,-2.0508,-2.0508,-2.0214,-1.998,-1.98,-1.9506,-1.9366,-1.9366,0.0,0.0,0.0,0.0,0.0,0.0,-1.8851,-1.8591,-1.8444,-1.7949,-1.7689,-1.7582,-1.7582,-1.7515,-1.7479,0.0,0.0,0.0,0.0,0.0,0.0,0.0,0.0,0.0,0.0,0.0,0.0,0.0,0.0,0.0,0.0,0.0,0.0,0.0,0.0,0.0,0.0,0.0,0.0,0.0,-0.5675,-0.6241,-0.655,-0.851,-0.9438,-0.9461,-1.0607,-1.0922,-1.0685,-1.0685,-1.0421,-1.0047,-0.9422,-0.8775,-0.8026,-0.7223,-0.6552,0.0,0.0,0.0,0.0,0.0,0.0,0.0,0.0,0.0,0.0,0.0,0.0,0.0,0.0,0.0,0.0,0.0,-1.3765,0.0,0.0,0.0,0.0,-1.2761,-1.2271,0.0,-1.145,-1.1182,-1.1089,-1.1403,-1.1223,-1.1243,-1.1917,-1.254,0.0,0.0,0.0,0.0,0.0,0.0,0.0,0.0,0.0,0.0,0.0,0.0,0.0,0.0,0.0,0.0,-2.0134,-2.014,-2.016,-2.0201,-1.9933,-1.9786,-1.9766,-1.9499,-1.9366,-1.9366,0.0,0.0,0.0,0.0,0.0,0.0,-1.8985,-1.8704,-1.843,-1.813,-1.7836,-1.7582,-1.7582,-1.7402,-1.7306,0.0,0.0,0.0,0.0,0.0,0.0,0.0,0.0,0.0,0.0,0.0,0.0,0.0,0.0,0.0,0.0,0.0,0.0,0.0,0.0,0.0,0.0,0.0,0.0,0.0,-0.6418,-0.7274,-0.8099,-0.9755,-1.0738,-1.0892,-1.168,-1.1717,-1.1223,-1.1223,-1.0688,-0.976,-0.9392,-0.8325,-0.6942,-0.6773,-0.601,0.0,0.0,0.0,0.0,-0.5118,-0.5335,0.0,0.0,0.0,0.0,0.0,0.0,0.0,0.0,-1.0333,-1.0989,-1.0424,0.0,-1.2044,-1.1603,-1.1503,-1.1496,0.0,-1.1296,-1.1176,-1.1109,-1.1042,-1.1149,-1.167,-1.1523,-1.1817,-1.332,-1.3494,0.0,0.0,0.0,0.0,0.0,0.0,0.0,0.0,0.0,0.0,0.0,0.0,0.0,0.0,0.0,0.0,-1.9239,-1.9232,-1.9446,-1.99,-1.9833,-1.9686,-1.9466,-1.9399,-1.9366,-1.9366,0.0,0.0,0.0,0.0,0.0,-1.8671,-1.8377,-1.821,-1.8123,-1.7809,-1.7649,-1.7582,-1.7582,-1.7402,-1.7306,0.0,0.0,0.0,0.0,0.0,0.0,0.0,0.0,0.0,0.0,0.0,0.0,0.0,0.0,0.0,0.0,0.0,0.0,0.0,0.0,0.0,0.0,0.0,0.0,-0.5642,-0.643,-0.7488,-0.8789,-1.0173,-1.1082,-1.1637,-1.1951,-1.1864,-1.1403,-1.0868,-1.02,-0.9459,-0.9165,-0.8292,-0.7074,-0.675,0.0,0.0,0.0,0.0,0.0,-0.4904,-0.5229,0.0,-0.6476,-0.6912,-0.735,0.0,0.0,0.0,0.0,-0.9217,-0.997,-0.9316,-1.0375,-1.1516,-1.1069,-1.1076,-1.1189,-1.1189,-1.0982,-1.0795,-1.0795,-1.0795,-1.0935,-1.1383,-1.1336,-1.1717,0.0,0.0,0.0,0.0,0.0,0.0,0.0,0.0,0.0,0.0,0.0,0.0,0.0,0.0,0.0,0.0,0.0,0.0,0.0,-1.8791,-1.8938,-1.9392,-1.9399,-1.9319,-1.9165,-1.9165,-1.9098,-1.8965,0.0,0.0,0.0,0.0,0.0,-1.847,-1.817,-1.805,-1.8003,-1.7555,-1.7382,-1.7368,-1.7228,-1.6994,-1.692,0.0,0.0,0.0,0.0,0.0,0.0,0.0,0.0,0.0,0.0,0.0,0.0,0.0,0.0,0.0,0.0,0.0,0.0,0.0,0.0,0.0,0.0,0.0,-0.5014,-0.5749,-0.6436,-0.7531,-0.9181,-1.0179,-1.1122,-1.1937,-1.2078,-1.1884,-1.1376,-1.0247,-0.9559,-0.917,-0.8978,-0.8359,-0.745,-0.6858,0.0,0.0,0.0,0.0,0.0,0.0,0.0,0.0,-0.5439,-0.627,-0.7382,-0.6773,0.0,0.0,0.0,0.0,0.0,-0.8657,-1.0195,-1.1642,-1.1374,-1.143,-1.1483,-1.1436,-1.1049,-1.0695,0.0,0.0,0.0,0.0,-1.1256,0.0,0.0,0.0,0.0,0.0,0.0,0.0,0.0,0.0,0.0,0.0,0.0,0.0,0.0,0.0,0.0,0.0,0.0,0.0,0.0,-1.7974,-1.785,-1.8088,-1.8599,-1.8738,-1.8505,-1.8738,-1.8731,-1.849,-1.849,0.0,0.0,0.0,0.0,-1.827,-1.8063,-1.7976,-1.7923,-1.7415,-1.7188,-1.7121,-1.6867,-1.656,-1.6454,0.0,0.0,0.0,0.0,0.0,0.0,0.0,0.0,0.0,0.0,0.0,0.0,0.0,0.0,0.0,0.0,0.0,0.0,0.0,0.0,0.0,0.0,-0.5058,-0.5839,-0.6859,-0.7285,-0.8329,-0.9932,-1.0843,-1.1617,-1.2251,-1.3013,-1.2672,-1.1383,-1.0461,-0.9746,-0.9183,-0.9137,-0.8197,-0.675,-0.6642,0.0,0.0,0.0,0.0,0.0,0.0,0.0,0.0,-0.6009,-0.6203,-0.6565,-0.711,0.0,0.0,0.0,0.0,0.0,-0.7168,-0.8964,-1.1012,-1.1055,-1.1436,-1.1737,-1.1483,-1.1356,-1.1289,0.0,0.0,0.0,0.0,-1.2553,0.0,0.0,0.0,0.0,0.0,0.0,0.0,0.0,0.0,0.0,0.0,0.0,0.0,0.0,0.0,0.0,0.0,0.0,0.0,0.0,0.0,-1.4441,-1.4478,-1.7179,-1.7974,-1.67,-1.7974,-1.8537,-1.849,-1.849,-1.821,0.0,0.0,-1.7829,-1.7368,-1.7569,-1.7655,-1.7642,-1.7555,-1.7368,-1.7148,-1.7094,-1.674,-1.6614,0.0,0.0,0.0,0.0,0.0,0.0,0.0,0.0,0.0,0.0,0.0,0.0,0.0,0.0,0.0,0.0,0.0,0.0,0.0,0.0,0.0,-0.5003,-0.5865,-0.6638,-0.7322,-0.7915,-0.9135,-1.1062,-1.1463,-1.2051,-1.2786,-1.2552,-1.1824,-1.0688,-0.9967,-0.9406,-0.9005,-0.9005,-0.8267,-0.7182,0.0,0.0,0.0,0.0,0.0,0.0,0.0,0.0,0.0,0.0,-0.5373,-0.5432,-0.5843,0.0,0.0,0.0,0.0,0.0,-0.6471,-0.8168,-1.0172,-1.034,-1.1383,-1.2265,-1.1964,-1.1777,-1.171,0.0,0.0,0.0,0.0,0.0,0.0,0.0,0.0,0.0,0.0,0.0,0.0,0.0,0.0,0.0,0.0,0.0,0.0,0.0,0.0,0.0,0.0,0.0,0.0,0.0,0.0,0.0,-1.2098,-1.4344,-1.5689,-1.6091,-1.7566,-1.8163,-1.7996,-1.7836,-1.7615,-1.7348,0.0,-1.7161,-1.6934,-1.7228,-1.7255,-1.7128,-1.7281,-1.7074,-1.6653,-1.65,-1.6746,-1.7326,0.0,0.0,0.0,0.0,0.0,0.0,0.0,0.0,0.0,0.0,0.0,0.0,0.0,0.0,0.0,0.0,0.0,0.0,0.0,0.0,-0.4787,-0.5487,-0.6466,-0.7276,-0.7855,-0.8639,-1.0015,-1.187,-1.1937,-1.2291,-1.2872,-1.1817,-1.0855,-0.9993,-0.9416,-0.9078,-0.8804,-0.8804,-0.8262,-0.7396,0.0,0.0,0.0,0.0,0.0,0.0,0.0,0.0,0.0,0.0,0.0,0.0,0.0,0.0,0.0,-0.4752,-0.5433,-0.6355,-0.588,-0.74,-0.9169,-0.9419,-1.0999,-1.2614,-1.2518,-1.2285,-1.2198,-1.2632,0.0,0.0,0.0,0.0,0.0,0.0,0.0,0.0,0.0,0.0,0.0,0.0,0.0,0.0,0.0,0.0,0.0,0.0,0.0,0.0,0.0,0.0,0.0,0.0,0.0,0.0,-1.0231,-1.1573,-1.3304,-1.5292,-1.6555,-1.7318,-1.7468,-1.7181,-1.7007,-1.6934,-1.6774,-1.6667,-1.6633,-1.7001,-1.7014,-1.684,-1.7134,-1.6894,-1.6333,-1.5965,-1.6574,-1.787,0.0,0.0,0.0,0.0,0.0,0.0,0.0,0.0,0.0,0.0,0.0,0.0,0.0,0.0,0.0,0.0,0.0,0.0,0.0,0.0,-0.4787,-0.5487,-0.6218,-0.7357,-0.8888,-0.9906,-1.0949,-1.187,-1.2138,-1.2164,-1.1951,-1.1323,-1.0555,-0.9699,-0.9379,-0.9078,-0.8804,-0.8804,-0.799,-0.6696,-0.6642,0.0,0.0,0.0,0.0,0.0,0.0,0.0,0.0,0.0,0.0,0.0,0.0,0.0,-0.4601,-0.4522,-0.4581,-0.4706,-0.4942,-0.6494,-0.809,-0.8125,-1.0083,-1.2144,-1.2959,-1.2906,-1.3003,-1.3781,0.0,0.0,0.0,0.0,0.0,0.0,0.0,0.0,0.0,0.0,0.0,0.0,0.0,0.0,0.0,0.0,0.0,0.0,0.0,0.0,0.0,0.0,0.0,0.0,0.0,0.0,-0.8689,-1.0132,-1.1685,-1.3177,-1.4424,-1.5781,-1.7174,-1.6874,-1.6593,-1.6353,-1.66,-1.6553,-1.6346,-1.6914,-1.7141,-1.7148,-1.7435,-1.7194,-1.6607,-1.6039,-1.6574,-1.7684,0.0,0.0,0.0,0.0,0.0,0.0,0.0,0.0,0.0,0.0,0.0,0.0,0.0,0.0,0.0,0.0,0.0,0.0,0.0,0.0,-0.4787,-0.5487,-0.6382,-0.726,-0.8023,-0.9511,-1.0802,-1.187,-1.179,-1.1703,-1.1577,-1.0621,-1.0,-0.9659,-0.9185,-0.9011,-0.901,-0.8391,-0.7655,-0.6834,-0.6196,-0.5332,0.0,0.0,0.0,0.0,0.0,0.0,0.0,0.0,-0.4519,-0.4519,-0.4519,-0.4519,-0.4519,-0.4519,-0.4787,-0.503,-0.4716,-0.6598,-0.8522,-0.8117,-0.9802,-1.1824,-1.2719,-1.326,-1.3781,-1.4482,-1.4776,0.0,0.0,0.0,0.0,0.0,0.0,0.0,0.0,0.0,0.0,0.0,0.0,0.0,0.0,0.0,0.0,0.0,0.0,0.0,0.0,0.0,0.0,0.0,0.0,0.0,0.0,-0.8704,-1.0192,-1.2628,-1.4106,-1.5518,-1.6867,-1.6573,-1.638,-1.6266,-1.6192,-1.6099,-1.6025,-1.644,-1.6493,-1.6339,-1.6453,-1.6466,-1.6386,-1.5979,-1.6574,-1.7692,0.0,0.0,0.0,0.0,0.0,0.0,0.0,0.0,0.0,0.0,0.0,0.0,0.0,0.0,0.0,0.0,0.0,0.0,0.0,-0.4519,-0.4787,-0.5487,-0.6225,-0.6852,-0.7369,-0.854,-0.9838,-1.1235,-1.116,-1.1056,-1.0862,-1.006,-0.9633,-0.9526,-0.9125,-0.9105,-0.9296,-0.8196,-0.7488,-0.7012,-0.5949,-0.5109,0.0,0.0,0.0,0.0,0.0,0.0,0.0,0.0,-0.4519,-0.4519,-0.4519,-0.4519,-0.4519,-0.4519,-0.4842,-0.5109,-0.4625,-0.6213,-0.8001,-0.7968,-0.9586,-1.1462,-1.2729,-1.3507,-1.4222,-1.5184,-1.5384,-1.5364,0.0,0.0,0.0,0.0,0.0,0.0,0.0,0.0,0.0,0.0,0.0,0.0,0.0,0.0,0.0,0.0,0.0,0.0,0.0,0.0,0.0,0.0,0.0,0.0,0.0,-0.8038,-0.9275,-1.1681,-1.272,-1.4448,-1.656,-1.6266,-1.6132,-1.6119,-1.5919,-1.5832,-1.5852,-1.6152,-1.6206,-1.6099,-1.6005,-1.6092,-1.6239,-1.5939,-1.6386,-1.7131,0.0,0.0,0.0,0.0,0.0,0.0,0.0,0.0,0.0,0.0,0.0,0.0,0.0,0.0,0.0,0.0,0.0,0.0,-0.4519,-0.4519,-0.4787,-0.5487,-0.5487,-0.6018,-0.7023,-0.7084,-0.8001,-0.9898,-1.0361,-1.0254,-0.9686,-0.9686,-0.9526,-0.9183,-0.919,-0.9406,-0.9582,-0.8276,-0.7488,-0.7012,-0.5949,-0.5109,-0.4519,0.0,0.0,0.0,0.0,0.0,0.0,0.0,-0.4519,-0.4519,-0.4519,-0.4519,-0.4519,-0.4519,-0.4519,-0.4519,-0.4519,-0.5133,-0.6151,-0.7649,0.0,0.0,-1.3133,-1.3572,-1.4155,-1.5905,-1.5805,-1.5484,-1.5772,0.0,0.0,0.0,0.0,0.0,0.0,0.0,0.0,0.0,0.0,0.0,0.0,0.0,0.0,0.0,0.0,0.0,0.0,0.0,0.0,0.0,0.0,0.0,0.0,-0.8038,-0.8726,-0.9998,-0.9998,-1.2253,-1.6259,-1.5965,-1.5825,-1.5832,-1.5832,-1.5832,-1.5852,-1.6146,-1.644,-1.6667,-1.638,-1.6273,-1.6233,-1.5939,-1.5832,-1.5832,0.0,0.0,0.0,0.0,0.0,0.0,0.0,0.0,0.0,0.0,0.0,0.0,0.0,0.0,0.0,0.0,0.0,0.0,0.0,-0.4519,-0.457,-0.4787,-0.5273,-0.5407,-0.5302,-0.5742,-0.6954,-0.8955,-0.8936,-0.9176,-0.9686,-0.9686,-0.9526,-0.919,-0.9459,-0.9486,-0.9233,-0.7592,-0.6989,-0.6956,-0.5405,-0.468,-0.4519,0.0,0.0,0.0,0.0,0.0,0.0,0.0,0.0,0.0,-0.4519,-0.4519,-0.4519,-0.4519,-0.4519,-0.4539,-0.4596,-0.5424,0.0,-0.7037,0.0,0.0,0.0,-1.3649,0.0,0.0,-1.5658,-1.5424,0.0,0.0,0.0,0.0,0.0,0.0,0.0,0.0,0.0,0.0,0.0,0.0,0.0,0.0,0.0,0.0,0.0,0.0,0.0,0.0,0.0,0.0,0.0,0.0,0.0,0.0,-0.9114,-1.1365,-1.1365,-1.2462,-1.4576,-1.4496,-1.4949,-1.5832,-1.5832,-1.5832,-1.5838,-1.5925,-1.6012,-1.6079,-1.5992,-1.5965,-1.5952,-1.5865,-1.5832,-1.5832,0.0,0.0,0.0,0.0,0.0,0.0,0.0,0.0,0.0,0.0,-0.4412,-0.4399,0.0,0.0,0.0,0.0,0.0,0.0,0.0,0.0,-0.4519,-0.4519,-0.4893,-0.4897,-0.4519,-0.4893,-0.599,-0.7784,-0.7917,-0.8484,-0.9339,-0.9573,-0.9586,-0.9426,-0.9311,-0.9234,-0.8965,-0.7025,-0.6377,-0.6549,-0.5075,-0.4519,-0.4519,0.0,0.0,0.0,0.0,0.0,0.0,0.0,0.0,0.0,-0.4519,-0.4519,-0.4519,-0.4519,-0.4519,-0.4553,-0.465,-0.5255,0.0,-0.6839,-0.868,-1.0712,-1.2377,0.0,0.0,0.0,0.0,0.0,0.0,0.0,0.0,0.0,0.0,0.0,0.0,0.0,0.0,0.0,0.0,0.0,0.0,0.0,0.0,0.0,0.0,0.0,0.0,0.0,0.0,0.0,0.0,0.0,0.0,0.0,0.0,-1.0386,-1.0386,-1.1068,-1.242,-1.3974,-1.5045,-1.5832,-1.5832,-1.5832,-1.5832,-1.5832,-1.5832,-1.5832,-1.5832,-1.5832,-1.5832,-1.5832,-1.5832,-1.5832,0.0,0.0,0.0,0.0,0.0,0.0,0.0,0.0,0.0,0.0,-0.4348,-0.4317,0.0,0.0,0.0,0.0,0.0,0.0,0.0,0.0,-0.4519,-0.4519,-0.4519,-0.4519,-0.4519,-0.4519,-0.5171,-0.648,-0.7235,-0.7996,-0.8824,-0.9432,-0.9679,-0.9491,-0.8968,-0.8735,-0.8661,-0.6487,-0.575,-0.5892,-0.4901,-0.4519,-0.4519,-0.4519,0.0,0.0,0.0,0.0,0.0,0.0,0.0,0.0,-0.4519,-0.4519,-0.4519,-0.4519,-0.4519,-0.4556,-0.4667,-0.4908,0.0,-0.6834,-0.8051,0.0,-1.2682,-1.4715,-1.6016,0.0,0.0,0.0,0.0,0.0,0.0,0.0,0.0,0.0,0.0,0.0,0.0,0.0,0.0,0.0,0.0,0.0,0.0,0.0,0.0,0.0,0.0,0.0,0.0,0.0,0.0,0.0,0.0,0.0,0.0,0.0,-0.8093,-0.8882,-1.0266,-1.3872,-1.5534,-1.5832,-1.5832,-1.5832,-1.5832,-1.5832,-1.5832,-1.5832,-1.5832,-1.5832,-1.5832,-1.5832,-1.5832,-1.5832,0.0,0.0,0.0,0.0,0.0,0.0,0.0,0.0,0.0,0.0,0.0,0.0,0.0,0.0,0.0,0.0,0.0,0.0,0.0,0.0,-0.4519,-0.4519,-0.4519,-0.4519,-0.4519,-0.4519,-0.4897,-0.576,-0.6475,-0.7503,-0.8824,-0.9639,-0.9356,-0.819,-0.9298,-0.878,-0.7067,-0.6589,-0.6059,-0.5542,-0.4802,-0.4519,-0.4519,-0.4519,-0.4519,0.0,0.0,0.0,0.0,0.0,0.0,0.0,-0.4519,-0.4519,-0.4519,-0.4519,-0.4519,-0.4577,-0.4796,-0.4914,0.0,0.0,-0.7967,-1.0017,-1.2683,-1.3624,0.0,0.0,0.0,0.0,0.0,0.0,0.0,0.0,0.0,0.0,0.0,0.0,0.0,0.0,0.0,0.0,0.0,0.0,0.0,0.0,0.0,0.0,0.0,0.0,0.0,0.0,0.0,0.0,-0.7695,-0.7695,-0.8157,0.0,-0.9177,-0.991,-1.1402,-1.2346,-1.3884,-1.5832,-1.5832,-1.5832,-1.5832,-1.5832,-1.5832,-1.5832,-1.5832,-1.5832,-1.5832,-1.5832,-1.5832,-1.5832,0.0,0.0,0.0,0.0,0.0,0.0,0.0,0.0,0.0,0.0,0.0,0.0,0.0,0.0,0.0,0.0,0.0,0.0,0.0,0.0,0.0,0.0,-0.4519,-0.4519,-0.4519,-0.4519,-0.4842,-0.5487,-0.5869,-0.6905,-0.853,-0.9453,-0.9317,-0.8218,-0.8681,-0.7929,-0.6374,-0.5848,-0.5386,-0.5003,-0.4625,-0.4519,-0.4519,-0.4519,-0.4519,-0.4519,-0.4519,0.0,0.0,0.0,0.0,0.0,0.0,0.0,-0.4519,-0.4519,-0.4519,-0.457,-0.4748,0.0,0.0,-0.6227,0.0,-0.966,-1.1131,0.0,0.0,0.0,0.0,0.0,0.0,0.0,0.0,0.0,0.0,0.0,0.0,0.0,0.0,0.0,0.0,0.0,0.0,0.0,0.0,0.0,0.0,0.0,0.0,0.0,0.0,0.0,0.0,0.0,-0.76,-0.76,-0.7966,-0.861,-0.861,-0.9299,-1.0702,-1.1487,-1.2549,-1.3892,-1.4565,-1.476,-1.4867,-1.5481,-1.5832,-1.5832,-1.5832,-1.5832,-1.5832,-1.5832,-1.5832,-1.5832,0.0,0.0,0.0,0.0,0.0,0.0,0.0,0.0,0.0,0.0,0.0,0.0,0.0,0.0,0.0,0.0,0.0,0.0,0.0,0.0,0.0,0.0,-0.4519,-0.4519,-0.4519,-0.4519,-0.4787,-0.5324,-0.5433,-0.6336,-0.7897,-0.8823,-0.8955,-0.8293,-0.7735,-0.6918,-0.5854,-0.5024,-0.4625,-0.4519,-0.4519,-0.4519,-0.4519,-0.4519,-0.4519,-0.4519,-0.4519,-0.4519,-0.4519,-0.4519,0.0,0.0,0.0,0.0,-0.4519,-0.4519,-0.4519,-0.4553,-0.465,0.0,-0.543,-0.6356,-0.7659,0.0,-0.9255,0.0,0.0,0.0,0.0,0.0,0.0,0.0,0.0,0.0,0.0,0.0,0.0,0.0,0.0,0.0,0.0,0.0,0.0,0.0,0.0,0.0,0.0,0.0,0.0,0.0,0.0,0.0,0.0,-0.7509,-0.7485,-0.7509,-0.7509,-0.7485,-0.7536,-0.8106,-0.9204,-1.0384,-1.1234,-1.1744,-1.3151,-1.3743,-1.3818,-1.5227,-1.5832,-1.5832,-1.5832,-1.5832,-1.5832,-1.5832,-1.5832,-1.5832,0.0,0.0,0.0,0.0,0.0,0.0,0.0,0.0,0.0,0.0,0.0,0.0,0.0,0.0,0.0,0.0,0.0,0.0,-0.4519,0.0,0.0,-0.4519,-0.4519,-0.4519,-0.4519,-0.4519,-0.4519,-0.4625,-0.5218,-0.5918,-0.6679,-0.731,-0.719,-0.6384,-0.7066,-0.6425,-0.494,-0.525,-0.5058,-0.4519,-0.4519,-0.4519,-0.4519,-0.4519,-0.4519,-0.4519,-0.4519,-0.4519,-0.4519,-0.4519,-0.4519,0.0,0.0,0.0,0.0,-0.4519,-0.4519,-0.4553,0.0,0.0,-0.5623,0.0,-0.66,-0.7264,0.0,0.0,0.0,0.0,0.0,0.0,0.0,0.0,0.0,0.0,0.0,0.0,0.0,0.0,0.0,0.0,0.0,0.0,0.0,0.0,0.0,0.0,0.0,0.0,0.0,0.0,-0.7065,-0.717,-0.719,0.0,-0.7017,-0.7139,-0.7139,-0.7021,-0.7278,-0.7492,-0.7671,-0.7872,-0.923,-1.1615,-1.3153,-1.3803,-1.3818,-1.5227,-1.5832,-1.5832,-1.5832,-1.5832,-1.5832,-1.5832,-1.5832,-1.5832,0.0,0.0,0.0,0.0,0.0,0.0,0.0,0.0,0.0,0.0,0.0,0.0,0.0,0.0,0.0,-0.4519,-0.4519,-0.4519,-0.4519,-0.4519,-0.4519,-0.4519,-0.4519,-0.4519,-0.4519,-0.4519,-0.4519,-0.4519,-0.4787,-0.5159,-0.5566,-0.5883,-0.624,-0.6659,-0.6834,-0.6191,-0.4918,-0.4929,-0.4787,-0.4519,-0.4519,-0.4519,-0.4519,-0.4519,-0.4519,-0.4519,-0.4519,-0.4519,-0.4519,-0.4519,-0.4519,-0.4519,-0.4519,0.0,0.0,0.0,-0.4519,-0.4553,-0.465,-0.4945,-0.5284,0.0,-0.5928,-0.6371,0.0,0.0,0.0,0.0,0.0,0.0,0.0,0.0,0.0,0.0,0.0,0.0,0.0,0.0,0.0,0.0,0.0,0.0,0.0,0.0,0.0,0.0,0.0,0.0,0.0,-0.68,-0.6868,-0.7017,-0.6939,0.0,-0.6929,-0.699,-0.7031,-0.7048,-0.718,-0.7241,-0.7244,-0.7333,-0.8037,-0.9292,-1.0745,-1.177,-1.2559,-1.4042,-1.5106,-1.5832,-1.5832,-1.5832,-1.5832,-1.5832,-1.5832,-1.5832,0.0,0.0,0.0,0.0,0.0,0.0,0.0,0.0,0.0,0.0,0.0,0.0,0.0,0.0,0.0,0.0,-0.4519,-0.4519,-0.4519,-0.4519,-0.4519,-0.4519,-0.4294,-0.4294,-0.4519,-0.4294,-0.4294,-0.4519,-0.4519,-0.4619,-0.4921,-0.5064,-0.5657,-0.6658,-0.6511,-0.594,-0.5053,-0.4721,-0.4555,-0.4573,-0.4532,-0.4519,-0.4519,-0.4519,-0.4519,-0.4519,-0.4519,-0.4519,-0.446,-0.4239,-0.4184,-0.4184,-0.4239,0.0,0.0,0.0,0.0,0.0,0.0,0.0,-0.4925,-0.5186,-0.544,-0.5671,0.0,0.0,0.0,0.0,0.0,0.0,0.0,0.0,0.0,0.0,0.0,0.0,0.0,0.0,0.0,0.0,0.0,0.0,0.0,0.0,0.0,0.0,0.0,0.0,-0.6664,-0.6586,-0.6675,-0.6865,-0.6759,-0.6736,-0.6814,-0.6814,-0.6885,-0.7031,-0.7068,-0.7088,-0.7092,-0.7244,-0.7312,-0.7406,-0.9104,-1.0371,-1.1572,-1.3297,-1.4701,-1.5718,-1.5718,-1.5765,-1.5832,-1.5832,-1.5832,-1.5832,0.0,0.0,0.0,0.0,0.0,0.0,0.0,0.0,0.0,0.0,0.0,0.0,-0.4519,-0.4519,-0.4519,-0.4519,-0.4519,-0.4519,-0.4519,-0.4519,-0.4519,-0.4519,-0.379,0.0,-0.4463,-0.379,-0.379,-0.4519,-0.4519,-0.4619,-0.4921,-0.5064,-0.5223,-0.5522,-0.559,-0.5404,-0.4928,-0.4904,-0.4813,-0.4667,-0.4577,-0.4519,-0.4519,-0.4519,-0.4519,-0.4519,-0.4519,0.0,0.0,-0.3622,0.0,0.0,0.0,0.0,0.0,0.0,0.0,0.0,0.0,-0.4068,0.0,-0.4901,0.0,0.0,0.0,0.0,0.0,0.0,0.0,0.0,0.0,0.0,0.0,0.0,0.0,0.0,0.0,0.0,0.0,0.0,0.0,0.0,0.0,0.0,0.0,0.0,0.0,0.0,-0.6345,-0.6285,-0.6417,-0.6705,-0.6705,-0.6634,-0.6498,-0.6498,-0.6573,-0.6725,-0.6871,-0.6939,-0.6946,-0.7088,-0.7153,-0.7255,-0.9994,-1.1146,-1.1337,-1.3854,-1.5157,-1.5418,-1.5418,-1.5585,-1.5832,-1.5832,-1.5832,-1.5832,0.0,0.0,0.0,0.0,0.0,0.0,0.0,0.0,0.0,0.0,0.0,0.0,0.0,-0.4519,-0.4519,-0.4519,-0.4519,-0.4519,-0.4519,-0.4519,-0.4294,-0.379,-0.3456,-0.3456,-0.3732,-0.3511,-0.3735,-0.4519,-0.4519,-0.4568,-0.4775,-0.4925,-0.4972,-0.4942,-0.5186,-0.5155,-0.4908,-0.4711,-0.4596,0.0,0.0,-0.4519,-0.446,-0.3901,0.0,0.0,0.0,0.0,0.0,0.0,0.0,0.0,0.0,0.0,0.0,0.0,0.0,0.0,0.0,0.0,0.0,-0.4613,0.0,0.0,0.0,0.0,0.0,0.0,0.0,0.0,0.0,0.0,0.0,0.0,0.0,0.0,0.0,0.0,0.0,0.0,0.0,0.0,0.0,0.0,0.0,0.0,0.0,0.0,-0.6101,-0.6112,-0.6247,-0.6546,-0.6464,-0.6434,-0.6471,-0.6471,-0.6549,-0.6702,-0.6756,-0.6834,-0.6929,-0.6983,-0.7054,-0.7234,-0.9025,-0.9826,-1.006,-1.0945,-1.2383,-1.3908,-1.3158,-1.3401,-1.4075,-1.3385,-1.3159,-1.3277,0.0,0.0,0.0,0.0,0.0,0.0,0.0,0.0,0.0,-0.4519,0.0,0.0,0.0,0.0,-0.4519,-0.4519,-0.4519,-0.4519,-0.4519,-0.4519,-0.4181,-0.3456,-0.3121,-0.2954,-0.2954,-0.2954,-0.3234,-0.3735,-0.4236,-0.4402,-0.427,-0.4601,-0.4711,-0.4623,-0.4819,-0.4884,-0.4833,0.0,0.0,-0.4535,0.0,0.0,-0.4429,0.0,0.0,0.0,0.0,0.0,0.0,0.0,0.0,0.0,0.0,0.0,0.0,0.0,0.0,0.0,-0.2621,0.0,0.0,0.0,0.0,0.0,0.0,0.0,0.0,0.0,0.0,0.0,0.0,0.0,0.0,0.0,0.0,0.0,0.0,0.0,0.0,0.0,0.0,0.0,0.0,0.0,0.0,0.0,0.0,0.0,-0.5874,-0.5881,-0.5993,-0.624,-0.6156,-0.6176,-0.6322,-0.6322,-0.64,-0.6552,-0.66,-0.6678,-0.6776,-0.6827,-0.6905,-0.6993,-0.7849,-0.8586,-0.9161,-0.9602,-1.0791,-1.2445,-1.1621,-1.185,-1.2586,-1.1905,-1.1874,-1.2373,0.0,0.0,0.0,0.0,0.0,0.0,0.0,0.0,-0.446,-0.446,0.0,0.0,0.0,0.0,0.0,-0.4519,-0.446,-0.446,-0.4519,-0.446,-0.4125,-0.34,-0.2621,-0.2174,-0.2174,-0.2174,-0.2174,-0.2174,-0.368,-0.407,-0.34,-0.4125,-0.446,-0.4519,-0.4519,-0.4545,-0.4694,0.0,-0.4823,-0.4558,0.0,-0.3868,-0.4468,0.0,0.0,0.0,-0.2451,-0.2164,0.0,0.0,0.0,0.0,0.0,0.0,0.0,0.0,0.0,0.0,0.0,0.0,0.0,0.0,0.0,0.0,0.0,0.0,0.0,0.0,0.0,0.0,0.0,0.0,0.0,0.0,0.0,0.0,0.0,0.0,0.0,0.0,0.0,0.0,0.0,0.0,0.0,0.0,0.0,-0.543,-0.5583,-0.5593,-0.5657,-0.5796,-0.58,-0.5874,-0.602,-0.6023,-0.6098,-0.6247,-0.639,-0.6461,-0.6471,-0.6624,-0.6698,-0.6702,-0.6702,-0.7535,-0.896,-0.9995,-1.0727,-1.1013,-1.1018,-1.115,-1.1436,-1.1349,-1.2091,-1.3059,0.0,0.0,0.0,0.0,0.0,0.0,0.0,0.0,-0.3622,0.0,0.0,0.0,-0.3622,-0.4125,-0.4519,-0.4519,-0.3956,-0.3901,-0.446,-0.3456,-0.2732,-0.2565,-0.1786,-0.1396,-0.1396,-0.1396,-0.1675,-0.2174,-0.2619,-0.301,-0.3345,0.0,-0.3959,-0.4519,-0.4519,-0.4539,-0.4584,-0.4572,0.0,-0.3796,-0.407,-0.364,0.0,0.0,0.0,0.0,0.0,-0.0629,-0.0567,0.0,-0.0671,-0.1118,0.0,0.0,0.0,0.0,0.0,0.0,-0.1174,0.0,0.0,0.0,0.0,0.0,0.0,0.0,0.0,0.0,0.0,0.0,0.0,0.0,0.0,0.0,0.0,0.0,0.0,0.0,0.0,0.0,0.0,0.0,0.0,0.0,0.0,0.0,0.0,-0.543,-0.5583,-0.5688,-0.5762,-0.58,-0.58,-0.5823,-0.5864,-0.5864,-0.5884,-0.5932,-0.6081,-0.621,-0.6325,-0.6468,-0.6597,-0.6702,-0.6702,-0.6913,-0.7333,-0.7788,-0.8459,-0.9289,-0.8468,-0.8814,-0.95,-0.8832,-0.8699,-0.9175,0.0,0.0,0.0,0.0,0.0,0.0,0.0,-0.3622,-0.3345,0.0,0.0,0.0,-0.3287,-0.3735,-0.3901,-0.3566,-0.3121,-0.3065,-0.3511,-0.2676,-0.2063,-0.173,-0.134,-0.095,-0.0671,-0.095,-0.1174,-0.1284,-0.1898,-0.2286,-0.2397,0.0,-0.3065,-0.3566,0.0,0.0,0.0,0.0,0.0,0.0,-0.3652,0.0,0.0,-0.1691,-0.1223,0.0,0.0,0.0,0.0,0.0,-0.028,0.0,0.0,0.0,0.0,0.0,0.0,0.0,0.0,0.0,0.0,0.0,0.0,0.0,0.0,-0.4239,0.0,0.0,0.0,0.0,0.0,0.0,0.0,0.0,0.0,0.0,0.0,0.0,0.0,0.0,0.0,0.0,0.0,0.0,0.0,0.0,-0.5267,-0.5332,-0.5488,-0.5572,-0.562,-0.562,-0.562,-0.5647,-0.5711,-0.5715,-0.5742,-0.5803,-0.5891,-0.5979,-0.6071,-0.6156,-0.624,-0.6329,-0.6393,-0.642,-0.6437,-0.6651,-0.7188,-0.7846,-0.7249,-0.7483,-0.8024,-0.7485,-0.7631,-0.8188,0.0,0.0,0.0,0.0,0.0,0.0,0.0,-0.3178,-0.3121,0.0,-0.3065,-0.3065,-0.3176,-0.3231,-0.2954,-0.2286,-0.212,-0.212,-0.2174,-0.2063,-0.1675,-0.1118,-0.1006,-0.0671,0.0,-0.0615,-0.0671,0.0,-0.134,-0.1675,-0.1118,-0.1786,-0.212,-0.2174,0.0,0.0,0.0,0.0,0.0,-0.4125,-0.2732,-0.2618,0.0,0.0,-0.0549,0.0,-0.0305,0.0,0.0,0.0,0.0,0.0,0.0,0.0,0.0,0.0,0.0,0.0,0.0,0.0,0.0,0.0,0.0,0.0,-0.3287,-0.3846,0.0,0.0,0.0,0.0,0.0,0.0,0.0,0.0,0.0,0.0,0.0,0.0,0.0,0.0,0.0,0.0,0.0,0.0,0.0,-0.5098,-0.5108,-0.5172,-0.5328,-0.5321,-0.5318,-0.5335,-0.5321,-0.5376,-0.5515,-0.5532,-0.5603,-0.5728,-0.5762,-0.5779,-0.5779,-0.5793,-0.58,-0.581,-0.5945,-0.6013,-0.6051,-0.6315,-0.6522,-0.6692,-0.6844,-0.6905,-0.6919,-0.7065,-0.7727,-0.8715,-0.0526,0.0,0.0,0.0,0.0,0.0,0.0,-0.1898,-0.1563,-0.1507,-0.1507,-0.173,-0.2343,-0.2452,-0.2399,-0.2232,-0.1675,-0.1563,-0.2174,-0.1062,-0.0615,-0.1062,-0.0504,-0.0168,0.0,-0.0168,-0.0168,0.0,-0.028,-0.0671,-0.1118,-0.1229,-0.1619,-0.2174,0.0,0.0,0.0,0.0,0.0,-0.2619,-0.2341,0.0,-0.0704,-0.0862,-0.0628,-0.0229,-0.0057,0.0,0.0,0.0,0.0,0.0,0.0,0.0,0.0,0.0,0.0,0.0,0.0,0.0,0.0,0.0,0.0,0.0,-0.3121,-0.3456,0.0,0.0,0.0,0.0,0.0,0.0,0.0,0.0,0.0,0.0,0.0,0.0,0.0,0.0,0.0,0.0,0.0,0.0,-0.4931,-0.4958,-0.4958,-0.5023,-0.5169,-0.5067,-0.5057,-0.5172,-0.5067,-0.502,-0.505,-0.5162,-0.5233,-0.5264,-0.5511,-0.563,-0.5637,-0.5749,-0.58,-0.5803,-0.5833,-0.5915,-0.6034,-0.6091,-0.6274,-0.6532,-0.6685,-0.6746,-0.6763,-0.6915,-0.7056,-0.7332,-0.0481,0.0,0.0,0.0,0.0,0.0,0.0,0.0,-0.1118,-0.1118,-0.1396,-0.1675,-0.1675,-0.1675,-0.1507,-0.1118,-0.0783,-0.0727,-0.1062,-0.0392,-0.0168,-0.056,-0.0224,0.0,0.0,0.0,0.0,0.0,0.0,-0.0168,-0.056,-0.056,-0.0776,0.0,0.0,0.0,0.0,0.0,-0.1297,-0.1657,-0.163,0.0,-0.0573,-0.0563,-0.0336,0.0,0.0,0.0,0.0,0.0,0.0,0.0,0.0,0.0,0.0,0.0,0.0,0.0,0.0,0.0,0.0,-0.0448,0.0,0.0,0.0,-0.2508,0.0,0.0,0.0,0.0,0.0,0.0,0.0,0.0,0.0,0.0,0.0,0.0,0.0,0.0,0.0,0.0,0.0,0.0,-0.4721,-0.4799,-0.4874,-0.4952,-0.502,-0.4958,-0.4952,-0.5023,-0.4955,-0.4918,-0.4918,-0.4989,-0.5023,-0.503,-0.5254,-0.5359,-0.5365,-0.5515,-0.5583,-0.5586,-0.5661,-0.5739,-0.5823,-0.5969,-0.6118,-0.6274,-0.6498,-0.6586,-0.6607,-0.6759,-0.6814,-0.6834,-0.0703,0.0,0.0,0.0,0.0,0.0,0.0,0.0,-0.0895,-0.0895,-0.1396,-0.1563,-0.095,-0.0895,-0.0673,-0.0057,0.0,0.0,0.0,0.0,0.0,0.0,0.0,0.0,0.0,0.0,0.0,0.0,0.0,0.0,0.0,0.0,0.0,0.0,0.0,0.0,0.0,0.0,0.0,-0.0872,0.0,-0.0907,-0.0797,-0.0227,0.0,0.0,0.0,0.0,0.0,0.0,0.0,0.0,0.0,0.0,0.0,0.0,0.0,0.0,0.0,0.0,0.0,0.0,0.0,-0.0951,0.0,0.0,0.0,0.0,0.0,0.0,0.0,0.0,0.0,0.0,0.0,0.0,0.0,0.0,0.0,0.0,0.0,0.0,0.0,0.0,-0.4228,-0.4636,-0.4641,-0.4663,-0.4874,-0.4847,-0.4847,-0.4874,-0.4847,-0.483,-0.483,-0.486,-0.4874,-0.4877,-0.505,-0.5114,-0.5094,-0.5247,-0.5318,-0.5325,-0.5447,-0.5535,-0.5606,-0.5847,-0.5979,-0.6057,-0.6325,-0.643,-0.6451,-0.66,-0.6658,-0.6678,0.0,-0.0168,0.0,0.0,0.0,0.0,0.0,0.0,-0.0112,-0.0112,-0.0224,-0.0224,0.0,0.0,0.0,0.0,0.0,0.0,0.0,0.0,0.0,0.0,0.0,0.0,0.0,0.0,0.0,0.0,0.0,0.0,0.0,0.0,0.0,0.0,0.0,0.0,0.0,0.0,-0.0058,0.0,-0.0116,-0.0119,0.0,-0.0059,0.0,0.0,0.0,0.0,0.0,0.0,0.0,0.0,0.0,0.0,0.0,0.0,0.0,0.0,0.0,0.0,0.0,0.0,-0.0056,0.0,0.0,0.0,0.0,0.0,0.0,0.0,0.0,0.0,0.0,0.0,0.0,0.0,0.0,0.0,0.0,0.0,0.0,0.0,0.0,0.0,0.0,-0.4432,-0.394,-0.3886,-0.4707,-0.4589,-0.4575,-0.4711,-0.4585,-0.457,-0.457,-0.465,-0.4718,-0.4721,-0.4999,-0.5064,-0.4948,-0.5091,-0.5155,-0.5159,-0.5176,-0.5338,-0.5593,-0.5627,-0.5793,-0.6047,-0.6217,-0.6285,-0.6302,-0.6444,-0.6498,-0.6519,0.0168,0.0,0.0,0.0,0.0,0.0,0.0,0.0,0.0,0.0,0.0,0.0,0.0,0.0,0.0,0.0,0.0,0.0,0.0,0.0,0.0,0.0,0.0,0.0,0.0,0.0,0.0,0.0,0.0,0.0,0.0,0.0,0.0,0.0,0.0,0.0,0.0,0.0,0.0,0.0,0.0,0.0,0.0,0.0,0.0,0.0,0.0,0.0,0.0,0.0,0.0,0.0,0.0,0.0,0.0,0.0,0.0,0.0,0.0,0.0,0.0,0.0,0.0,0.0,0.0,0.0,-0.056,0.0,0.0,0.0,0.0,0.0,0.0,0.0,0.0,0.0,0.0,0.0,0.0,0.0,0.0,0.0,0.0,0.0,0.0,0.0,0.0,-0.3535,-0.3928,-0.4271,-0.4324,-0.3928,-0.4268,-0.4519,-0.4519,-0.458,-0.4558,-0.4562,-0.4772,-0.4891,-0.4925,-0.5064,-0.5179,-0.5264,-0.5264,-0.5338,-0.5464,-0.5552,-0.5661,-0.5789,-0.5939,-0.6105,-0.6345,-0.6329,-0.6349,-0.6369,0.0727,0.0,0.0,0.0,0.0,0.0,0.0,0.0,0.0,0.0,0.0,0.0,0.0,0.0,0.0,0.0,0.0,0.0,0.0,0.0,0.0,0.0,0.0,0.0,0.0,0.0,0.0395,0.0616,0.0616,0.0616,0.0,0.0,0.0,0.0,0.0,0.0166,0.0,0.0,0.0,0.0,0.0,0.0,0.0,0.0,0.0,0.0,0.0,0.0,0.0,0.0,0.0,0.0,0.0227,0.0,0.0,0.0,0.0,0.0,0.028,0.0,0.0,0.0,0.0,0.0,0.0,0.0,0.0,0.0,0.0,0.0,0.0,0.0,0.0,0.0,0.0,0.0,0.0,0.0,0.0,0.0,0.0,0.0,0.0,0.0,0.0,0.0,-0.3456,0.0,-0.34,-0.3901,-0.379,-0.301,-0.3566,-0.3846,-0.3846,-0.3846,-0.3863,-0.3845,-0.3998,-0.4234,-0.4552,-0.4457,-0.4571,-0.4963,-0.4701,-0.4656,-0.4694,-0.4792,-0.4855,-0.4899,-0.4953,-0.5143,-0.5499,-0.604,-0.6224,-0.6352,0.2286,0.1006,0.0,0.0,0.0,0.0,0.0,0.0,0.0,0.0,0.0,0.0,0.0,0.0,0.0,0.0,0.0,0.0,0.0,0.0,0.0,0.0,0.0,0.0359,0.0,0.0,0.0,0.212,0.212,0.0,0.0,0.0,0.0,0.0,0.0,0.0671,0.0,0.0,0.0,0.0,0.0,0.0,0.0,0.0,0.0,0.0,0.0,0.0,0.0,0.0,0.0,0.0,0.0,0.0,0.0,0.0,0.0,0.0,0.0,0.0,0.0,0.0,0.0,0.0,0.0,0.0,0.0,0.0,0.0,0.0,0.0,0.0,0.0,0.0,0.0,0.0,0.0,0.0,0.0,0.0,0.0,0.0,0.0,0.0,0.0,0.0,-0.2676,0.0,-0.3345,-0.3345,-0.301,-0.2286,-0.2286,-0.2286,-0.2286,-0.2286,-0.2267,-0.2282,-0.2461,-0.2922,-0.3625,-0.2891,-0.3063,-0.3786,-0.2959,-0.2678,-0.2811,-0.2813,-0.2861,-0.301,-0.3018,-0.3101,-0.34,-0.5283,-0.6132,-0.6338,0.0,0.0,0.0,0.0,0.0,0.0,0.0,0.0,0.0,0.0,0.0,0.0,0.0,0.0,0.0,0.0,0.0,0.0267,0.0849,0.0312,0.0,0.0,0.0,0.0957,0.0,0.0,0.0,0.0,0.0,0.0,0.0,0.0,0.2063,0.0,0.0,0.1675,0.0,0.0,0.0,0.0,0.0,0.1516,0.1557,0.0,0.0,0.0671,0.0168,0.0336,0.0,0.0737,0.0734,0.084,0.1585,0.1802,0.1898,0.212,0.2009,0.0,0.0,0.0,0.134,0.0838,0.0,0.0,0.0,0.0,0.0,0.0,0.0,0.0,0.0,0.0,0.0,0.0,0.0,0.0,0.0,0.0,0.0,0.0,0.0,0.0,0.0,0.0,0.0,-0.2454,-0.1898,-0.1563,0.0,-0.2341,-0.2232,-0.1507,-0.1952,-0.2174,-0.2174,-0.2174,-0.2188,-0.2213,-0.2262,-0.2504,-0.2891,-0.2636,-0.27,-0.3035,-0.2772,-0.2656,-0.2678,-0.2678,-0.276,-0.2786,-0.2744,-0.2831,-0.3176,-0.4576,-0.5197,-0.5315,0.368,0.0,0.0,0.0,0.0,0.0,0.0,0.0,0.0,0.0,0.0,0.0,0.0,0.0,0.054,0.0,0.0858,0.1245,0.1812,0.1284,0.0,0.1696,0.1731,0.0,0.0,0.0,0.0,0.0,0.0,0.301,0.0,0.0,0.0,0.0,0.0,0.0,0.2178,0.0,0.2188,0.0,0.0,0.2305,0.0,0.0,0.1126,0.0,0.0,0.1062,0.1507,0.1507,0.1507,0.1619,0.2343,0.2563,0.2621,0.2954,0.2788,0.2619,0.2619,0.2397,0.0,0.0,0.1507,0.0,0.0895,0.0,0.0,0.0,0.0,0.0,0.0,0.0,0.0,0.0,0.0,0.0,0.0,0.0,0.0,0.0,0.0,0.0,0.0,0.0,-0.0504,-0.173,-0.1397,-0.1118,0.0,0.0,-0.1452,-0.0727,-0.1174,-0.1396,-0.1396,-0.1396,-0.1404,-0.1421,-0.1435,-0.1653,-0.2093,-0.1758,-0.1802,-0.218,-0.187,-0.1744,-0.1744,-0.1744,-0.1744,-0.1745,-0.1763,-0.1819,-0.2115,-0.3911,-0.4925,-0.5315,0.0,0.0,0.0,0.0,0.2807,0.0,0.0,0.0,0.0131,0.0,0.0142,0.0148,0.0152,0.1084,0.1631,0.1668,0.245,0.0,0.2963,0.281,0.0,0.0,0.2554,0.2772,0.3294,0.0,0.0,0.0,0.0,0.0,0.0,0.0,0.0,0.0,0.34,0.0,0.2286,0.2286,0.2286,0.2286,0.2286,0.2345,0.2348,0.2343,0.0,0.2568,0.2315,0.2232,0.2287,0.2287,0.2232,0.2397,0.3121,0.3345,0.3511,0.4294,0.3959,0.34,0.3456,0.2899,0.2286,0.2286,0.0,0.0,0.0,0.0,0.2174,0.0,0.0,0.0,0.0,0.0,0.0,0.0112,0.0112,0.0112,0.0112,0.0,0.0,0.0,0.0,0.0,0.0,0.0,-0.028,-0.1006,-0.1062,0.0,0.0,0.0,0.0,0.0,0.0,0.0,0.0,0.0,0.0,0.0,0.0,-0.0406,-0.1229,-0.037,-0.044,-0.1162,-0.0333,0.0,0.0,0.0,0.0,0.0,0.0,0.0,-0.0437,-0.3272,-0.5104,-0.6022,0.4428,0.4555,0.4572,0.0,0.3597,0.2836,0.0,0.0,0.0,0.0,0.2284,0.2339,0.2439,0.2549,0.2577,0.2712,0.2764,0.0,0.0,0.0,0.0,0.3472,0.346,0.3442,0.3294,0.4071,0.0,0.4519,0.0,0.0,0.4519,0.0,0.0,0.0,0.0,0.0,0.3901,0.3901,0.3901,0.3901,0.3901,0.3961,0.0,0.0,0.3984,0.3967,0.2653,0.2565,0.3067,0.3067,0.3065,0.3176,0.3959,0.4184,0.4236,0.4463,0.4349,0.4184,0.4239,0.407,0.379,0.3176,0.3065,0.2954,0.0,0.0,0.0,0.0,0.0,0.0,0.0,0.0,0.0,0.1563,0.1619,0.1619,0.0,0.0,0.0,0.0,0.0,0.0,0.0,0.0,-0.0056,-0.028,-0.028,0.0,0.0,0.0,0.0,0.0,0.0,0.0,0.0,0.0,0.0,0.0,0.0,-0.0117,-0.0298,-0.0125,-0.0128,-0.0323,-0.0067,0.0,0.0,0.0,0.0,0.0,0.0,-0.049,-0.1315,-0.2047,-0.3016,-0.3904,0.4522,0.0,0.0,0.506,0.0,0.0,0.3378,0.0,0.0,0.2973,0.3054,0.0,0.3086,0.3449,0.37,0.3695,0.3953,0.0,0.0,0.0,0.0,0.425,0.425,0.4068,0.3852,0.4397,0.0,0.517,0.0,0.0,0.5166,0.0,0.0,0.0,0.0,0.4519,0.0,0.4519,0.4556,0.4558,0.4543,0.0,0.0,0.4553,0.457,0.4465,0.3535,0.3511,0.3904,0.3904,0.3846,0.3901,0.4349,0.4519,0.4519,0.4519,0.4519,0.4519,0.4519,0.4519,0.4405,0.3956,0.3846,0.3735,0.3287,0.3231,0.3231,0.0,0.0,0.0,0.0,0.0,0.0,0.0,0.0,0.0,0.0,0.0,0.0,0.0,0.0,0.0,0.0,0.0,0.0,0.0,0.0,0.0,0.0,0.0,0.0,0.0,0.0,0.0,0.0,0.0,0.0,0.0,0.0,0.0,0.0,0.0,0.0,0.0,0.0,0.0,0.0,0.0,0.0,0.0,0.0,-0.0355,-0.0878,-0.0924,-0.18,-0.3046,0.0,0.0,0.0,0.0,0.0,0.0,0.0,0.3837,0.0,0.3347,0.0,0.3521,0.3385,0.4295,0.4813,0.4686,0.0,0.5722,0.5599,0.5318,0.5087,0.4925,0.4792,0.464,0.4522,0.4591,0.0,0.0,0.0,0.0,0.5892,0.0,0.0,0.0,0.0,0.0,0.0,0.4519,0.4538,0.0,0.457,0.4519,0.4519,0.4519,0.4519,0.4519,0.4519,0.4519,0.4519,0.4519,0.4519,0.4519,0.4519,0.4519,0.4519,0.4519,0.4519,0.4519,0.4519,0.4519,0.4519,0.4519,0.4519,0.4519,0.4519,0.4519,0.4519,0.4519,0.4015,0.0,0.0,0.0,0.0,0.0,0.0,0.0,0.0,0.0,0.0,0.0,0.0,0.0,0.0,0.0,0.0,0.0,0.0,0.0,0.0,0.0,0.0,0.0,0.0,0.0,0.0,0.0,0.0,0.0,0.0,0.0,0.0,0.0,0.0,0.0,0.0,0.0,0.0,0.0,0.0,0.0,0.0,0.0,0.0,0.0,-0.1169,-0.2567,0.0,0.0,0.0,0.0,0.0,0.6135,0.5954,0.5682,0.5582,0.5805,0.578,0.0,0.586,0.5848,0.578,0.5732,0.5708,0.0,0.0,0.0,0.0,0.4931,0.4894,0.4748,0.4522,0.52,0.5603,0.0,0.616,0.616,0.5589,0.0,0.0,0.0,0.0,0.0,0.4519,0.4519,0.0,0.4556,0.4529,0.4519,0.4519,0.4519,0.4519,0.4519,0.4519,0.4519,0.4519,0.4519,0.4519,0.4519,0.4519,0.4519,0.4519,0.4519,0.4519,0.4519,0.4519,0.4519,0.4519,0.4519,0.4519,0.4519,0.4519,0.4519,0.4519,0.4519,0.4405,0.4294,0.4294,0.0,0.0,0.0,0.0,0.0,0.0,0.0,0.0,0.0,0.0,0.0,0.0,0.0,0.0,0.0,0.0,0.0,0.0,0.0,0.0,0.0,0.0,0.0,0.0,0.0,0.0,0.0,0.0,0.0,0.0,0.0,0.0,0.0,0.0,0.0,0.0,0.0,0.0,0.0,0.0,0.0,0.0,0.0,-0.0228,-0.0534,0.0,0.0,0.0,0.0,0.0,0.0,0.0,0.6359,0.0,0.6352,0.6366,0.6339,0.6254,0.6115,0.5996,0.5918,0.5715,0.5555,0.5477,0.5328,0.5145,0.4928,0.4843,0.0,0.4522,0.525,0.5849,0.6304,0.6633,0.6799,0.6854,0.0,0.0,0.0,0.0,0.4563,0.0,0.0,0.0,0.4694,0.4613,0.4579,0.4572,0.4546,0.4519,0.4519,0.4519,0.4519,0.4519,0.4519,0.4519,0.4519,0.4519,0.4519,0.4519,0.4519,0.4519,0.4519,0.4519,0.4519,0.4519,0.4519,0.4519,0.4519,0.4519,0.4519,0.4519,0.4519,0.4519,0.4519,0.4519,0.4519,0.0,0.0,0.0,0.0,0.0,0.0,0.0,0.0,0.0,0.0,0.0,0.0,0.0,0.0,0.0,0.0,0.0,0.0,0.0,0.0,0.0,0.0,0.0,0.0,0.0,0.0,0.0,0.0,0.0,0.0,0.0,0.0,0.0,0.0,0.0,0.0,0.0,0.0,0.0,0.0,0.0,0.0,0.0,0.0,0.0,0.6458,0.0,0.0,0.66,0.0,0.0,0.662,0.6468,0.6325,0.6376,0.6325,0.6057,0.603,0.5956,0.5772,0.5654,0.5525,0.5439,0.5216,0.5067,0.4925,0.4945,0.4844,0.4739,0.5546,0.6385,0.0,0.7111,0.0,0.0,0.0,0.0,0.0,0.0,0.0,0.0,0.0,0.4748,0.4904,0.4752,0.4691,0.4677,0.4558,0.4546,0.4519,0.4519,0.4519,0.4519,0.4519,0.4519,0.4519,0.4519,0.4519,0.4519,0.4519,0.4519,0.4519,0.4519,0.4519,0.4519,0.4519,0.4519,0.4519,0.4519,0.4519,0.4519,0.4519,0.4519,0.4519,0.4519,0.4519,0.0,0.0,0.0,0.0,0.0,0.0,0.0,0.0,0.0,0.0,0.0,0.0,0.0,0.0,0.0,0.0,0.0,0.0,0.0,0.0,0.0,0.0,0.0,0.0,0.0178,0.0,0.0169,0.0224,0.0224,0.0392,0.0454,0.0466,0.0469,0.0366,0.0259,0.0266,0.0135,0.0,0.0,0.0,0.0,0.0,0.0,0.0,0.0,0.0,0.0,0.0,0.0,0.0,0.0,0.6776,0.6624,0.6471,0.6352,0.6217,0.6047,0.603,0.5918,0.5633,0.5596,0.5525,0.5439,0.5216,0.5067,0.4925,0.5408,0.5628,0.5437,0.6794,0.7515,0.0,0.0,0.0,0.0,0.0,0.0,0.0,0.0,0.0,0.0,0.4545,0.4653,0.4904,0.4752,0.4691,0.4691,0.4674,0.4582,0.4519,0.4519,0.4519,0.4519,0.4519,0.4519,0.4519,0.4519,0.4519,0.4519,0.4519,0.4519,0.4519,0.4519,0.4519,0.4519,0.4519,0.4519,0.4519,0.4519,0.4519,0.4519,0.4519,0.4519,0.4519,0.4519,0.4519,0.4519,0.0,0.0,0.0,0.0,0.0,0.0,0.0,0.0,0.0,0.0,0.0,0.0,0.0,0.0,0.0,0.0,0.0,0.0,0.0,0.0,0.0666,0.0,0.0648,0.0,0.0,0.0691,0.1006,0.1006,0.1675,0.2012,0.2021,0.1969,0.1642,0.1033,0.1128,0.0739,0.0,0.0,0.0,0.0,0.0,0.0,0.0,0.0,0.0,0.0,0.0,0.0,0.0,0.0,0.6661,0.6539,0.6481,0.6424,0.6332,0.6183,0.6445,0.6633,0.6499,0.6672,0.682,0.692,0.6572,0.6306,0.6349,0.6388,0.6356,0.615,0.7176,0.7723,0.0,0.0,0.0,0.0,0.0,0.0,0.0,0.0,0.624,0.6411,0.6384,0.6491,0.6559,0.6364,0.6284,0.6258,0.5975,0.5503,0.5164,0.5605,0.5496,0.5167,0.5605,0.5226,0.4519,0.4519,0.4519,0.4519,0.4519,0.4519,0.4519,0.4519,0.4519,0.4519,0.4519,0.4519,0.4519,0.4519,0.4519,0.4519,0.4519,0.4519,0.4625,0.5003,0.5109,0.5218,0.0,0.0,0.0,0.0,0.0,0.0,0.0,0.0,0.0,0.0,0.0,0.0,0.0,0.0,0.0,0.0,0.0,0.0,0.1525,0.0,0.1689,0.1524,0.1819,0.1807,0.1495,0.1807,0.1955,0.1955,0.2242,0.2441,0.2491,0.2505,0.2323,0.206,0.2119,0.1942,0.1612,0.1629,0.1626,0.1614,0.1649,0.1652,0.164,0.7665,0.0,0.7368,0.0,0.7095,0.7226,0.7308,0.7476,0.7592,0.7639,0.756,0.7281,0.6813,0.6939,0.7199,0.7491,0.7579,0.7726,0.8016,0.7486,0.7176,0.7289,0.7193,0.0,0.6912,0.767,0.8049,0.8049,0.8734,0.0,0.0,0.0,0.0,0.0,0.7115,0.7208,0.7423,0.7511,0.7563,0.7603,0.7375,0.7289,0.7249,0.6824,0.6306,0.5873,0.6421,0.6258,0.5928,0.6421,0.5937,0.5062,0.4842,0.4787,0.4787,0.4787,0.4787,0.4842,0.5062,0.5117,0.5062,0.4842,0.4787,0.4787,0.4787,0.4787,0.4842,0.5062,0.4952,0.5003,0.5706,0.5814,0.5982,0.0,0.0,0.0,0.0,0.0,0.0,0.0,0.0,0.457,0.4787,0.0,0.0,0.0,0.0,0.0,0.0,0.0,0.0,0.0,0.0,0.0,0.0,0.271,0.2696,0.2521,0.2783,0.2854,0.2913,0.3091,0.3251,0.3324,0.3418,0.3268,0.3019,0.3043,0.2945,0.2678,0.2678,0.2678,0.2679,0.2703,0.2696,0.2683,0.9061,0.889,0.854,0.7316,0.7955,0.8751,0.8856,0.9573,1.0192,1.032,0.9973,0.915,0.7953,0.7375,0.7425,0.831,0.8154,0.8021,0.8027,0.7537,0.7289,0.0,0.0,0.767,0.767,0.8427,0.8804,0.8804,0.0,0.0,0.8765,0.0,0.7766,0.7467,0.7062,0.7029,0.7274,0.7187,0.7234,0.7484,0.738,0.7289,0.7264,0.6984,0.6769,0.6588,0.6588,0.6588,0.6588,0.6588,0.6588,0.6421,0.5706,0.5483,0.5483,0.5483,0.5483,0.5651,0.6367,0.6588,0.6421,0.5651,0.5483,0.5483,0.5483,0.5483,0.5706,0.6421,0.5982,0.5706,0.648,0.6588,0.6588,0.6588,0.0,0.0,0.0,0.0,0.0,0.0,0.4519,0.4787,0.5433,0.0,0.0,0.0,0.0,0.0,0.0,0.0,0.0,0.2516,0.3095,0.0,0.2518,0.3214,0.3222,0.2523,0.3389,0.3808,0.3808,0.4546,0.4857,0.4867,0.5004,0.455,0.3788,0.3901,0.348,0.2678,0.2678,0.2678,0.2686,0.2692,0.2674,0.27,1.0096,1.0096,0.9923,0.957,0.9658,0.9877,0.995,1.0178,1.0362,1.0429,1.0101,0.9972,1.03,0.9729,0.9395,0.0,0.964,0.9779,0.0,0.9026,0.8706,0.8955,0.8612,0.8517,0.8703,0.8934,0.9205,0.9406,0.0,0.0,0.0,0.9201,0.9054,0.902,0.8875,0.8881,0.8968,0.9067,0.9104,0.9026,0.894,0.8792,0.8539,0.8276,0.7848,0.7402,0.7937,0.7777,0.745,0.7943,0.8103,0.799,0.723,0.6632,0.6253,0.6253,0.6253,0.6312,0.6534,0.6588,0.6534,0.6312,0.6253,0.6253,0.6253,0.6253,0.6312,0.6534,0.6421,0.6475,0.7235,0.7348,0.7509,0.799,0.0,0.0,0.0,0.0,0.0,0.0,0.5937,0.6041,0.0,0.6041,0.0,0.0,0.0,0.0,0.0,0.0,0.0,0.0,0.414,0.0,0.4299,0.4424,0.4403,0.4303,0.4534,0.4681,0.4681,0.4935,0.5121,0.5223,0.527,0.5153,0.4891,0.4938,0.4821,0.4553,0.4553,0.4553,0.4558,0.4532,0.452,0.4564,1.13,1.1209,1.1096,1.0499,1.0705,1.0912,1.0826,1.1144,1.1478,1.1478,1.126,1.1369,1.1915,1.1601,0.0,1.0478,1.0652,0.0,1.0631,0.994,0.9653,0.984,0.9285,0.9058,0.9183,0.0,0.0,0.9519,0.9519,0.9519,0.9519,0.9519,0.9579,0.9679,0.9566,0.9519,0.9532,0.9833,0.9846,0.9686,0.9686,0.9573,0.9365,0.8958,0.8533,0.8156,0.8646,0.848,0.8156,0.8646,0.8804,0.8699,0.8262,0.7777,0.7396,0.7074,0.702,0.7074,0.7348,0.745,0.7343,0.7074,0.702,0.702,0.702,0.702,0.7074,0.7343,0.7182,0.7235,0.799,0.8103,0.8268,0.8699,0.0,0.799,0.0,0.0,0.0,0.0,0.0,0.0,0.0,0.675,0.0,0.0,0.0,0.0,0.0,0.0,0.0,0.5271,0.4907,0.0,0.5128,0.5043,0.5043,0.5131,0.5189,0.5216,0.5216,0.5216,0.527,0.5428,0.5428,0.5428,0.5428,0.5428,0.5428,0.5428,0.5428,0.5428,0.5428,0.5428,0.5428,0.5428,1.265,1.2389,0.0,0.0,1.1272,0.0,1.1709,1.2578,1.324,1.324,1.3206,1.3066,1.2856,1.2802,1.2378,1.153,0.0,0.0,0.0,1.0314,1.014,1.0114,0.9573,0.0,0.9243,0.9038,0.9031,0.9243,0.9223,0.9223,0.9243,0.9223,0.9426,0.9699,0.9426,0.9223,0.9203,0.9559,0.9659,0.9626,0.9646,0.9639,0.9566,0.9018,0.8804,0.8804,0.8804,0.8804,0.8804,0.8804,0.8804,0.8804,0.8804,0.8804,0.8646,0.799,0.7777,0.7937,0.8593,0.8804,0.8639,0.7937,0.7777,0.7777,0.7777,0.7777,0.7996,0.8646,0.8262,0.799,0.8699,0.8804,0.8804,0.8804,0.8804,0.854,0.7883,0.0,0.0,0.0,0.0,0.0,0.0,0.7182,0.702,0.0,0.0,0.0,0.0,0.0,0.535,0.5992,0.5336,0.5054,0.5145,0.5135,0.5135,0.5148,0.5291,0.5428,0.5428,0.5428,0.5428,0.5428,0.5428,0.5428,0.5491,0.5428,0.5428,0.5491,0.5428,0.5428,0.5428,0.5428,0.5428,0.5428,0.0,0.0,1.3143,1.2618,1.2913,1.3199,1.3127,1.329,1.354,1.354,1.314,1.2903,1.2829,1.2545,1.2238,1.1804,1.1703,1.1443,1.0922,1.0615,1.0354,1.0127,0.9773,0.9679,0.9907,0.984,0.984,0.9907,0.9686,0.9693,0.9907,0.9679,0.9733,1.0013,0.994,0.9659,0.9203,0.9559,0.9426,0.9031,0.9259,0.9212,0.8998,0.8864,0.8804,0.8804,0.8804,0.8804,0.8804,0.8804,0.8804,0.8804,0.8804,0.8804,0.8752,0.8593,0.8533,0.8586,0.8752,0.8804,0.8752,0.8593,0.8533,0.8533,0.8533,0.8533,0.8593,0.8752,0.8646,0.8593,0.8752,0.8804,0.8804,0.8804,0.8804,0.8752,0.8586,0.8533,0.0,0.0,0.8262,0.8368,0.854,0.8374,0.8103,0.0,0.0,0.0,0.0,0.0,0.6625,0.5996,0.5928,0.5713,0.5304,0.5189,0.5189,0.5308,0.5411,0.5428,0.5428,0.5428,0.5428,0.5428,0.5428,0.5749,0.633,0.5686,0.5815,0.6334,0.5686,0.5428,0.5428,0.5428,0.5428,0.5428,1.3701,1.3559,1.3507,1.3073,1.3247,1.3347,1.3073,1.3146,1.3233,1.3233,1.2946,1.2822,1.2822,1.2681,1.2385,1.2091,1.1944,1.1623,1.1035,1.0842,1.0628,1.0327,1.004,0.9953,1.0114,0.9987,0.9853,0.9713,0.9826,0.9826,0.9719,0.9833,0.9893,0.9927,1.006,0.9793,0.9203,0.9559,0.9419,0.9018,0.9117,0.909,0.8991,0.8858,0.8804,0.8804,0.8804,0.8804,0.8804,0.8804,0.8804,0.8804,0.8804,0.8804,0.8857,0.9159,0.9061,0.8804,0.8804,0.8804,0.8804,0.8804,0.8804,0.8804,0.8804,0.8804,0.8804,0.8804,0.8804,0.8804,0.8804,0.8804,0.8804,0.8804,0.8804,0.8804,0.8804,0.8804,0.0,0.8804,0.8804,0.8804,0.8804,0.8804,0.8698,0.839,0.0,0.0,0.8865,0.8896,0.8426,0.733,0.7116,0.6709,0.6009,0.5917,0.6108,0.6601,0.6207,0.6207,0.6535,0.5752,0.5818,0.6535,0.6141,0.6465,0.7242,0.6793,0.6854,0.7242,0.6793,0.6601,0.6535,0.6141,0.6009,0.5943,1.3701,1.3607,1.342,1.2906,1.3033,1.3053,1.2579,1.2685,1.2896,1.2896,1.2815,1.2755,1.2755,1.2824,1.2722,1.2325,1.2215,1.1893,1.1096,1.1015,1.0862,1.0638,1.0321,1.018,1.018,0.994,0.9693,0.9439,0.9893,0.988,0.9446,0.9907,1.0007,0.9826,1.0027,0.984,0.9329,0.9593,0.9539,0.925,0.9203,0.9183,0.915,0.8918,0.8804,0.8804,0.8804,0.8804,0.8804,0.8804,0.8804,0.8804,0.8804,0.8804,0.8956,0.9614,0.9413,0.8956,0.8956,0.8857,0.8804,0.8804,0.8804,0.8804,0.8804,0.8804,0.8804,0.8804,0.8804,0.8804,0.8804,0.8804,0.8824,0.8864,0.8838,0.8824,0.8864,0.0,0.8804,0.8804,0.8844,0.8871,0.8871,0.8911,0.9045,0.923,0.9539,0.0,0.0,1.0221,1.0076,0.9112,0.8499,0.7762,0.6915,0.6915,0.7242,0.7962,0.7242,0.7307,0.7962,0.647,0.6601,0.7962,0.7242,0.7372,0.8156,0.8027,0.8091,0.8156,0.8027,0.8027,0.7892,0.7046,0.6785,0.678,1.3701,1.3447,1.3247,1.3153,1.318,1.326,1.3414,1.3267,1.314,1.314,1.2692,1.2371,1.2371,1.3096,1.3221,1.2378,1.2983,1.2828,1.1396,1.1129,1.0862,1.0638,1.0577,1.0488,1.0488,1.051,1.0401,1.0354,1.0194,1.02,1.0354,1.0194,1.0227,1.0477,1.0207,1.0067,0.9967,0.9766,0.9659,0.9593,0.9339,0.9183,0.915,0.8918,0.8804,0.8804,0.8804,0.8804,0.8804,0.8804,0.8804,0.8804,0.8804,0.8804,0.8956,0.9614,0.9718,0.9666,0.9666,0.9211,0.8804,0.8804,0.8804,0.8804,0.8804,0.8804,0.8804,0.8804,0.8804,0.8804,0.8804,0.8804,0.8884,0.9077,0.8965,0.8891,0.9084,0.0,0.8804,0.8804,0.9025,0.9117,0.9117,0.9399,0.9566,0.9613,0.9659,0.9793,1.004,1.0134,1.0212,1.0349,0.9506,0.8678,0.7827,0.7832,0.7897,0.8027,0.7897,0.7897,0.7962,0.7702,0.7767,0.7962,0.7827,0.8285,0.9011,0.8291,0.842,0.9011,0.8285,0.8027,0.7892,0.7046,0.7177,0.7608,1.3701,1.3534,1.3394,1.324,1.334,1.338,1.3186,1.3193,1.3304,1.367,1.3315,1.3302,1.3977,1.4343,1.4307,1.3875,1.4064,1.3685,1.2269,1.1566,1.1022,1.0645,1.0624,1.0807,1.1226,1.0807,1.0725,1.097,1.0581,1.0341,1.0321,1.0347,1.0428,1.0618,1.0414,1.0267,1.0107,0.9973,0.9959,1.0037,0.9833,0.9879,1.0016,0.9516,0.9361,0.9309,0.891,0.8804,0.8804,0.8804,0.8804,0.8804,0.8804,0.9061,0.9458,1.0167,1.0364,1.0261,0.9917,0.9562,0.9263,0.891,0.8804,0.8804,0.8804,0.9061,0.9361,0.9361,0.9614,0.9865,0.9865,0.9865,0.991,1.0061,0.9963,0.0,0.0,0.9549,0.9617,0.9724,0.957,0.9642,1.0073,0.9879,0.9746,0.9907,0.992,1.0047,1.0341,1.0354,1.0421,1.0618,0.9786,0.9332,0.9384,0.8941,0.8941,0.9384,0.8941,0.8935,0.9384,0.8415,0.8544,0.939,0.8877,0.9198,0.9977,0.9582,0.9652,0.9977,0.9582,0.9384,0.932,0.8415,0.8265,0.8264,1.4186,1.4001,1.3913,1.3521,1.354,1.3588,1.3498,1.3526,1.3811,1.4532,1.4286,1.4408,1.5397,1.5535,1.5446,1.5234,1.5186,1.4585,1.3375,1.2606,1.1759,1.0891,1.1052,1.1476,1.2081,1.1476,1.1352,1.169,1.1352,1.105,1.0763,1.1064,1.1178,1.1178,1.11,1.0972,1.0749,1.0739,1.0763,1.0923,1.0846,1.0925,1.1001,1.041,1.0133,0.9969,0.9465,0.9263,0.9263,0.9263,0.9263,0.9263,0.9263,0.9614,1.0167,1.0864,1.1174,1.1124,1.0466,1.0167,0.9917,0.9413,0.9263,0.9263,0.9263,0.9666,1.0012,1.0012,1.0415,1.0813,1.0813,1.0813,1.0846,1.0877,0.0,0.0,0.0,1.0532,1.0747,1.0857,1.0556,1.0639,1.1249,1.0813,1.0562,1.0735,1.0749,1.08,1.085,1.0863,1.0835,1.0725,1.0015,0.9913,1.0561,0.9913,0.9913,1.0561,0.9913,0.9983,1.0555,0.9192,0.932,1.0561,0.9913,0.9977,1.0624,1.0624,1.0624,1.0624,1.0624,1.0624,1.0485,0.9515,0.9164,0.8967,1.5756,1.5346,1.4911,1.4142,1.3814,1.4036,1.5315,1.4939,1.4864,1.5891,1.5519,1.51,1.5204,1.6018,1.6149,1.5305,1.5974,1.5938,1.467,1.4509,1.3635,1.1817,1.2458,1.2826,1.2887,1.2826,1.281,1.2846,1.281,1.281,1.2785,1.281,1.2826,1.281,1.2543,1.2568,1.2761,1.2494,1.2578,1.28,1.253,1.2159,1.1779,1.1502,1.111,1.0712,1.0661,1.0661,1.0661,1.0661,1.0661,1.0661,1.0661,1.0669,1.0864,1.1516,1.2187,1.2569,1.1873,1.1216,1.0712,1.0661,1.0661,1.0661,1.0661,1.0712,1.072,1.072,1.0771,1.0813,1.0813,1.0813,1.0929,1.1214,0.0,0.0,1.1715,1.1853,1.1997,1.1997,1.2208,1.2439,1.2489,1.2677,1.2761,1.2785,1.2785,1.2488,1.1772,1.171,1.1481,1.1021,1.0701,1.0561,1.0624,1.0561,1.0561,1.0624,1.0561,1.0561,1.0624,1.0498,1.0491,1.0624,1.0561,1.0561,1.0624,1.0624,1.0624,1.0624,1.0624,1.0624,1.0458,0.929,0.9315,0.9786,1.6764,1.6579,1.6451,1.6183,1.6016,1.6056,1.6357,1.6197,1.6256,1.6789,1.6622,1.6572,1.6899,1.7217,1.7295,1.6941,1.7285,1.6903,1.5654,1.5821,1.5047,1.2979,1.3001,1.3243,1.3726,1.3252,1.3252,1.3726,1.3252,1.3009,1.3009,1.3009,1.3009,1.3,1.2868,1.2877,1.3,1.286,1.305,1.3368,1.3287,1.3072,1.2855,1.2333,1.1816,1.1366,1.0965,1.0813,1.0813,1.0813,1.0813,1.0813,1.0813,1.1065,1.1566,1.2246,1.2666,1.2822,1.2559,1.1981,1.1316,1.0914,1.0813,1.0813,1.0813,1.1116,1.1416,1.1416,1.1783,1.2098,1.2098,1.2098,1.2236,1.258,0.0,1.273,1.2633,1.2849,1.3063,1.312,1.299,1.3041,1.3517,1.3228,1.3009,1.3009,1.3009,1.2887,1.2573,1.2512,1.2546,1.2636,1.2265,1.1696,1.0893,1.1325,1.1325,1.0828,1.1958,1.2319,1.2007,1.1811,1.1717,1.1646,1.0953,1.0863,1.1351,1.1351,1.1483,1.1684,1.1458,1.1045,1.0597,0.9886,0.9577,0.9482,1.7908,1.7827,1.7738,1.7334,1.7342,1.7332,1.7542,1.7397,1.7534,1.8,1.7777,1.7802,1.8173,1.8086,1.8008,1.8008,1.8008,1.7658,1.6738,1.6823,1.6097,1.4268,1.3926,1.4025,1.4569,1.4025,1.4025,1.4569,1.4025,1.3726,1.3726,1.3726,1.3726,1.3726,1.3726,1.3726,1.3726,1.3726,1.3933,1.4153,1.4024,1.3846,1.364,1.303,1.2559,1.208,1.1633,1.1484,1.1484,1.1484,1.1484,1.1484,1.1484,1.1783,1.2236,1.2764,1.2881,1.2881,1.2881,1.255,1.203,1.1584,1.1571,1.1624,1.151,1.1922,1.2323,1.2323,1.2645,1.2959,1.3232,1.3164,1.3213,1.3633,1.3818,1.3845,1.368,1.396,1.422,1.4277,1.3992,1.3965,1.451,1.4085,1.3726,1.3726,1.3726,1.3666,1.3364,1.3239,1.3289,1.3529,1.352,1.2949,1.1761,1.2225,1.2225,1.1826,1.3028,1.3413,1.3138,1.2897,1.2733,1.2553,1.1696,1.1663,1.2205,1.2205,1.2316,1.2552,1.2303,1.1796,1.1195,1.0799,1.0164,0.9542,1.9204,1.9036,1.8638,1.7496,1.7342,1.7747,1.8877,1.8623,1.8678,1.9761,1.917,1.8572,1.8562,1.8262,1.8008,1.8008,1.8008,1.8008,1.8008,1.7617,1.6797,1.5478,1.542,1.542,1.541,1.541,1.541,1.541,1.541,1.541,1.541,1.541,1.541,1.541,1.541,1.541,1.541,1.541,1.541,1.5381,1.4961,1.4521,1.4038,1.3672,1.3252,1.2881,1.2881,1.2881,1.2881,1.2881,1.2881,1.2881,1.2881,1.2881,1.2881,1.2881,1.2881,1.2881,1.2881,1.2881,1.2881,1.2881,1.3193,1.3389,1.2988,1.3213,1.3506,1.3516,1.3184,1.3145,1.3922,1.3789,1.3652,1.4019,1.4502,1.4785,1.4785,1.5146,1.541,1.541,1.541,1.541,1.541,1.541,1.541,1.541,1.541,1.505,1.4273,1.3845,1.3537,1.3427,1.4239,1.4263,1.3427,1.3129,1.319,1.36,1.36,1.36,1.36,1.36,1.341,1.3009,1.3009,1.3009,1.3009,1.3009,1.3009,1.3,1.3009,1.2786,1.2364,1.2035,1.1233,1.037,2.0167,2.0079,2.0001,1.9678,1.9599,1.9756,2.0079,1.9974,1.9947,1.9876,1.9434,1.8975,1.8672,1.8262,1.8008,1.8008,1.8008,1.7881,1.7588,1.7451,1.6934,1.5918,1.5869,1.5723,1.542,1.541,1.541,1.541,1.541,1.541,1.541,1.541,1.541,1.541,1.541,1.541,1.541,1.541,1.541,1.54,1.5273,1.4785,1.4068,1.3941,1.3506,1.2881,1.2881,1.2881,1.2881,1.2881,1.2881,1.2881,1.2881,1.2881,1.2881,1.2881,1.2881,1.2881,1.2881,1.2881,1.2949,1.3242,1.3193,1.3193,1.3652,1.3633,1.3594,1.3834,1.3848,1.3838,1.4038,1.398,1.4092,1.4521,1.4697,1.4893,1.5186,1.5332,1.541,1.541,1.541,1.541,1.541,1.541,1.541,1.541,1.541,1.5429,1.554,1.5421,1.5635,1.6169,1.6141,1.6141,1.6188,1.5177,1.4259,1.3474,1.4737,1.5131,1.4813,1.4612,1.4427,1.4303,1.3361,1.3312,1.3846,1.3846,1.3992,1.4239,1.3927,1.3292,1.2438,1.2011,1.1345,1.0693,2.0566,2.0566,2.0566,2.0566,2.0566,2.0566,2.0566,2.0566,2.041,1.9971,1.9697,1.9307,1.8701,1.8408,1.8193,1.8027,1.8008,1.7832,1.7412,1.7539,1.7168,1.6164,1.623,1.6035,1.542,1.541,1.541,1.541,1.541,1.541,1.541,1.5244,1.5254,1.54,1.5234,1.5254,1.541,1.541,1.541,1.5381,1.5039,1.4544,1.4048,1.3769,1.332,1.2881,1.2881,1.2881,1.2881,1.2881,1.2881,1.2881,1.2881,1.2881,1.2881,1.2881,1.2998,1.3135,1.3135,1.3252,1.3527,1.4252,1.3888,1.3506,1.397,1.4072,1.4082,1.4336,1.4248,1.4184,1.458,1.4502,1.4531,1.4971,1.5039,1.5117,1.5381,1.541,1.5526,1.5806,1.5733,1.5782,1.6077,1.5999,1.5937,1.5937,1.5937,1.6045,1.6309,1.6494,1.6748,1.7109,1.7197,1.7197,1.7129,1.6485,1.5716,1.5012,1.5718,1.6033,1.5844,1.5498,1.528,1.5051,1.4252,1.4213,1.4688,1.4688,1.4849,1.4982,1.46,1.3905,1.3069,1.2699,1.1948,1.1301,2.0566,2.0566,2.0566,2.0566,2.0566,2.0566,2.0566,2.0566,2.042,2.0029,1.9941,1.96,1.8779,1.8662,1.8467,1.8047,1.8008,1.7842,1.7461,1.7803,1.7441,1.6243,1.6514,1.6318,1.543,1.541,1.541,1.541,1.541,1.541,1.54,1.5019,1.5049,1.5391,1.501,1.5049,1.541,1.541,1.541,1.5342,1.4561,1.4145,1.4,1.3281,1.2939,1.2881,1.2881,1.292,1.2968,1.3017,1.3017,1.2968,1.2968,1.2968,1.2978,1.2978,1.3253,1.3608,1.3647,1.3994,1.4603,1.572,1.5157,1.435,1.4346,1.4631,1.4907,1.4936,1.4631,1.4592,1.5436,1.5315,1.5186,1.5515,1.5584,1.5584,1.5584,1.5614,1.5924,1.6602,1.6494,1.6648,1.7305,1.7032,1.6792,1.6792,1.6728,1.6748,1.6787,1.7168,1.7217,1.6855,1.7607,1.7637,1.6909,1.7262,1.7344,1.7256,1.6547,1.6299,1.6602,1.623,1.582,1.541,1.541,1.541,1.541,1.541,1.5391,1.5312,1.4932,1.4547,1.4076,1.3643,1.2903,1.2159,2.0566,2.0566,2.0566,2.0566,2.0566,2.0566,2.0566,2.0566,2.0527,2.0439,2.0127,1.9717,1.9199,1.8848,1.8467,1.8047,1.8008,1.7969,1.7881,1.7959,1.7578,1.6631,1.668,1.6318,1.543,1.541,1.541,1.541,1.541,1.541,1.541,1.5322,1.5322,1.541,1.5312,1.5322,1.541,1.541,1.541,1.5391,1.5205,1.4736,1.4058,1.3926,1.3457,1.2881,1.2881,1.319,1.3684,1.4154,1.4014,1.3589,1.3589,1.3589,1.3577,1.3412,1.3811,1.4445,1.4748,1.5389,1.6045,1.6635,1.6563,1.6331,1.605,1.5815,1.5722,1.6038,1.6038,1.6186,1.698,1.7048,1.7015,1.7113,1.7135,1.7135,1.7135,1.7529,1.7884,1.8067,1.8372,1.8669,1.8848,1.8176,1.7698,1.7698,1.7096,1.6885,1.7227,1.7334,1.749,1.7725,1.791,1.8247,1.8754,1.7875,1.7031,1.6348,1.6514,1.6279,1.5703,1.5957,1.582,1.541,1.541,1.541,1.541,1.541,1.5215,1.4912,1.4814,1.462,1.4246,1.3729,1.3748,1.4039,2.0566,2.0566,2.0566,2.0566,2.0566,2.0566,2.0566,2.0566,2.0488,2.0283,2.0244,1.9912,1.9072,1.9302,1.9502,1.9229,1.9233,1.9233,1.9233,1.9034,1.8531,1.7894,1.7593,1.7144,1.6482,1.6083,1.5748,1.541,1.541,1.541,1.541,1.5205,1.5215,1.54,1.5205,1.5225,1.541,1.541,1.541,1.5391,1.5195,1.4717,1.4111,1.42,1.3851,1.3372,1.3658,1.4116,1.4635,1.4684,1.4669,1.4588,1.4312,1.4236,1.424,1.4433,1.4868,1.5448,1.5916,1.6483,1.7096,1.7675,1.7785,1.7588,1.6711,1.6618,1.6666,1.6543,1.6765,1.7211,1.7902,1.8059,1.8126,1.8362,1.8396,1.8396,1.8396,1.869,1.9033,1.9379,1.9524,1.9682,1.993,1.9519,1.9269,1.9269,1.8828,1.869,1.8942,1.8952,1.8992,1.9233,1.9233,1.9431,1.9944,1.9263,1.8404,1.7276,1.6898,1.6494,1.6045,1.6055,1.582,1.541,1.5748,1.5921,1.5901,1.6017,1.5946,1.5696,1.5258,1.4932,1.4763,1.4268,1.4322,1.4652,2.0644,2.0566,2.0634,2.0789,2.0867,2.0934,2.1088,2.1088,2.0958,2.0577,2.0787,2.0527,1.9273,2.0027,2.0608,2.0593,2.059,2.059,2.059,2.0068,1.9566,1.9134,1.8583,1.8081,1.7589,1.6978,1.6312,1.5584,1.5468,1.541,1.54,1.5049,1.5135,1.5565,1.5209,1.5362,1.5796,1.5796,1.5796,1.5776,1.5415,1.5004,1.4616,1.4788,1.4595,1.4296,1.4815,1.5216,1.5488,1.5348,1.5394,1.5448,1.5221,1.5073,1.5072,1.5612,1.6135,1.6616,1.7167,1.7653,1.8147,1.8887,1.8946,1.8602,1.7409,1.7479,1.7655,1.7143,1.7545,1.8136,1.8885,1.9034,1.9172,1.9598,1.9667,1.9667,1.9667,1.9736,2.0029,2.0682,2.0592,2.0568,2.0991,2.091,2.0846,2.0846,2.0655,2.059,2.059,2.059,2.059,2.059,2.059,2.0655,2.0846,2.0655,2.0123,1.9157,1.7912,1.7236,1.6898,1.6523,1.6228,1.5974,1.6457,1.6708,1.6666,1.6785,1.6744,1.6577,1.5675,1.5311,1.533,1.5074,1.488,1.4698,2.0789,2.0566,2.0867,2.1669,2.1811,2.2103,2.2999,2.3073,2.3051,2.3058,2.2666,2.2215,2.1589,2.0986,2.0607,2.0602,2.059,2.059,2.059,2.0046,1.9555,1.9134,1.8583,1.8081,1.7589,1.7523,1.709,1.6368,1.569,1.541,1.541,1.5352,1.5698,1.6368,1.6306,1.6645,1.7291,1.7291,1.7291,1.7291,1.7225,1.6971,1.6594,1.6632,1.6412,1.6047,1.6147,1.586,1.5734,1.7241,1.6791,1.5759,1.6646,1.6598,1.6268,1.6689,1.7277,1.7914,1.8372,1.8984,1.9651,2.0254,2.0057,1.967,1.9823,1.9215,1.8684,1.9101,1.925,1.9694,2.0865,2.1076,2.1113,2.1175,2.12,2.12,2.12,2.1597,2.1952,2.2023,2.2437,2.2664,2.275,2.2125,2.1753,2.1753,2.1049,2.059,2.059,2.059,2.059,2.059,2.059,2.0974,2.169,2.0974,2.0876,2.1448,2.0486,1.9262,1.7811,1.7677,1.7747,1.8043,1.7656,1.7468,1.7434,1.7,1.6606,1.6221,1.5541,1.5392,1.5638,1.6088,1.5611,1.4789,2.2339,2.2188,2.2339,2.2776,2.285,2.2999,2.3441,2.3514,2.3514,2.3514,2.3251,2.301,2.2517,2.2067,2.1794,2.1951,2.199,2.199,2.199,2.1487,2.1093,2.0924,2.0076,1.9526,1.9341,1.86,1.8058,1.7743,1.6968,1.6631,1.6631,1.6631,1.68,1.7079,1.7079,1.7302,1.7578,1.7578,1.7578,1.7578,1.7578,1.7342,1.7021,1.7376,1.7268,1.6947,1.729,1.7436,1.7472,1.7666,1.7616,1.7491,1.738,1.738,1.7482,1.8003,1.8333,1.8707,1.9172,1.9815,2.0351,2.0655,2.0702,2.0811,2.0964,2.0637,2.0245,2.0097,2.037,2.0934,2.1788,2.1945,2.2046,2.2359,2.241,2.241,2.241,2.2623,2.2774,2.2774,2.2987,2.3078,2.3078,2.2763,2.2567,2.2567,2.2175,2.199,2.199,2.199,2.199,2.199,2.199,2.2187,2.2567,2.2187,2.1928,2.1877,2.1491,2.0387,1.8632,1.8572,1.8346,1.8014,1.8162,1.8221,1.8186,1.8064,1.7936,1.7699,1.6824,1.6303,1.6139,1.638,1.6151,1.5744]}]]